     2              OBSERVATION DATA    GPS                 RINEX VERSION / TYPE
teqc 2000Jul20 Karen Wendt 20040122 20:49:30UTC             PGM / RUN BY / DATE
                                                            COMMENT
L2: 1 -> 1; 150 -> 5; 250 -> 9                              COMMENT
L2: 1 -> 1; 150 -> 5; 250 -> 9                              COMMENT
L2: 1 -> 1; 150 -> 5; 250 -> 9                              COMMENT
L2: 1 -> 1; 150 -> 5; 250 -> 9                              COMMENT
L2: 1 -> 1; 150 -> 5; 250 -> 9                              COMMENT
L2: 1 -> 1; 150 -> 5; 250 -> 9                              COMMENT
L2: 1 -> 1; 150 -> 5; 250 -> 9                              COMMENT
L2: 1 -> 1; 150 -> 5; 250 -> 9                              COMMENT
L2: 1 -> 1; 150 -> 5; 250 -> 9                              COMMENT
L2: 1 -> 1; 150 -> 5; 250 -> 9                              COMMENT
L2: 1 -> 1; 150 -> 5; 250 -> 9                              COMMENT
L2: 1 -> 1; 150 -> 5; 250 -> 9                              COMMENT
L2: 1 -> 1; 150 -> 5; 250 -> 9                              COMMENT
L2: 1 -> 1; 150 -> 5; 250 -> 9                              COMMENT
Original Marker Name: 2069 2069_smtpd_SLO_101_PM_5229_05LL_1COMMENT
Campaign Name: USGS San Simeon 2003-2004                    COMMENT
4-Character Station Name: 2069                              COMMENT
6-Character Antenna Code: DMRCHT                            COMMENT
Vertical Measurement Point: BCR                             COMMENT
Vertical Offset to Rinex Ref. Point: 0.0348                 COMMENT
Radial Measurement Point: ECF                               COMMENT
Radial Offset to Rinex Ref. Point: 0.1897                   COMMENT
Antenna Height from Field Measurement: 1.4980 m             COMMENT
Additional Antenna Identification Info.:                    COMMENT
Turborogue and Ashtech Choke Ring                           COMMENT
Original XYZ: -2652415.8900 -4466130.1666 3689201.5107      COMMENT
New XYZ position is based on association with SCEC monument COMMENT
E1F1B1O7+0011. Position of that monument is believed to be  COMMENT
valid to within 1 m horizontally; vertical accuracy         COMMENT
should be no worse than 3-times this value.                 COMMENT
                                                            COMMENT
Revised Rinex header created by UCSD GPS archive for        COMMENT
GSAC on 20-Apr-2005 (2005:110) 16:30:30 GMT                 COMMENT
For assistance contact dagnew@ucsd.edu                      COMMENT
or anderson@python.ucsd.edu                                 COMMENT
                                                            COMMENT
S101 01 PM 5229 05LL 1993                                   MARKER NAME
JMS US GEOLOGICAL SURVEY                                    OBSERVER / AGENCY
LP019992809 ASHTECH Z-XII3 CD00                             REC # / TYPE / VERS
CR619992805 DORNE-MARGOL. TYPE T                            ANT # / TYPE
 -2652433.0000 -4466104.0000  3689192.0000                  APPROX POSITION XYZ
        1.4511        0.0000        0.0000                  ANTENNA: DELTA H/E/N
     1     1     0                                          WAVELENGTH FACT L1/2
     5    C1    L1    L2    P1    P2                        # / TYPES OF OBSERV
    30                                                      INTERVAL
  2004     1    16     0     0   30.000000                  TIME OF FIRST OBS
  2004     1    16    23    59   30.000000                  TIME OF LAST OBS
                                                            END OF HEADER
 04  1 16  0  0 30.0000000  0  7G30G 5G10G24G 6G21G17
  20371564.778   -14485074.81749 -11263484.45148  20371564.669    20371570.606
  22148877.575   -10264966.01949  -7757777.78147  22148876.691    22148884.261
  21088942.720   -15837522.14449 -12324255.15447  21088941.489    21088948.462
  23536982.765      657776.20249    540382.00546  23536982.006    23536990.972
  21219544.912   -14519604.27349 -10939463.54947  21219544.435    21219551.015
  22965758.064    -5603269.80749  -4344983.62646  22965757.147    22965764.067
  21073443.222   -14887542.45449 -11338481.58248  21073442.319    21073449.378
 04  1 16  0  1  0.0000000  0  7G30G 5G10G24G 6G21G17
  20377544.085   -14453653.42549 -11239000.26448  20377543.990    20377549.903
  22166536.764   -10172167.46349  -7685467.26247  22166535.826    22166543.297
  21093935.875   -15811283.42649 -12303809.40647  21093934.623    21093941.515
  23552787.131      740828.40949    605097.96046  23552786.415    23552795.404
  21209952.388   -14570013.24849 -10978743.25647  21209951.936    21209958.548
  22951830.699    -5676458.80649  -4402013.93646  22951829.828    22951836.690
  21081375.042   -14845860.55049 -11306002.19248  21081374.098    21081381.208
 04  1 16  0  1 30.0000000  0  7G30G 5G10G24G 6G21G17
  20383632.478   -14421659.23949 -11214069.74748  20383632.345    20383638.213
  22184249.895   -10079084.57949  -7612935.19447  22184248.994    22184256.419
  21099046.220   -15784428.56649 -12282883.54847  21099044.935    21099051.789
  23568593.435      823890.14549    669821.34146  23568592.722    23568601.598
  21200393.952   -14620243.71749 -11017883.86447  21200393.483    21200400.048
  22937943.788    -5749435.83949  -4458879.08746  22937942.742    22937949.567
  21089352.561   -14803938.00149 -11273335.28648  21089351.646    21089358.844
 04  1 16  0  2  0.0000000  0  7G30G 5G10G24G 6G21G17
  20389829.144   -14389095.86849 -11188695.70648  20389828.985    20389834.850
  22202016.208    -9985722.70049  -7540185.72847  22202015.264    22202022.669
  21104273.034   -15756961.24649 -12261480.44447  21104271.797    21104278.642
  23584400.688      906957.82749    734549.35346  23584400.039    23584408.848
  21190869.232   -14670296.95149 -11056886.36847  21190868.727    21190875.223
  22924096.585    -5822203.66749  -4515581.20946  22924095.459    22924102.175
  21097375.144   -14761778.88049 -11240484.03348  21097374.252    21097381.493
 04  1 16  0  2 30.0000000  0  7G30G 5G10G24G 6G21G17
  20396135.144   -14355958.10349 -11162874.08848  20396134.979    20396140.843
  22219836.390    -9892077.51049  -7467215.50547  22219835.398    22219842.790
  21109617.414   -15728876.27649 -12239596.05747  21109616.187    21109623.061
  23600210.239      990036.73049    799286.11546  23600209.504    23600218.298
  21181379.698   -14720165.16349 -11095744.70347  21181379.196    21181385.659
  22910290.534    -5894754.71249  -4572114.39246  22910289.436    22910296.033
  21105443.770   -14719378.04749 -11207444.43247  21105442.876    21105450.130
 04  1 16  0  3  0.0000000  0  7G30G 5G10G24G 6G21G17
  20402548.808   -14322254.30149 -11136611.40448  20402548.649    20402554.488
  22237708.287    -9798159.53749  -7394032.71947  22237707.425    22237714.784
  21115077.735   -15700182.50849 -12217237.28747  21115076.487    21115083.384
  23616020.031     1073117.87449    864024.62146  23616019.340    23616028.143
  21171924.177   -14769854.55249 -11134463.69947  21171923.682    21171930.077
  22896524.454    -5967096.50049  -4628484.53846  22896523.247    22896529.674
  21113556.621   -14676744.60049 -11174223.58147  21113555.750    21113563.049
 04  1 16  0  3 30.0000000  0  7G30G 5G10G24G 6G21G17
  20409070.156   -14287984.73649 -11109907.86448  20409069.995    20409075.785
  22255632.098    -9703969.57149  -7320637.99447  22255631.227    22255638.508
  21120653.858   -15670879.95549 -12194404.13447  21120652.596    21120659.497
  23631830.191     1156201.42749    928765.01246  23631829.615    23631838.497
  21162503.127   -14819362.72049 -11173041.48047  21162502.624    21162508.984
  22882798.343    -6039227.53849  -4684690.46646  22882797.140    22882803.425
  21121713.671   -14633878.91049 -11140821.75247  21121712.803    21121720.098
 04  1 16  0  4  0.0000000  0  7G30G 5G10G24G 6G21G17
  20415700.484   -14253142.23849 -11082757.88248  20415700.355    20415706.100
  22273608.633    -9609502.58549  -7247027.41847  22273607.672    22273614.933
  21126347.042   -15640961.93449 -12171091.39247  21126345.795    21126352.741
  23647642.215     1239294.21949    993512.59246  23647641.698    23647650.550
  21153118.367   -14868680.36449 -11211470.79647  21153117.871    21153124.164
  22869113.725    -6111139.66549  -4740725.81546  22869112.673    22869118.870
  21129916.274   -14590774.26349 -11107233.72847  21129915.394    21129922.645
 04  1 16  0  4 30.0000000  0  7G30G 5G10G24G 6G21G17
  20422438.286   -14217735.10849 -11055167.93048  20422438.160    20422443.862
  22291635.920    -9514767.87949  -7173208.23147  22291635.013    22291642.355
  21132155.709   -15610437.11749 -12147305.82647  21132154.484    21132161.425
  23663454.502     1322388.21449   1058261.10746  23663454.012    23663462.708
  21143768.852   -14917813.12049 -11249756.04647  21143768.314    21143774.539
  22855469.369    -6182839.84449  -4796596.01246  22855468.488    22855474.747
  21138162.744   -14547439.14849 -11073466.11847  21138161.805    21138169.007
 04  1 16  0  5  0.0000000  0  7G30G 5G10G24G 6G21G17
  20429283.344   -14181764.23749 -11027138.69848  20429283.192    20429288.897
  22309713.654    -9419767.62149  -7099182.11947  22309712.837    22309720.335
  21138079.712   -15579306.19849 -12123047.97047  21138078.473    21138085.429
  23679266.894     1405482.41349   1123009.78746  23679266.345    23679274.823
  21134454.770   -14966759.27849 -11287895.89348  21134454.222    21134460.389
  22841865.603    -6254327.50149  -4852300.60846  22841864.676    22841870.965
  21146452.818   -14503874.56949 -11039519.70647  21146451.896    21146459.079
 04  1 16  0  5 30.0000000  0  7G30G 5G10G24G 6G21G17
  20436235.878   -14145228.56549 -10998669.36648  20436235.738    20436241.436
  22327842.082    -9324502.56249  -7024949.68347  22327841.127    22327848.706
  21144119.136   -15547568.41949 -12098317.24047  21144117.892    21144124.856
  23695079.369     1488577.69749   1187759.30346  23695078.859    23695087.329
  21125176.845   -15015515.38749 -11325887.65048  21125176.275    21125182.401
  22828302.882    -6325599.94849  -4907837.52746  22828301.875    22828308.127
  21154786.647   -14460079.77149 -11005393.90347  21154785.766    21154792.945
 04  1 16  0  6  0.0000000  0  7G30G 5G10G24G 6G21G17
  20443295.254   -14108131.62149 -10969762.67048  20443295.091    20443300.748
  22346019.891    -9228977.39649  -6950514.54046  22346018.923    22346026.564
  21150273.300   -15515227.45249 -12073116.49147  21150272.091    21150279.127
  23710891.590     1571671.31549   1252507.53846  23710891.081    23710899.542
  21115934.890   -15064082.33649 -11363732.00348  21115934.313    21115940.434
  22814780.757    -6396659.23549  -4963208.31846  22814779.736    22814785.894
  21163163.685   -14416058.66549 -10971091.75047  21163162.747    21163169.882
 04  1 16  0  6 30.0000000  0  7G30G 5G10G24G 6G21G17
  20450461.549   -14070472.97049 -10940418.28848  20450461.370    20450466.943
  22364247.040    -9133193.14149  -6875877.52546  22364246.095    22364253.739
  21156542.424   -15482283.03949 -12047445.52947  21156541.201    21156548.226
  23726703.402     1654763.39349   1317254.53246  23726702.975    23726711.227
  21106729.449   -15112457.10349 -11401426.61248  21106728.886    21106735.025
  22801299.293    -6467502.87049  -5018411.09346  22801298.450    22801304.621
  21171583.799   -14371810.83849 -10936612.93947  21171582.868    21171590.010
 04  1 16  0  7  0.0000000  0  7G30G 5G10G24G 6G21G17
  20457734.716   -14032252.57649 -10910636.18748  20457734.525    20457740.042
  22382523.314    -9037151.04549  -6801039.59646  22382522.352    22382529.973
  21162926.265   -15448735.30849 -12021304.45347  21162925.102    21162932.161
  23742515.132     1737854.36749   1382000.69846  23742514.699    23742522.642
  21097561.152   -15160637.00649 -11438969.38448  21097560.573    21097566.725
  22787859.056    -6538130.10449  -5073445.24546  22787858.433    22787864.610
  21180047.043   -14327336.38549 -10901957.53647  21180046.109    21180053.255
 04  1 16  0  7 30.0000000  0  7G30G 5G10G24G 6G21G17
  20465113.665   -13993476.38749 -10880420.99248  20465113.457    20465118.955
  22400847.456    -8940858.04849  -6726006.15446  22400846.376    22400853.923
  21169423.929   -15414590.24949 -11994697.92347  21169422.704    21169429.796
  23758325.657     1820938.61049   1446741.62445  23758325.124    23758332.947
  21088429.379   -15208625.23749 -11476362.79348  21088428.745    21088434.915
  22774459.693    -6608545.01249  -5128313.93346  22774458.871    22774464.997
  21188552.237   -14282641.38849 -10867130.27947  21188551.301    21188558.454
 04  1 16  0  8  0.0000000  0  7G30G 5G10G24G 6G21G17
  20472598.536   -13954143.33849 -10849771.88048  20472598.335    20472603.828
  22419219.047    -8844314.57549  -6650777.52146  22419218.038    22419225.478
  21176035.280   -15379846.98449 -11967625.25347  21176034.087    21176041.213
  23774134.945     1904017.32749   1511478.22145  23774134.399    23774142.283
  21079334.617   -15256418.07649 -11513603.94848  21079334.031    21079340.289
  22761101.016    -6678745.55649  -5183015.59946  22761100.069    22761106.134
  21197099.524   -14237724.87849 -10832130.41547  21197098.614    21197105.802
 04  1 16  0  8 30.0000000  0  7G30G 5G10G24G 6G21G17
  20480189.275   -13914253.73149 -10818689.08948  20480189.090    20480194.562
  22437637.975    -8747522.27449  -6575354.98546  22437637.047    22437644.348
  21182760.379   -15344506.11749 -11940086.91847  21182759.201    21182766.399
  23789943.108     1987090.40249   1576210.42745  23789942.637    23789950.548
  21070277.504   -15304013.24849 -11550691.07648  21070276.951    21070283.264
  22747783.517    -6748729.88049  -5237548.75746  22747782.398    22747788.529
  21205688.903   -14192587.23649 -10796958.23247  21205688.028    21205695.225
 04  1 16  0  9  0.0000000  0  7G30G 5G10G24G 6G21G17
  20487885.876   -13873807.66449 -10787172.69748  20487885.722    20487891.220
  22456104.276    -8650482.46049  -6499739.60246  22456103.203    22456110.375
  21189599.159   -15308567.93349 -11912083.14247  21189597.987    21189605.212
  23805750.192     2070157.76349   1640938.15945  23805749.634    23805757.959
  21061258.523   -15351408.25949 -11587622.24148  21061257.965    21061264.315
  22734507.248    -6818496.64749  -5291912.42246  22734506.179    22734512.317
  21214320.324   -14147229.02149 -10761614.19047  21214319.412    21214326.623
 04  1 16  0  9 30.0000000  0  7G30G 5G10G24G 6G21G17
  20495687.055   -13832812.05349 -10755228.08748  20495686.911    20495692.406
  22474615.847    -8553202.94749  -6423937.42746  22474614.888    22474621.942
  21196550.220   -15272039.36749 -11883619.32847  21196549.084    21196556.379
  23821555.050     2153213.47549   1705656.82945  23821554.571    23821562.872
  21052276.887   -15398607.06549 -11624400.51948  21052276.312    21052282.640
  22721271.329    -6888051.28849  -5346110.79246  22721270.312    22721276.464
  21222992.468   -14101656.37049 -10726103.04747  21222991.599    21222998.783
 04  1 16  0 10  0.0000000  0  7G30G 5G10G24G 6G21G17
  20503593.661   -13791262.69449 -10722851.98348  20503593.517    20503599.008
  22493173.552    -8455681.39449  -6347946.65346  22493172.591    22493179.666
  21203614.434   -15234916.36549 -11854692.31447  21203613.334    21203620.696
  23837358.589     2236261.69649   1770369.67145  23837358.041    23837366.300
  21043333.970   -15445602.52649 -11661020.34348  21043333.413    21043339.701
  22708077.000    -6957387.72149  -5400139.13846  22708075.946    22708082.104
  21231706.266   -14055865.55049 -10690421.90647  21231705.356    21231712.454
 04  1 16  0 10 30.0000000  0  7G30G 5G10G24G 6G21G17
  20511605.268   -13749161.41049 -10690045.81548  20511605.101    20511610.599
  22511776.818    -8357920.34849  -6271769.27046  22511775.852    22511782.971
  21210791.311   -15197201.29349 -11825303.95747  21210790.196    21210797.616
  23853160.282     2319301.01249   1835075.57345  23853159.762    23853168.022
  21034429.871   -15492393.90249 -11697481.14448  21034429.308    21034435.591
  22694923.968    -7026506.47749  -5453997.85546  22694923.032    22694929.130
  21240461.280   -14009858.41549 -10654572.21047  21240460.295    21240467.287
 04  1 16  0 11  0.0000000  0  7G30G 5G10G24G 6G21G17
  20519721.624   -13706509.94749 -10656810.94148  20519721.462    20519726.915
  22530425.017    -8259922.51649  -6195407.38046  22530424.152    22530431.360
  21218080.667   -15158895.88349 -11795455.58947  21218079.539    21218086.887
  23868960.069     2402330.21049   1899773.60745  23868959.753    23868967.905
  21025564.824   -15538979.82249 -11733781.84448  21025564.275    21025570.637
  22681812.633    -7095407.37349  -5507686.82246  22681811.578    22681817.623
  21249257.039   -13963636.37749 -10618555.05447  21249256.096    21249263.040
 04  1 16  0 11 30.0000000  0  7G30G 5G10G24G 6G21G17
  20527941.911   -13663312.19349 -10623150.37948  20527941.712    20527947.169
  22549117.427    -8161693.24349  -6118865.14846  22549116.572    22549123.833
  21225481.523   -15120004.15449 -11765150.35447  21225480.366    21225487.783
  23884757.495     2485345.80849   1964461.03045  23884757.156    23884765.398
  21016738.675   -15585361.37749 -11769923.29948  21016738.135    21016744.554
  22668742.158    -7164093.11149  -5561208.10646  22668741.017    22668746.996
  21258092.921   -13917203.41449 -10582373.54447  21258092.009    21258098.970
 04  1 16  0 12  0.0000000  0  7G30G 5G10G24G 6G21G17
  20536266.176   -13619567.79949 -10589063.87148  20536266.039    20536271.468
  22567853.675    -8063233.25549  -6042143.15346  22567852.940    22567860.221
  21232994.009   -15080525.81449 -11734388.02647  21232992.855    21233000.283
  23900552.621     2568348.69549   2029138.54845  23900552.212    23900560.735
  21007952.078   -15631535.23449 -11805902.92548  21007951.508    21007957.995
  22655713.056    -7232561.43149  -5614559.99246  22655711.897    22655717.901
  21266969.125   -13870558.94449 -10546027.22947  21266968.174    21266975.150
 04  1 16  0 12 30.0000000  0  7G30G 5G10G24G 6G21G17
  20544693.913   -13575279.61849 -10554553.62348  20544693.804    20544699.260
  22586633.278    -7964546.70649  -5965244.61546  22586632.440    22586639.814
  21240617.548   -15040464.04549 -11703171.07747  21240616.367    21240623.853
  23916344.793     2651336.74749   2093804.50045  23916344.429    23916352.925
  20999204.907   -15677501.44749 -11841720.73248  20999204.353    20999210.901
  22642724.988    -7300813.24149  -5667743.16046  22642724.019    22642729.892
  21275884.935   -13823705.75549 -10509518.26947  21275883.972    21275891.044
 04  1 16  0 13  0.0000000  0  7G30G 5G10G24G 6G21G17
  20553224.484   -13530450.76449 -10519622.07548  20553224.419    20553229.911
  22605455.208    -7865637.66749  -5888172.70346  22605454.280    22605461.733
  21248351.417   -14999822.26249 -11671502.17647  21248350.253    21248357.733
  23932133.657     2734307.15149   2158456.69445  23932133.278    23932141.485
  20990497.325   -15723260.19149 -11877376.88248  20990496.761    20990503.267
  22629777.969    -7368850.39049  -5720759.06746  22629776.971    22629782.800
  21284839.860   -13776646.83549 -10472849.00047  21284838.943    21284846.079
 04  1 16  0 13 30.0000000  0  7G30G 5G10G24G 6G21G17
  20561858.389   -13485079.16149 -10484267.60148  20561858.322    20561863.855
  22624319.654    -7766505.06949  -5810926.59746  22624318.730    22624326.242
  21256196.082   -14958598.57249 -11639379.83647  21256194.902    21256202.326
  23947919.838     2817262.52049   2223097.19245  23947919.419    23947927.126
  20981830.238   -15768806.39549 -11912867.41448  20981829.632    20981836.081
  22616872.624    -7436668.84849  -5773604.57946  22616871.566    22616877.291
  21293834.397   -13729379.97049 -10436017.70047  21293833.466    21293840.633
 04  1 16  0 14  0.0000000  0  7G30G 5G10G24G 6G21G17
  20570595.440   -13439165.94149 -10448491.09148  20570595.323    20570600.897
  22643226.141    -7667151.14049  -5733508.00246  22643225.242    22643232.905
  21264151.233   -14916794.33849 -11606805.11747  21264150.085    21264157.356
  23963703.094     2900202.71749   2287725.86145  23963702.643    23963710.468
  20973203.861   -15814138.15349 -11948190.84248  20973203.244    20973209.684
  22604008.918    -7504267.98449  -5826279.18046  22604007.861    22604013.475
  21302868.433   -13681906.18449 -10399025.15847  21302867.432    21302874.621
 04  1 16  0 14 30.0000000  0  7G30G 5G10G24G 6G21G17
  20579434.231   -13392717.50449 -10412297.52348  20579434.144    20579439.710
  22662173.282    -7567583.28649  -5655922.72646  22662172.404    22662180.195
  21272215.644   -14874415.93649 -11573782.99547  21272214.452    21272221.682
  23979482.390     2983121.89349   2352338.15345  23979481.829    23979489.773
  20964617.528   -15859258.89949 -11983349.84148  20964616.958    20964623.427
  22591186.189    -7571652.24849  -5878786.33246  22591185.047    22591190.545
  21311940.636   -13634231.19849 -10361875.83147  21311939.631    21311946.901
 04  1 16  0 15  0.0000000  0  7G30G 5G10G24G 6G21G17
  20588375.325   -13345731.93149 -10375685.41348  20588375.205    20588380.786
  22681161.695    -7467800.08049  -5578169.66146  22681160.539    22681168.520
  21280389.631   -14831461.51749 -11540312.03047  21280388.464    21280395.609
  23995258.097     3066022.42249   2416935.90145  23995257.509    23995265.444
  20956072.311   -15904163.67149 -12018340.54948  20956071.783    20956078.274
  22578404.793    -7638818.41349  -5931123.54246  22578403.686    22578409.188
  21321051.426   -13586353.13949 -10324568.27347  21321050.534    21321057.830
 04  1 16  0 15 30.0000000  0  8G30G 5G10G24G29G 6G21G17
  20597418.711   -13298208.64049 -10338654.30148  20597418.574    20597424.158
  22700190.395    -7367802.40449  -5500249.46046  22700189.416    22700197.616
  21288673.234   -14787930.69749 -11506391.92947  21288672.059    21288679.264
  24011030.400     3148905.58149   2481520.12945  24011029.740    24011037.484
                  -1544642.65049  -1192386.24443
  20947569.004   -15948848.71049 -12053160.04148  20947568.460    20947574.944
  22565665.284    -7705764.14849  -5983289.00346  22565664.266    22565669.894
  21330201.221   -13538271.15749 -10287101.80647  21330200.220    21330207.500
 04  1 16  0 16  0.0000000  0  8G30G 5G10G24G29G 6G21G17
  20606563.689   -13250151.58549 -10301207.27848  20606563.523    20606569.114
  22719258.943    -7267595.43249  -5422166.16746  22719258.155    22719266.572
  21297065.778   -14743827.78849 -11472026.04647  21297064.569    21297071.807
  24026798.903     3231768.33049   2546088.46145  24026798.224    24026805.435
                  -1614787.47649  -1247048.70343
  20939107.398   -15993314.88949 -12087808.99848  20939106.838    20939113.250
  22552967.443    -7772491.51449  -6035284.30646  22552966.426    22552972.125
  21339388.988   -13489988.76949 -10249479.18047  21339388.039    21339395.356
 04  1 16  0 16 30.0000000  0  8G30G 5G10G24G29G 6G21G17
  20615809.627   -13201563.69249 -10263346.60648  20615809.462    20615815.125
  22738367.092    -7167182.44249  -5343922.36346  22738366.116    22738374.646
  21305566.491   -14699156.22749 -11437217.05447  21305565.294    21305572.531
  24042562.868     3314608.35649   2610639.07245  24042562.380    24042569.382
                  -1684824.91649  -1301628.33843
  20930687.484   -16037562.15149 -12122287.36648  20930686.907    20930693.235
  22540311.043    -7839001.58249  -6087110.27646  22540309.849    22540315.702
  21348614.452   -13441508.89649 -10211702.66147  21348613.512    21348620.774
 04  1 16  0 17  0.0000000  0  7G30G 5G10G24G 6G21G17
  20625156.639   -13152444.43349 -10225071.89048  20625156.531    20625162.261
  22757513.964    -7066564.31249  -5265518.69146  22757513.052    22757521.806
  21314175.584   -14653915.39349 -11401964.47747  21314174.404    21314181.543
  24058322.757     3397427.13149   2675173.14845  24058322.310    24058329.323
  20922309.910   -16081586.60549 -12156592.12448  20922309.317    20922315.623
  22527696.152    -7905291.71849  -6138764.87946  22527695.062    22527701.142
  21357877.705   -13392830.30549 -10173771.31247  21357876.760    21357884.058
 04  1 16  0 17 30.0000000  0  7G30G 5G10G24G 6G21G17
  20634604.371   -13102796.54349 -10186385.24748  20634604.241    20634609.997
  22776699.109    -6965744.49449  -5186957.87046  22776698.310    22776707.307
  21322892.538   -14608108.07649 -11366270.47947  21322891.300    21322898.364
  24074078.428     3480222.82849   2739689.21345  24074077.941    24074084.860
  20913974.746   -16125387.81849 -12190722.92348  20913974.187    20913980.480
  22515122.980    -7971362.82349  -6190248.81146  22515122.045    22515128.245
  21367178.305   -13343955.35849 -10135686.95247  21367177.371    21367184.688
 04  1 16  0 18  0.0000000  0  7G30G 5G10G24G 6G21G17
  20644152.270   -13052622.06049 -10147288.27448  20644152.151    20644157.924
  22795922.137    -6864726.51949  -5108242.63546  22795921.332    22795930.553
  21331716.740   -14561736.53549 -11330136.81947  21331715.491    21331722.517
  24089829.616     3562994.12849   2804186.28645  24089828.977    24089835.551
  20905682.310   -16168964.76649 -12224678.97448  20905681.748    20905687.983
  22502591.402    -8037215.35249  -6241562.41846  22502590.571    22502596.907
  21376515.880   -13294885.84049 -10097450.96747  21376514.947    21376522.379
 04  1 16  0 18 30.0000000  0  8G30G 5G10G24G29G 6G21G17
  20653800.037   -13001923.01649 -10107782.55448  20653799.922    20653805.680
  22815182.705    -6763512.52349  -5029374.67646  22815181.768    22815191.090
  21340647.878   -14514803.03149 -11293565.26947  21340646.658    21340653.672
  24105575.844     3645739.93049   2868663.48145  24105575.218    24105581.531
                  -1506153.33749  -1165279.81343
  20897432.836   -16212316.11749 -12258459.24148  20897432.229    20897438.453
  22490101.529    -8102849.35849  -6292705.75446  22490100.707    22490107.171
  21385890.138   -13245623.18449 -10059064.49847  21385889.227    21385896.825
 04  1 16  0 19  0.0000000  0  8G30G 5G10G24G29G 6G21G17
  20663547.670   -12950698.94949 -10067867.71548  20663547.564    20663553.330
  22834480.531    -6662103.01949  -4950354.36946  22834479.369    22834488.802
  21349685.983   -14467307.26849 -11256555.59047  21349684.751    21349691.757
  24121317.268     3728461.67549   2933121.91845  24121316.580    24121323.115
                  -1575599.91049  -1219380.55643
  20889226.881   -16255438.17949 -12292060.83848  20889226.300    20889232.611
  22477653.721    -8168262.87149  -6343677.27346  22477652.715    22477659.391
  21395301.419   -13196166.53149 -10020526.85647  21395300.502    21395308.195
 04  1 16  0 19 30.0000000  0  7G30G 5G10G24G 6G21G17
  20673394.377   -12898954.06049 -10027547.04448  20673394.287    20673400.095
  22853814.329    -6560503.67449  -4871186.12546  22853813.124    22853822.640
  21358830.215   -14419253.83149 -11219111.36447  21358828.980    21358836.000
  24137053.437     3811156.21149   2997559.18045  24137052.767    24137059.733
  20881064.398   -16298331.91649 -12325484.51948  20881063.810    20881070.200
  22465247.382    -8233457.70049  -6394478.39346  22465246.424    22465253.166
  21404748.982   -13146519.96649  -9981841.22547  21404747.991    21404755.672
 04  1 16  0 20  0.0000000  0  7G30G 5G10G24G 6G21G17
  20683339.877   -12846689.74249  -9986821.62548  20683339.812    20683345.666
  22873183.668    -6458716.33049  -4791871.37146  22873182.605    22873192.293
  21368080.224   -14370644.01549 -11181233.59847  21368079.017    21368086.097
  24152784.501     3893823.08749   3061974.88345  24152783.856    24152791.149
  20872945.741   -16340995.41649 -12358728.79348  20872945.171    20872951.613
  22452882.623    -8298433.45149  -6445108.81646  22452881.803    22452888.608
  21414232.471   -13096683.86049  -9943007.91347  21414231.546    21414239.266
 04  1 16  0 20 30.0000000  0  7G30G 5G10G24G 6G21G17
  20693384.202   -12793906.33049  -9945691.72248  20693384.168    20693390.047
  22892588.746    -6356741.92749  -4712410.87946  22892587.691    22892597.587
  21377436.118   -14321478.49349 -11142922.82247  21377434.890    21377442.018
  24168510.426     3976462.81649   3126369.41745  24168509.760    24168517.512
  20864871.484   -16383425.59549 -12391791.26048  20864870.960    20864877.412
  22440559.980    -8363188.84349  -6495567.52246  22440559.184    22440566.086
  21423752.048   -13046658.20149  -9904026.89647  21423751.185    21423758.850
 04  1 16  0 21  0.0000000  0  7G30G 5G10G24G 6G21G17
  20703526.995   -12740605.83949  -9904158.89648  20703526.937    20703532.850
  22912028.804    -6254583.52349  -4632806.98946  22912027.803    22912037.839
  21386897.331   -14271759.40849 -11104180.68247  21386896.120    21386903.219
  24184230.554     4059074.21849   3190741.89345  24184229.897    24184237.896
  20856841.951   -16425621.20349 -12424670.93848  20856841.409    20856847.819
  22428279.326    -8427723.65349  -6545854.34646  22428278.556    22428285.443
  21433307.591   -12996444.43849  -9864899.29847  21433306.650    21433314.300
 04  1 16  0 21 30.0000000  0  7G30G 5G10G24G 6G21G17
  20713766.978   -12686794.56349  -9862228.06548  20713766.917    20713772.836
  22931502.634    -6152247.78849  -4553064.92446  22931501.622    22931511.831
  21396462.726   -14221493.13449 -11065012.17347  21396461.478    21396468.554
  24199944.275     4141652.19149   3255088.29845  24199943.638    24199951.979
  20848856.447   -16467585.32049 -12457370.23748  20848855.858    20848862.253
  22416039.981    -8492042.31849  -6595972.75046  22416039.089    22416045.965
  21442897.611   -12946048.46049  -9825629.73347  21442896.701    21442904.441
 04  1 16  0 22  0.0000000  0  7G30G 5G10G24G 6G21G17
  20724105.326   -12632466.64349  -9819894.64548  20724105.200    20724111.121
  22951011.194    -6049730.06849  -4473181.06846  22951010.146    22951020.456
  21406133.266   -14170674.18249 -11025412.99147  21406132.003    21406139.061
  24215653.319     4224204.06349   3319414.38845  24215652.534    24215661.254
  20840916.762   -16509308.46849 -12489881.76548  20840916.164    20840922.591
  22403843.316    -8556136.70749  -6645916.37046  22403842.373    22403849.220
  21452523.666   -12895463.48549  -9786212.88847  21452522.757    21452530.497
 04  1 16  0 22 30.0000000  0  7G30G 5G10G24G 6G21G17
  20734540.357   -12577630.21049  -9777164.99348  20734540.237    20734546.172
  22970552.635    -5947039.29649  -4393162.36346  22970551.608    22970562.025
  21415907.343   -14119310.93349 -10985389.68647  21415906.097    21415913.167
  24231355.754     4306722.38849   3383714.32945  24231355.152    24231364.446
  20833021.931   -16550795.34449 -12522209.18448  20833021.390    20833027.901
  22391687.996    -8620013.15449  -6695690.18646  22391687.058    22391693.888
  21462184.198   -12844697.31049  -9746654.84647  21462183.290    21462190.983
 04  1 16  0 23  0.0000000  0  7G30G 5G10G24G 6G21G17
  20745072.139   -12522285.10549  -9734038.96648  20745072.055    20745078.007
  22990127.142    -5844175.61149  -4313008.92846  22990125.967    22990136.471
  21425785.048   -14067403.21949 -10944942.12747  21425783.789    21425790.857
  24247052.041     4389208.67749   3447989.29945  24247051.306    24247061.379
  20825172.806   -16592042.53849 -12554349.83848  20825172.273    20825178.793
  22379574.527    -8683669.59749  -6745292.58246  22379573.574    22379580.456
  21471879.380   -12793748.93849  -9706954.83547  21471878.468    21471886.159
 04  1 16  0 23 30.0000000  0  7G30G 5G10G24G 6G21G17
  20755700.059   -12466434.96449  -9690519.40647  20755699.978    20755705.953
  23009733.571    -5741143.75149  -4232724.45046  23009732.353    23009742.917
  21435765.637   -14014954.94049 -10904073.33547  21435764.369    21435771.493
  24262742.257     4471660.58049   3512237.46645  24262741.583    24262751.595
  20817369.379   -16633050.05649 -12586303.73348  20817368.835    20817375.305
  22367502.537    -8747107.86649  -6794724.97646  22367501.740    22367508.570
  21481608.686   -12742621.17749  -9667115.04147  21481607.742    21481615.464
 04  1 16  0 24  0.0000000  0  7G30G 5G10G24G 6G21G17
  20766424.215   -12410079.23749  -9646605.88547  20766424.124    20766430.101
  23029371.854    -5637943.84249  -4152309.00946  23029370.728    23029381.271
  21445849.041   -13961965.75649 -10862783.07247  21445847.819    21445855.025
  24278426.284     4554079.51849   3576459.97645  24278425.465    24278435.406
  20809612.342   -16673814.06849 -12618067.88048  20809611.766    20809618.153
  22355472.999    -8810325.12549  -6843985.14546  22355471.998    22355478.826
  21491372.233   -12691313.19549  -9627134.81547  21491371.343    21491379.090
 04  1 16  0 24 30.0000000  0  7G30G 5G10G24G 6G21G17
  20777244.052   -12353220.50749  -9602300.40947  20777244.003    20777249.981
  23049041.731    -5534578.64249  -4071764.76946  23049040.621    23049051.090
  21456034.967   -13908438.23449 -10821073.31447  21456033.827    21456041.026
  24294103.399     4636464.39749   3640655.93645  24294102.793    24294112.668
  20801901.788   -16714333.58849 -12649641.50648  20801901.183    20801907.494
  22343485.248    -8873321.88949  -6893073.49547  22343484.158    22343490.893
  21501169.794   -12639826.67649  -9587015.46747  21501168.900    21501176.693
 04  1 16  0 25  0.0000000  0  7G30G 5G10G24G 6G21G17
  20788158.798   -12295863.51449  -9557606.67447  20788158.727    20788164.693
  23068742.151    -5431053.72149  -3991096.07046  23068740.983    23068751.264
  21466322.548   -13854377.39049 -10778947.97247  21466321.305    21466328.464
  24309773.758     4718811.82649   3704822.72344  24309773.334    24309782.766
  20794237.494   -16754609.73249 -12681025.48548  20794236.919    20794243.163
  22331538.752    -8936100.97449  -6941992.22647  22331537.688    22331544.385
  21511000.720   -12588165.49549  -9546760.01547  21510999.775    21511007.521
 04  1 16  0 25 30.0000000  0  7G30G 5G10G24G 6G21G17
  20799168.562   -12238007.24449  -9512523.90247  20799168.435    20799174.367
  23088472.950    -5327369.02749  -3910302.87046  23088471.763    23088481.873
  21476711.685   -13799782.48649 -10736406.48547  21476710.433    21476717.567
  24325437.521     4801123.91149   3768961.97244  24325437.199    24325446.420
  20786620.372   -16794637.94249 -12712216.27648  20786619.803    20786626.023
  22319634.121    -8998658.98449  -6990738.70347  22319633.180    22319639.945
  21520865.090   -12536327.83349  -9506367.04447  21520864.146    21520871.895
 04  1 16  0 26  0.0000000  0  7G30G 5G10G24G 6G21G17
  20810273.320   -12179651.57249  -9467051.97847  20810273.198    20810279.110
  23108233.974    -5223525.17049  -3829385.64846  23108232.853    23108242.801
  21487202.243   -13744653.44149 -10693448.79047  21487201.040    21487208.268
  24341094.529     4883401.91249   3833074.69744  24341094.223    24341103.733
  20779051.123   -16834414.61749 -12743211.05748  20779050.563    20779056.781
  22307772.145    -9060993.95249  -7039311.36747  22307771.261    22307777.990
  21530763.165   -12484313.05149  -9465836.05347  21530762.234    21530769.946
 04  1 16  0 26 30.0000000  0  7G30G 5G10G24G 6G21G17
  20821471.680   -12120803.94849  -9421196.71847  20821471.545    20821477.450
  23128023.729    -5119529.72649  -3748350.32046  23128022.763    23128032.520
  21497793.052   -13688998.07549 -10650080.97447  21497791.928    21497799.242
  24356743.799     4965639.89249   3897156.22744  24356743.369    24356753.028
  20771529.032   -16873943.53849 -12774012.79148  20771528.470    20771534.677
  22295951.732    -9123111.38149  -7087714.52647  22295950.745    22295957.422
  21540693.731   -12432127.73549  -9425172.17847  21540692.759    21540700.420
 04  1 16  0 27  0.0000000  0  7G30G 5G10G24G 6G21G17
  20832763.540   -12061465.21249  -9374958.77247  20832763.388    20832769.291
  23147842.299    -5015384.50449  -3667198.27246  23147841.232    23147850.781
  21508483.956   -13632817.39449 -10606303.82347  21508482.807    21508490.136
  24372385.843     5047838.37249   3961206.99344  24372385.209    24372393.902
  20764054.574   -16913222.17749 -12804619.49948  20764053.995    20764060.232
  22284172.944    -9185009.63149  -7135946.88747  22284171.889    22284178.581
  21550656.656   -12379771.79849  -9384375.34547  21550655.751    21550663.327
 04  1 16  0 27 30.0000000  0  7G30G 5G10G24G 6G21G17
  20844149.511   -12001631.96149  -9328335.49047  20844149.336    20844155.258
  23167689.711    -4911086.22249  -3585926.95246  23167688.802    23167698.087
  21519275.480   -13576107.83649 -10562114.56347  21519274.306    21519281.627
  24388021.365     5130002.06449   4025230.64544  24388020.606    24388029.173
  20756629.133   -16952243.07649 -12835025.37548  20756628.545    20756634.797
  22272436.753    -9246683.60249  -7184004.47647  22272435.734    22272442.346
  21560653.051   -12327240.73549  -9343442.05147  21560652.121    21560659.582
 04  1 16  0 28  0.0000000  0  7G30G 5G10G24G 6G21G17
  20855628.078   -11941312.04749  -9281332.99247  20855627.909    20855633.801
  23187564.697    -4806643.68949  -3504543.25046  23187563.733    23187572.844
  21530166.067   -13518877.47649 -10517519.48247  21530164.907    21530172.227
  24403648.450     5212124.70448   4089222.36544  24403647.080    24403656.792
  20749251.881   -16991010.64849 -12865233.84948  20749251.292    20749257.538
  22260741.961    -9308139.06349  -7231891.81047  22260741.060    22260747.692
  21570681.373   -12274541.67649  -9302377.85047  21570680.459    21570687.777
 04  1 16  0 28 30.0000000  0  7G30G 5G10G24G 6G21G17
  20867199.421   -11880504.69649  -9233950.65947  20867199.258    20867205.119
  23207467.215    -4702056.33149  -3423046.68946  23207466.205    23207475.237
  21541155.819   -13461125.88549 -10472518.24547  21541154.709    21541162.033
  24419267.469     5294208.32548   4153183.58644  24419266.753    24419277.390
  20741923.595   -17029520.61749 -12895241.59148  20741923.036    20741929.302
  22249089.515    -9369372.76349  -7279606.33947  22249088.627    22249095.248
  21580741.985   -12221673.05249  -9261181.52147  21580741.074    21580748.334
 04  1 16  0 29  0.0000000  0  7G30G 5G10G24G 6G21G17
  20878862.986   -11819212.47749  -9186190.51347  20878862.874    20878868.664
  23227396.521    -4597327.65749  -3341440.02846  23227395.469    23227404.449
  21552244.355   -13402855.83349 -10427113.01247  21552243.192    21552250.454
  24434880.338     5376252.00548   4217113.72844  24434879.673    24434889.508
  20734644.623   -17067771.70649 -12925047.62148  20734644.055    20734650.360
  22237479.345    -9430384.99049  -7327148.29047  22237478.334    22237484.981
  21590834.484   -12168636.64949  -9219854.46047  21590833.527    21590840.775
 04  1 16  0 29 30.0000000  0  7G30G 5G10G24G 6G21G17
  20890617.959   -11757440.46649  -9138056.49947  20890617.806    20890623.515
  23247351.615    -4492463.09449  -3259727.48446  23247350.643    23247359.544
  21563430.420   -13344072.55449 -10381307.86747  21563429.249    21563436.584
  24450484.150     5458252.06848   4281009.87444  24450483.334
  20727414.620   -17105765.48349 -12954653.14348  20727414.040    20727420.438
  22225910.549    -9491179.12149  -7374520.28147  22225909.533    22225916.204
  21600958.005   -12115436.55149  -9178399.83447  21600957.138    21600964.355
 04  1 16  0 30  0.0000000  0  8G30G 5G10G24G 6G18G21G17
  20902464.919   -11695184.20949  -9089545.15747  20902464.805    20902470.473
  23267333.556    -4387458.59649  -3177905.90846  23267332.441    23267341.346
  21574714.884   -13284771.77149 -10335099.47847  21574713.756    21574721.061
                   5540215.84348   4344877.90144
  20720235.103   -17143493.69849 -12984051.74148  20720234.540    20720240.974
                  -1565346.73249  -1191177.36643
  22214384.425    -9551748.43049  -7421717.11547  22214383.503    22214390.205
  21611113.855   -12062067.00549  -9136813.19147  21611113.008    21611120.270
 04  1 16  0 30 30.0000000  0  7G30G 5G10G24G 6G21G17
  20914402.140   -11632453.79549  -9040664.34047  20914402.021    20914407.668
  23287339.966    -4282324.75149  -3095983.53146  23287338.940    23287347.690
  21586095.944   -13224963.79149 -10288495.86647  21586094.838    21586102.178
                   5622132.16758   4408708.92244
  20713104.963   -17180962.59849 -13013248.26948  20713104.386    20713110.862
  22202899.521    -9612100.54049  -7468744.68247  22202898.693    22202905.499
  21621300.298   -12008537.36249  -9095101.78947  21621299.406    21621306.690
 04  1 16  0 31  0.0000000  0  7G30G 5G10G24G 6G21G17
  20926429.508   -11569249.88449  -8991414.56247  20926429.354    20926434.999
  23307370.801    -4177062.65549  -3013961.22346  23307369.813    23307378.444
  21597573.460   -13164649.24349 -10241497.53047  21597572.332    21597579.656
                   5704004.09948   4472505.45044
  20706024.689   -17218169.23149 -13042240.43448  20706024.148    20706030.616
  22191456.490    -9672234.08849  -7515601.94547  22191455.585    22191462.386
  21631517.263   -11954847.39649  -9053265.45547  21631516.323    21631523.598
 04  1 16  0 31 30.0000000  0  6G30G 5G10G 6G21G17
  20938547.368   -11505570.42049  -8941794.21947  20938547.185    20938552.840
  23327426.384    -4071670.38149  -2931837.46546  23327425.429    23327434.028
  21609147.720   -13103826.25949 -10194102.99847  21609146.599    21609153.896
  20698995.606   -17255107.61049 -13071023.57248  20698995.034    20699001.452
  22180055.771    -9732144.84349  -7562285.59747  22180054.878    22180061.634
  21641765.335   -11900993.62249  -9011301.47447  21641764.388    21641771.620
 04  1 16  0 32  0.0000000  0  8G30G 5G10G29G 6G18G21G17
  20950754.326   -11441422.30949  -8891808.69847  20950754.155    20950759.861
  23347505.292    -3966155.48149  -2849618.15646  23347504.359    23347513.054
  21620817.387   -13042501.99549 -10146317.85947  21620816.210    21620823.508
                  -1351696.81849  -1032290.47043
  20692016.956   -17291780.91049 -13099600.15648  20692016.355    20692022.794
                  -1235879.10649   -943195.04843
  22168696.507    -9791837.40249  -7608799.23947  22168695.731    22168702.418
  21652043.350   -11846981.99749  -8969214.49347  21652042.453    21652049.596
 04  1 16  0 32 30.0000000  0  8G30G 5G10G29G 6G18G21G17
  20963051.298   -11376801.07649  -8841454.52248  20963051.142    20963056.946
  23367608.097    -3860513.96849  -2767300.18245  23367607.362    23367616.053
  21632583.173   -12980672.21549 -10098138.82547  21632581.955    21632589.339
                  -1416665.74849  -1082928.35043
  20685090.223   -17328180.83449 -13127963.72148  20685089.641    20685096.103
                  -1345965.03249  -1029000.66943
  22157380.165    -9851305.09249  -7655137.64547  22157379.415    22157386.004
  21662352.521   -11792807.11849  -8927000.29947  21662351.616    21662358.666
 04  1 16  0 33  0.0000000  0  8G30G 5G10G29G 6G18G21G17
  20975436.539   -11311715.74549  -8790738.70048  20975436.447    20975442.346
  23387733.426    -3754754.85449  -2684890.58045  23387732.630    23387741.429
  21644443.383   -12918346.03749 -10049572.97047  21644442.215    21644449.592
                  -1481429.15749   -956912.46543
  20678214.514   -17364312.62149 -13156118.35048  20678213.970    20678220.425
                  -1455980.57749  -1114831.08443
  22146105.566    -9910554.53649  -7701305.98447  22146104.671    22146111.200
  21672691.200   -11738477.04549  -8884665.16547  21672690.329    21672697.365
 04  1 16  0 33 30.0000000  0  8G30G 5G10G29G 6G18G21G17
  20987909.380   -11246170.52149  -8739664.52748  20987909.273    20987915.267
  23407880.083    -3648883.17449  -2602393.25645  23407879.292    23407888.234
  21656397.196   -12855527.84149 -10000623.73347  21656396.069    21656403.533
                  -1545986.35749  -1007217.40643
  20671389.779   -17400176.65949 -13184064.34048  20671389.235    20671395.711
                  -1565925.33649   -917494.51443
  22134871.813    -9969588.10949  -7747306.10347  22134870.908    22134877.394
  21683058.988   -11683994.41049  -8842211.15647  21683057.991    21683065.045
 04  1 16  0 34  0.0000000  0  7G30G 5G10G 6G18G21G17
  21000467.903   -11180175.25249  -8688239.67048  21000467.769    21000473.834
  23428046.152    -3542908.82449  -2519815.93345  23428045.521    23428054.544
  21668442.787   -12792227.47049  -9951298.76847  21668441.700    21668449.193
  20664614.867   -17435778.88549 -13211806.32248  20664614.365    20664620.846
                  -1675804.71649  -1003111.14443
  22123677.756   -10028413.16249  -7793143.75147  22123676.927    22123683.266
  21693453.832   -11629368.31549  -8799645.35947  21693452.935    21693460.001
 04  1 16  0 34 30.0000000  0  7G30G 5G10G 6G18G21G17
  21013118.006   -11113698.55649  -8636439.68148  21013117.851    21013124.002
  23448237.894    -3436800.96149  -2437134.58145  23448237.203    23448246.289
  21680586.128   -12728413.87949  -9901573.89547  21680585.023    21680592.501
  20657896.584   -17471084.03649 -13239316.82148  20657896.076    20657902.527
                  -1785582.54249  -1088630.53943
  22112529.930   -10086995.89549  -7838792.56247  22112529.045    22112535.241
  21703882.352   -11574566.13149  -8756942.35347  21703881.376    21703888.496
 04  1 16  0 35  0.0000000  0  8G30G 5G10G29G 6G18G21G17
  21025854.087   -11046770.25449  -8584287.78048  21025853.894    21025860.153
  23468449.515    -3330589.64749  -2354372.63645  23468448.651    23468457.603
  21692821.491   -12664117.03449  -9851472.45847  21692820.343    21692827.802
                  -1202756.32249   -924186.91843
  20651229.860   -17506118.00849 -13266616.01048  20651229.361    20651235.755
                  -1895284.08149  -1174090.41143
  22101422.972   -10145363.91849  -7884274.08147  22101422.034    22101428.059
  21714338.848   -11519616.30449  -8714124.28947  21714337.917    21714345.120
 04  1 16  0 35 30.0000000  0  8G30G 5G10G29G 6G18G21G17
  21038676.150   -10979389.79949  -8531783.54648  21038675.988    21038682.303
  23488680.962    -3224274.68949  -2271529.93745  23488679.924    23488688.660
  21705148.909   -12599336.32749  -9800993.97447  21705147.759    21705155.167
                  -1266439.94749   -973810.84643
  20644615.546   -17540876.35649 -13293700.41548  20644615.031    20644621.419
                  -2004904.13949   -976008.75843
  22090357.341   -10203514.21149  -7929585.93147  22090356.404    22090362.311
  21724823.827   -11464517.19049  -8671189.89647  21724822.918    21724830.175
 04  1 16  0 36  0.0000000  0  8G30G 5G10G29G 6G18G21G17
  21051584.981   -10911553.79549  -8478924.34548  21051584.801    21051591.145
  23508932.649    -3117852.89749  -2188603.97345  23508931.346    23508940.034
  21717568.899   -12534068.67649  -9750136.06147  21717567.801    21717575.182
                  -1329895.27049  -1023256.40243
  20638055.089   -17575351.77849 -13320564.36348  20638054.562    20638060.935
                  -2114434.63849  -1061403.55043
  22079334.134   -10261441.30549  -7974723.85647  22079333.226    22079339.090
  21735338.157   -11409264.07249  -8628135.51447  21735337.229    21735344.536
 04  1 16  0 36 30.0000000  0  8G30G 5G10G29G 6G18G21G17
  21064579.534   -10843267.02249  -8425713.89748  21064579.365    21064585.729
  23529203.435    -3011329.61649  -2105598.96045  23529202.310    23529210.753
  21730080.711   -12468319.08649  -9698902.60247  21730079.549    21730086.891
                  -1393121.79849  -1072523.67144                  23983010.070
  20631548.221   -17609545.25849 -13347208.61448  20631547.737    20631554.154
                  -2223875.36249  -1146728.42243
  22068352.927   -10319147.78049  -8019689.87847  22068352.038    22068357.833
  21745880.992   -11353860.82449  -8584964.14047  21745880.041    21745887.422
 04  1 16  0 37  0.0000000  0  8G30G 5G10G29G 6G18G21G17
  21077659.874   -10774529.37249  -8372152.11448  21077659.720    21077666.115
  23549493.694    -2904704.77949  -2022514.79145  23549492.516    23549500.722
  21742684.235   -12402087.14849  -9647293.28347  21742683.064    21742690.402
  23971016.851    -1456113.83949  -1121608.29244  23971018.269    23971023.376
  20625095.899   -17643452.56149 -13373629.86948  20625095.394    20625101.817
                  -2333221.37449   -948883.47243
  22057414.287   -10376630.91949  -8064481.86047  22057413.351    22057419.118
  21756452.729   -11298305.74549  -8541674.45747  21756451.782    21756459.244
 04  1 16  0 37 30.0000000  0  8G30G 5G10G29G 6G18G21G17
  21090825.038   -10705345.87649  -8318242.92648  21090824.896    21090831.310
  23569802.324    -2797983.28949  -1939355.30145  23569801.205    23569809.051
  21755378.456   -12335378.67449  -9595312.64947  21755377.276    21755384.619
  23959074.990    -1518871.37049  -1170510.21544  23959073.758    23959082.016
  20618697.685   -17677075.04149 -13399829.17748  20618697.173    20618703.656
                  -2442473.18449  -1034072.25343
  22046517.401   -10433893.67749  -8109102.13647  22046516.554    22046522.302
  21767052.719   -11242602.58149  -8498269.38547  21767051.764    21767059.214
 04  1 16  0 38  0.0000000  0  8G30G 5G10G29G 6G18G21G17
  21104074.155   -10635720.92349  -8263989.73748  21104074.034    21104080.507
  23590128.386    -2691170.06149  -1856124.35145  23590127.275    23590135.034
  21768162.499   -12268197.82549  -9542963.92047  21768161.385    21768168.733
  23947178.286    -1581393.37149  -1219228.57744  23947180.632    23947186.163
  20612353.637   -17710412.95549 -13425806.74148  20612353.125    20612359.633
                  -2551630.61549  -1119187.45843
  22035662.249   -10490937.79849  -8153552.02847  22035661.339    22035667.093
  21777680.340   -11186754.59149  -8454751.45847  21777679.336    21777686.756
 04  1 16  0 38 30.0000000  0  8G30G 5G10G29G 6G18G21G17
  21117406.754   -10565657.13949  -8209394.61148  21117406.694    21117413.212
  23610471.431    -2584267.91749  -1772824.10445  23610470.251    23610477.776
  21781036.047   -12200547.26049  -9490249.18847  21781034.923    21781042.210
  23935326.648    -1643677.06449  -1267761.22744  23935327.927    23935334.663
  20606063.999   -17743464.97849 -13451561.54048  20606063.499    20606070.003
                  -2660691.35349   -921429.64143
  22024848.591   -10547763.53949  -8197831.76647  22024847.715    22024853.461
  21788335.131   -11130763.02649  -8411121.67147  21788334.180    21788341.592
 04  1 16  0 39  0.0000000  0  8G30G 5G10G29G 6G18G21G17
  21130822.642   -10495156.14049  -8154458.79248  21130822.576    21130829.138
  23630831.193    -2477278.66849  -1689455.99645  23630829.768    23630837.139
  21793998.616   -12132428.69049  -9437169.77547  21793997.459    21794004.775
  23923521.200    -1705718.71349  -1316105.29544  23923521.921    23923528.200
  20599829.219   -17776228.66049 -13477091.65148  20599828.705    20599835.238
                  -2769652.41249  -1006469.62243
  22014076.572   -10604370.44249  -8241940.98347  22014075.753    22014081.481
  21799017.202   -11074628.08849  -8367380.15247  21799016.275    21799023.731
 04  1 16  0 39 30.0000000  0  8G30G 5G10G29G 6G18G21G17
  21144322.000   -10424216.34649  -8099181.06647  21144321.951    21144328.543
  23651207.347    -2370200.99049  -1606018.96045  23651206.050    23651213.562
  21807050.393   -12063841.09149  -9383724.88447  21807049.244    21807056.619
  23911762.232    -1767511.59949  -1364255.51944  23911762.464    23911769.383
  20593650.336   -17808698.46849 -13502392.77948  20593649.843    20593656.444
                  -2878507.09649  -1091438.79943
  22003347.035   -10660754.43849  -8285876.52247  22003346.230    22003351.920
  21809727.097   -11018347.03549  -8323524.79647  21809726.141    21809733.654
 04  1 16  0 40  0.0000000  0  9G30G 5G10G29G26G 6G18G21G17
  21157903.470   -10352845.22649  -8043567.23747  21157903.408    21157910.084
  23671598.899    -2263042.31249  -1522518.82945  23671597.674    23671605.128
  21820189.933   -11994791.80549  -9329920.24747  21820188.857    21820196.242
  23900050.332    -1829057.47549  -1412213.27744  23900050.190    23900057.570
                  -1278238.77349   -973901.30743
  20587526.751   -17840877.78349 -13527467.54148  20587526.252    20587532.886
                  -2987258.26449   -895484.29743
  21992659.048   -10716920.48549  -8329642.22147  21992658.170    21992663.882
  21820463.560   -10961925.68549  -8279560.11447  21820462.618    21820470.238
 04  1 16  0 40 30.0000000  0  9G30G 5G10G29G26G 6G18G21G17
  21171567.032   -10281042.42049  -7987617.01547  21171566.959    21171573.685
  23692006.104    -2155802.38949  -1438955.39545  23692004.706    23692012.134
  21833417.532   -11925280.68549  -9275755.72847  21833416.410    21833423.815
  23888386.935    -1890350.73049  -1459974.16845  23888386.464    23888394.036
                  -1366629.07249  -1042783.31843
  20581459.315   -17872762.15749 -13552312.47648  20581458.852    20581465.409
                  -3095900.45349   -980130.67943
  21982012.934   -10772865.82149  -8373235.93247  21982012.090    21982017.841
  21831227.042   -10905362.49549  -8235484.90047  21831226.147    21831233.815
 04  1 16  0 41  0.0000000  0  9G30G 5G10G29G26G 6G18G21G17
  21185312.113   -10208811.20049  -7931332.97947  21185312.064    21185318.878
  23712427.941    -2048484.89849  -1355331.47245  23712426.638    23712433.901
  21846732.284   -11855311.15249  -9221234.01447  21846731.093    21846738.569
  23876771.531    -1951389.44849  -1507536.77945  23876771.086    23876778.980
                  -1454924.34649   -880148.69843
  20575448.240   -17904350.89349 -13576927.05448  20575447.714    20575454.253
                  -3204432.57849  -1064691.37943
  21971408.660   -10828591.44649  -8416658.46447  21971407.861    21971413.579
  21842017.283   -10848658.97649  -8191300.35147  21842016.387    21842024.130
 04  1 16  0 41 30.0000000  0  9G30G 5G10G29G26G 6G18G21G17
  21199137.890   -10136155.72549  -7874718.34547  21199137.882    21199144.795
  23732863.454    -1941094.10649  -1271650.47045  23732862.373    23732869.837
  21860133.454   -11784887.13749  -9166358.15747  21860132.325    21860139.828
  23865205.116    -2012171.90549  -1554899.67245  23865204.503    23865212.606
                  -1543122.36149   -948875.42943
  20569493.306   -17935644.00549 -13601311.26448  20569492.787    20569499.345
                  -3312853.56149   -869566.46143
  21960845.949   -10884098.88549  -8459910.95947  21960845.113    21960850.796
  21852833.634   -10791818.09949  -8147008.76447  21852832.779    21852840.535
 04  1 16  0 42  0.0000000  0  8G30G 5G10G29G 6G18G21G17
  21213044.041   -10063078.01549  -7817774.70147  21213044.035    21213051.063
  23753312.755    -1833632.29749  -1187914.15045  23753311.704    23753319.106
  21873620.670   -11714011.09149  -9111130.07547  21873619.518    21873627.052
  23853687.786    -2072695.08249  -1602060.50345  23853687.245    23853695.151
  20563595.001   -17966639.49649 -13625463.57048  20563594.490    20563601.070
                  -3421160.59249   -953957.18243
  21950324.754   -10939387.94949  -8502993.28647  21950323.917    21950329.584
  21863676.204   -10734840.27749  -8102610.47747  21863675.283    21863683.061
 04  1 16  0 42 30.0000000  0  9G30G 5G10G29G26G 6G18G21G17
  21227031.199    -9989575.15849  -7760499.77847  21227031.152    21227038.233
  23773776.309    -1726096.15649  -1104119.85344  23773775.266    23773782.552
  21887194.336   -11642680.17249  -9055547.55147  21887193.242    21887200.874
  23842221.637    -2132950.53549  -1649012.68245  23842220.975    23842228.288
                  -1102063.52849   -835090.86143
  20557754.694   -17997330.36549 -13649378.51348  20557754.173    20557760.745
                  -3529346.18649  -1038253.20743
  21939846.244   -10994453.12649  -8545901.15947  21939845.321    21939851.025
  21874545.594   -10677721.36449  -8058102.24447  21874544.618    21874552.425
 04  1 16  0 43  0.0000000  0  9G30G 5G10G29G26G 6G18G21G17
  21241097.939    -9915654.46149  -7702899.26747  21241097.804    21241104.885
  23794252.912    -1618493.24849  -1020273.56744  23794251.361    23794258.476
  21900853.229   -11570901.52349  -8999616.14647  21900852.176    21900859.919
  23830805.637    -2192940.36549  -1695757.91345  23830805.057    23830812.282
                  -1189942.26449   -903681.36843
  20551971.757   -18027719.81449 -13673058.58248  20551971.206    20551977.788
                  -3637412.79649   -841974.01743
  21929409.175   -11049299.46249  -8588638.52047  21929408.396    21929414.113
  21885440.670   -10620466.84649  -8013488.34647  21885439.785    21885447.651
 04  1 16  0 43 30.0000000  0  8G30G 5G10G29G 6G18G21G17
  21255243.496    -9841319.00849  -7644975.56347  21255243.391    21255250.459
  23814741.306    -1510826.97649   -936377.87444  23814740.060    23814746.455
  21914596.714   -11498678.68149  -8943338.61547  21914595.681    21914603.467
  23819440.723    -2252662.06449  -1742294.25345  23819440.234    23819447.702
  20546246.409   -18057806.82749 -13696502.98048  20546245.870    20546252.411
                  -3745358.35749   -926087.17843
  21919013.938   -11103927.54549  -8631205.80447  21919013.063    21919018.711
  21896361.231   -10563078.74549  -7968770.34747  21896360.285    21896368.189
 04  1 16  0 44  0.0000000  0  8G30G 5G10G29G 6G18G21G17
  21269468.140    -9766568.55049  -7586728.48347  21269467.954    21269474.994
  23835241.669    -1403096.70349   -852432.33644  23835240.339    23835246.289
  21928424.774   -11426011.26249  -8886714.66647  21928423.758    21928431.678
  23808128.179    -2312109.85949  -1788617.14945  23808127.836    23808135.180
  20540579.467   -18087586.88749 -13719708.20048  20540578.913    20540585.412
                  -3853178.02049  -1010102.55044                  23842010.890
  21908660.586   -11158334.84249  -8673601.05947  21908659.641    21908665.306
  21907307.396   -10505554.85249  -7923946.54647  21907306.598    21907314.602
 04  1 16  0 44 30.0000000  0  9G30G 5G10G29G26G 6G18G21G17
  21283770.925    -9691406.88249  -7528160.97547  21283770.752    21283777.746
  23855753.418    -1295306.37349   -768439.95244  23855752.333    23855757.399
  21942336.810   -11352903.30349  -8829747.42647  21942335.717    21942343.659
  23796868.078    -2371282.32149  -1834725.47445  23796867.622    23796874.632
                  -1025973.33749   -778878.21243
  20534971.027   -18117059.65249 -13742673.96848  20534970.466    20534976.900
  23821507.967    -3960870.36749  -1094018.55144  23821506.753    23821517.351
  21898348.909   -11212522.12649  -8715824.86847  21898348.039    21898353.786
  21918279.165   -10447897.46349  -7879018.71547  21918278.372    21918286.393
 04  1 16  0 45  0.0000000  0  9G30G 5G10G29G26G 6G18G21G17
  21298151.048    -9615838.88349  -7469276.84347  21298150.917    21298157.847
  23876275.668    -1187460.62949   -684404.37444  23876275.186    23876279.343
  21956331.604   -11279359.64149  -8772440.68647  21956330.539    21956338.583
  23785660.534    -2430178.51249  -1880618.48745  23785660.041    23785666.725
                  -1113381.41149   -846989.27843
  20529420.876   -18146225.77249 -13765400.78848  20529420.338    20529426.755
  23801038.833    -4068435.70049  -1177835.61344  23801037.373    23801048.663
  21888078.647   -11266491.91849  -8757879.20947  21888077.849    21888083.659
  21929275.825   -10390109.79349  -7833989.35547  21929274.989    21929283.013
 04  1 16  0 45 30.0000000  0  8G30G 5G10G29G 6G18G21G17
  21312608.513    -9539864.14149  -7410075.77647  21312608.428    21312615.336
  23896808.322    -1079559.27849   -600325.49544  23896807.884    23896812.661
  21970409.358   -11205380.25149  -8714794.41147  21970408.293    21970416.401
  23774506.205    -2488793.05149  -1926292.04045  23774505.783    23774512.824
  20523929.926   -18175080.95549 -13787885.32848  20523929.369    20523935.740
  23780594.968    -4175868.36749  -1261549.32544  23780593.539    23780604.588
  21877850.289   -11320241.83849  -8799762.21447  21877849.490    21877855.395
  21940297.472   -10332190.17949  -7788857.19147  21940296.719    21940304.727
 04  1 16  0 46  0.0000000  0  8G30G 5G10G29G 6G18G21G17
  21327142.496    -9463487.10449  -7350561.23047  21327142.506    21327149.385
  23917350.742     -971607.07249   -516206.98144  23917350.325    23917355.134
  21984569.222   -11130969.48549  -8656811.99647  21984568.090    21984576.262
  23763405.514    -2547124.59149  -1971745.10245  23763405.059    23763412.755
  20518498.115   -18203625.31749 -13810127.66048  20518497.550    20518503.910
  23760176.572    -4283167.69949  -1345159.06744  23760175.202    23760185.953
  21867663.491   -11373773.38049  -8841475.03847  21867662.662    21867668.602
  21951343.809   -10274141.30449  -7743624.28647  21951343.062    21951351.059
 04  1 16  0 46 30.0000000  0  8G30G 5G10G29G 6G18G21G17
  21341753.001    -9386708.43949  -7290733.71447  21341753.022    21341759.862
  23937902.923     -863604.59949   -432049.33744  23937902.354    23937907.850
  21998810.967   -11056128.07449  -8598494.00847  21998809.931    21998818.168
  23752359.462    -2605168.63449  -2016974.14645  23752359.274    23752367.517
  20513126.079   -18231855.27349 -13832124.99948  20513125.559    20513131.899
  23739784.234    -4390329.64849  -1428661.86644  23739782.810    23739793.019
  21857518.541   -11427084.77549  -8883016.32747  21857517.755    21857523.756
  21962414.910   -10215962.04349  -7698289.78347  21962414.217    21962422.203
 04  1 16  0 47  0.0000000  0  9G30G 5G10G29G26G 6G18G21G17
  21356438.838    -9309534.17049  -7230597.94947  21356438.845    21356445.623
  23958463.630     -755557.49049   -347856.87644  23958462.730    23958468.614
  22013133.628   -10980862.07249  -8539845.17147  22013132.586    22013140.858
  23741368.776    -2662925.47249  -2061979.36245  23741368.761    23741377.245
                  -1032680.18549   -775475.04643
  20507813.590   -18259772.69149 -13853878.80248  20507813.017    20507819.353
  23719417.864    -4497355.12549  -1512058.23844  23719416.501    23719426.330
  21847414.852   -11480179.46349  -8924388.75247  21847414.070    21847420.164
  21973510.038   -10157656.88649  -7652857.17947  21973509.336    21973517.295
 04  1 16  0 47 30.0000000  0  8G30G 5G10G29G 6G18G21G17
  21371200.060    -9231964.04649  -7170153.71747  21371200.016    21371206.735
  23979032.942     -647465.64549   -263629.60244  23979032.320    23979038.491
  22027537.159   -10905171.45049  -8480865.45847  22027536.034    22027544.286
  23730434.049    -2720389.64549  -2106756.53045  23730433.952    23730442.559
  20502561.248   -18287373.45649 -13875385.86348  20502560.703    20502567.076
  23699078.510    -4604239.40749  -1595344.59444  23699077.439    23699086.497
  21837352.978   -11533054.98549  -8965590.39847  21837352.186    21837358.264
  21984629.512   -10099224.14349  -7607325.15947  21984628.768    21984636.664
 04  1 16  0 48  0.0000000  0  8G30G 5G10G29G 6G18G21G17
  21386035.504    -9154003.80149  -7109405.49947  21386035.406    21386042.085
  23999609.753     -539334.76549   -179371.89044  23999608.966    23999615.905
  22042020.322   -10829061.91449  -8421559.32047  22042019.257    22042027.453
  23719554.630    -2777561.21049  -2151305.68745  23719554.515    23719563.404
  20497369.005   -18314658.76349 -13896647.11548  20497368.457    20497374.833
  23678766.009    -4710983.41949  -1678521.70645  23678764.712    23678773.372
  21827332.269   -11585714.31149  -9006623.58347  21827331.423    21827337.438
  21995772.525   -10040667.58449  -7561696.65447  21995771.754    21995779.634
 04  1 16  0 48 30.0000000  0  9G30G 5G10G29G26G 6G18G21G17
  21400945.513    -9075651.04649  -7048351.43347  21400945.434    21400952.149
  24020194.397     -431162.20148    -95081.73044  24020193.767    24020200.845
  22056583.746   -10752531.12049  -8361924.92947  22056582.655    22056590.785
  23708732.348    -2834432.64849  -2195620.96345  23708732.077    23708741.356
                  -1292466.34449   -750484.33743
  20492237.964   -18341622.13049 -13917657.50248  20492237.419    20492243.876
  23658481.648    -4817579.41949  -1761583.42945  23658480.295    23658488.628
  21817353.617   -11638152.52749  -9047484.46347  21817352.761    21817358.756
  22006939.834    -9981983.53149  -7515968.81547  22006938.983    22006946.831
 04  1 16  0 49  0.0000000  0  9G30G 5G10G29G26G 6G18G21G17
  21415928.552    -8996914.71149  -6986998.47347  21415928.451    21415935.202
  24040785.521     -322956.53349    -10765.77744  24040785.280    24040792.370
  22071225.542   -10675588.15749  -8301969.35047  22071224.499    22071232.435
  23697966.620    -2891007.05049  -2239704.79445  23697966.179    23697975.401
                  -1378766.84249   -817729.22143
  20487167.318   -18368268.12649 -13938420.59248  20487166.780    20487173.291
  23638224.685    -4924030.87349  -1844532.53245  23638223.608    23638231.351
  21807415.875   -11690375.70049  -9088177.79447  21807414.991    21807420.902
  22018130.092    -9923178.68149  -7470146.83947  22018129.256    22018137.025
 04  1 16  0 49 30.0000000  0  9G30G 5G10G29G26G 6G18G21G17
  21430984.759    -8917793.79649  -6925345.83947  21430984.618    21430991.420
  24061383.201     -214717.39449     73576.28344  24061382.880    24061390.556
  22085945.967   -10598232.16349  -8241691.93547  22085944.869    22085952.733
  23687258.325    -2947278.13049  -2283552.26945  23687257.715    23687267.329
                  -1464912.55049   -884852.55843
  20482158.029   -18394591.73149 -13958932.46248  20482157.517    20482164.052
  23617996.466    -5030332.40849  -1927364.79145  23617995.312    23618002.846
  21797519.663   -11742380.57249  -9128701.00947  21797518.742    21797524.685
  22029343.844    -9864250.35149  -7424228.64747  22029343.003    22029350.708
 04  1 16  0 50  0.0000000  0  8G30G 5G10G29G 6G18G21G17
  21446111.302    -8838303.12849  -6863405.09147  21446111.156    21446118.000
  24081984.814     -106459.14049    157933.22244  24081984.508    24081991.847
  22100742.115   -10520477.94449  -8181104.22647  22100741.045    22100748.846
  23676605.817    -3003255.13749  -2327170.60745  23676605.218    23676615.154
  20477208.170   -18420603.42949 -13979201.29248  20477207.664    20477214.200
  23597794.854    -5136493.44949  -2010087.56245  23597793.429    23597801.112
  21787662.544   -11794179.55549  -9169063.79147  21787661.696    21787667.594
  22040578.565    -9805211.92549  -7378224.67247  22040577.696    22040585.375
 04  1 16  0 50 30.0000000  0  9G30G 5G10G29G26G 6G18G21G17
  21461313.532    -8758415.11449  -6801154.71547  21461313.382    21461320.221
  24102594.890        1845.85549    242326.62144  24102594.442    24102601.974
  22115619.406   -10442298.10549  -8120184.84447  22115618.316    22115625.994
  23666015.570    -3058905.12549  -2370534.13545  23666015.308    23666025.127
                   -926331.35849   -699084.42243
  20472323.668   -18446271.45349 -13999202.31948  20472323.156    20472329.702
  23577625.662    -5242481.75649  -2092675.72745  23577624.421    23577632.174
  21777850.392   -11845742.28049  -9209242.48047  21777849.569    21777855.428
  22051839.839    -9746033.90149  -7332111.90847  22051838.930    22051846.683
 04  1 16  0 51  0.0000000  0  9G30G 5G10G29G26G 6G18G21G17
  21476586.848    -8678153.36349  -6738613.11947  21476586.698    21476593.527
  24123209.348      110174.62749    326738.53744  24123208.271    24123216.760
  22130573.169   -10363716.14049  -8058952.13447  22130572.063    22130579.666
  23655484.946    -3114246.35149  -2413657.02945  23655484.588    23655493.932
                  -1011988.44449   -765829.77843
  20467500.916   -18471615.12649 -14018950.61848  20467500.434    20467506.940
  23557486.011    -5348315.82549  -2175143.70745  23557484.703    23557492.730
  21768079.194   -11897090.09249  -9249253.70547  21768078.353    21768084.120
  22063123.366    -9686738.08849  -7285907.37447  22063122.478    22063130.335
 04  1 16  0 51 30.0000000  0  9G30G 5G10G29G26G 6G18G21G17
  21491931.550    -8597516.28149  -6675779.05847  21491931.455    21491938.260
  24143827.487      218528.50449    411170.01644  24143826.968    24143836.194
  22145603.688   -10284730.47849  -7997404.85847  22145602.589    22145610.140
  23645014.516    -3169271.60849  -2456533.73245  23645013.957    23645022.741
                  -1097474.95349   -832442.56443
  20462740.946   -18496628.72049 -14038441.70948  20462740.470    20462746.976
  23537376.979    -5453988.56849  -2257485.99645  23537375.713    23537383.871
  21758349.691   -11948218.80149  -9289094.21147  21758348.839    21758354.576
  22074429.968    -9627321.11749  -7239608.42247  22074429.081    22074437.037
 04  1 16  0 52  0.0000000  0  8G30G 5G10G29G 6G18G21G17
  21507346.047    -8516512.89849  -6612659.56147  21507345.944    21507352.735
  24164449.103      326898.77748    495614.29844  24164448.633    24164458.336
  22160709.337   -10205350.19049  -7935550.06947  22160708.231    22160715.740
  23634602.837    -3223984.22349  -2499166.82345  23634602.376    23634611.052
  20458042.906   -18521316.83349 -14057679.17348  20458042.462    20458049.054
  23517297.542    -5559504.23149  -2339705.85245  23517296.555    23517304.822
  21748660.533   -11999134.99449  -9328769.12447  21748659.736    21748665.486
  22085758.321    -9567790.10949  -7193220.60747  22085757.468    22085765.390
 04  1 16  0 52 30.0000000  0  8G30G 5G10G29G 6G18G21G17
  21522830.923    -8435139.45549  -6549251.69947  21522830.814    21522837.620
  24185074.263      435289.53948    580074.49544  24185073.744    24185084.739
  22175890.794   -10125571.80649  -7873385.08147  22175889.641    22175897.081
  23624252.170    -3278375.38349  -2541549.43745  23624251.742    23624260.573
  20453408.365   -18545671.55549 -14076656.85648  20453407.940    20453414.497
  23497249.724    -5664854.39449  -2421796.76245  23497248.844    23497257.302
  21739013.216   -12049831.76749  -9368273.05147  21739012.385    21739018.110
  22097109.529    -9508139.72849  -7146739.77747  22097108.620    22097116.472
 04  1 16  0 53  0.0000000  0  9G30G 5G10G29G26G 6G18G21G17
  21538385.164    -8353401.41249  -6485559.74047  21538385.086    21538391.911
  24205702.404      543695.17148    664546.36744  24205701.374    24205713.899
  22191146.900   -10045400.54949  -7810913.95747  22191145.759    22191153.170
  23613963.069    -3332444.87449  -2583681.39545  23613962.683    23613971.264
                   -922083.79349   -709350.09943
  20448837.073   -18569694.03049 -14095375.64848  20448836.645    20448843.134
  23477233.225    -5770039.28949  -2503758.88645  23477232.521    23477241.153
  21729407.098   -12100312.00649  -9407608.24347  21729406.245    21729411.941
  22108482.731    -9448373.49549  -7100168.67447  22108481.767    22108489.611
 04  1 16  0 53 30.0000000  0  9G30G 5G10G29G26G 6G18G21G17
  21554008.884    -8271298.32549  -6421583.32747  21554008.830    21554015.660
  24226333.999      652116.67848    749030.57544  24226332.582    24226345.758
  22206477.825    -9964836.31049  -7748136.61147  22206476.706    22206484.035
  23603736.598    -3386186.73449  -2625558.06345  23603736.073    23603744.269
                  -1006861.44449   -775410.60043
  20444329.956   -18593379.42449 -14113831.77448  20444329.495    20444335.989
  23457249.697    -5875053.40349  -2585587.92445  23457248.865    23457257.434
  21719842.673   -12150572.73149  -9446772.39347  21719841.807    21719847.531
  22119878.281    -9388488.91349  -7053505.35447  22119877.378    22119885.290
 04  1 16  0 54  0.0000000  0  8G30G 5G10G29G 6G18G21G17
  21569700.487    -8188838.72349  -6357329.11047  21569700.387    21569707.220
  24246967.409      760545.53448    833520.48644  24246965.545    24246979.344
  22221881.942    -9883887.36449  -7685059.50347  22221880.832    22221888.183
  23593571.559    -3439604.18349  -2667181.93745  23593571.061    23593579.228
  20439886.175   -18616731.97849 -14132028.54648  20439885.692    20439892.141
  23437297.889    -5979899.94149  -2667286.41045  23437296.959    23437305.588
  21710318.877   -12200620.03849  -9485770.24247  21710318.040    21710323.760
  22131295.148    -9328492.99749  -7006755.28047  22131294.204    22131302.129
 04  1 16  0 54 30.0000000  0  8G30G 5G10G29G 6G18G21G17
  21585460.510    -8106019.07549  -6292794.33347  21585460.437    21585467.270
  24267602.530      868985.25848    918018.89144  24267600.699    24267615.070
  22237359.901    -9802550.36649  -7621680.01747  22237358.757    22237366.102
  23583470.157    -3492687.98849  -2708545.82245  23583469.604    23583477.572
  20435507.162   -18639743.99649 -14149959.95848  20435506.683    20435513.050
  23417379.426    -6084570.49149  -2748847.75445  23417378.577    23417387.256
  21700836.826   -12250448.02949  -9524597.19947  21700835.964    21700841.742
  22142734.177    -9268379.96349  -6959913.94347  22142733.365    22142741.296
 04  1 16  0 55  0.0000000  0  8G30G 5G10G29G 6G18G21G17
  21601287.522    -8022847.28149  -6227985.16647  21601287.480    21601294.356
  24288239.527      977428.66948   1002520.05944  24288237.249    24288251.521
  22252910.231    -9720833.18049  -7558004.28647  22252909.081    22252916.355
  23573431.923    -3545440.87649  -2749651.88345  23573431.123    23573438.852
  20431192.290   -18662419.05549 -14167628.80948  20431191.790    20431198.120
  23397494.069    -6189067.91249  -2830274.18545  23397493.104    23397501.749
  21691395.564   -12300061.40749  -9563256.93347  21691394.700    21691400.527
  22154194.416    -9208156.00549  -6912986.18147  22154193.641    22154201.520
 04  1 16  0 55 30.0000000  0  9G30G 5G10G29G26G 6G18G21G17
  21617181.551    -7939323.17349  -6162901.46147  21617181.557    21617188.488
  24308876.033     1085876.31648   1087024.60944  24308875.897
  22268532.981    -9638735.56549  -7494032.11047  22268531.756    22268539.017
  23563457.661    -3597856.77949  -2790495.32345  23563456.689    23563464.417
                   -837839.79549   -632068.24343
  20426942.413   -18684752.68149 -14185031.60648  20426941.912    20426948.165
  23377642.308    -6293387.00849  -2911561.66745  23377641.486    23377650.401
  21681995.513   -12349457.75349  -9601747.54947  21681994.738    21682000.602
  22165676.275    -9147819.05349  -6865970.36847  22165675.472    22165683.254
 04  1 16  0 56  0.0000000  0  8G30G 5G10G29G 6G18G21G17
  21633141.534    -7855453.02449  -6097548.11147  21633141.498    21633148.479
  24329514.310     1194321.83058   1171527.50844  24329513.264    24329525.775
  22284226.732    -9556264.00749  -7429768.55347  22284225.572    22284232.885
  23553546.944    -3649937.06049  -2831077.24045  23553546.149    23553553.618
  20422757.111   -18706746.94849 -14202169.96148  20422756.590    20422762.765
  23357824.430    -6397528.77749  -2992710.96945  23357823.497    23357832.746
  21672636.355   -12398640.61849  -9640071.80447  21672635.537    21672641.386
  22177178.907    -9087373.38849  -6818869.83947  22177178.009    22177185.711
 04  1 16  0 56 30.0000000  0  8G30G 5G10G29G 6G18G21G17
  21649167.394    -7771236.27749  -6031924.69547  21649167.383    21649174.418
  24350152.324     1302766.28048   1256029.54344  24350152.047    24350162.131
  22299991.745    -9473418.01449  -7365213.23847  22299990.628    22299997.933
  23543701.527    -3701675.25549  -2871392.57745  23543700.636    23543708.014
  20418637.237   -18728396.84049 -14219039.98148  20418636.732    20418642.897
  23338041.636    -6501487.85649  -3073717.92445  23338040.502    23338049.927
  21663318.425   -12447606.49149  -9678226.99447  21663317.578    21663323.415
  22188702.628    -9026816.29649  -6771682.48147  22188701.731    22188709.352
 04  1 16  0 57  0.0000000  0  9G30G 5G10G29G26G 6G18G21G17
  21665258.577    -7686676.77649  -5966034.19747  21665258.554    21665265.578
  24370790.438     1411206.12548   1340527.91844  24370788.049    24370797.276
  22315827.444    -9390201.37449  -7300369.09447  22315826.245    22315833.500
  23533921.206    -3753069.95049  -2911440.27045  23533920.407    23533928.023
                  -1088667.63849   -827518.03845                  23477621.982
  20414583.027   -18749701.90049 -14235641.29448  20414582.529    20414588.651
  23318293.950    -6605263.30249  -3154581.76145  23318292.442    23318301.907
  21654041.418   -12496357.20949  -9716214.51547  21654040.590    21654046.388
  22200247.017    -8966150.12549  -6724410.13047  22200246.169    22200253.782
 04  1 16  0 57 30.0000000  0  9G30G 5G10G29G26G 6G18G21G17
  21681414.458    -7601777.24349  -5899878.74247  21681414.409    21681421.439
  24391426.418     1519638.63548   1425020.68444  24391422.920    24391431.665
  22331733.086    -9306616.61149  -7235238.11047  22331731.884    22331739.127
  23524206.820    -3804118.40149  -2951218.17045  23524205.982    23524213.651
  23461783.869    -1171859.60249   -892342.77845  23461783.066    23461792.088
  20410594.729   -18770660.57049 -14251972.69948  20410594.220    20410600.314
  23298581.272    -6708852.70349  -3235300.66845  23298579.819    23298589.252
  21644805.428   -12544892.74849  -9754034.36947  21644804.573    21644810.356
  22211812.128    -8905375.31549  -6677053.13447  22211811.213    22211818.896
 04  1 16  0 58  0.0000000  0  9G30G 5G10G29G26G 6G18G21G17
  21697634.795    -7516538.77749  -5833459.17547  21697634.780    21697641.790
  24412059.859     1628063.41848   1509507.42944  24412056.242    24412064.235
  22347708.567    -9222665.00349  -7169821.26847  22347707.354    22347714.603
  23514559.049    -3854816.24949  -2990722.87745  23514558.331    23514566.072
  23445994.377    -1254835.52149   -956999.17145  23445993.617    23446002.165
  20406672.948   -18791269.61649 -14268031.66548  20406672.455    20406678.506
  23278904.748    -6812251.63949  -3315871.15245  23278903.481    23278912.957
  21635610.772   -12593211.00149  -9791684.90247  21635609.889    21635615.644
  22223397.929    -8844491.11849  -6629610.89647  22223397.053    22223404.894
 04  1 16  0 58 30.0000000  0  9G30G 5G10G29G26G 6G18G21G17
  21713918.604    -7430966.72549  -5766779.67747  21713918.607    21713925.590
  24432689.685     1736475.19548   1593984.03644  24432686.644    24432694.048
  22363752.896    -9138351.85149  -7104122.70947  22363751.687    22363758.886
  23504977.595    -3905163.45549  -3029954.35845  23504977.174    23504985.321
  23430245.620    -1337594.19549  -1021486.30545  23430243.261    23430253.602
  20402817.536   -18811530.09049 -14283819.02148  20402817.014    20402823.039
  23259264.711    -6915460.46649  -3396293.50145  23259263.308    23259272.776
  21626456.941   -12641314.65849  -9829168.23047  21626456.066    21626461.748
  22235003.829    -8783500.84449  -6582086.00547  22235003.008    22235010.973
 04  1 16  0 59  0.0000000  0  9G30G 5G10G29G26G 6G18G21G17
  21730266.024    -7345060.73549  -5699839.96647  21730266.040    21730272.955
  24453317.110     1844874.75049   1678451.13144  24453313.446    24453322.128
  22379866.041    -9053676.92149  -7038142.23647  22379864.812    22379871.996
  23495464.444    -3955154.14049  -3068908.03945  23495464.139    23495472.426
  23414538.591    -1420128.91549  -1085798.95445  23414536.425    23414547.467
  20399029.302   -18831437.46449 -14299331.23548  20399028.776    20399034.739
  23239661.971    -7018473.73049  -3476563.44245  23239660.339    23239669.729
  21617344.438   -12689201.10249  -9866482.29447  21617343.574    21617349.235
  22246630.503    -8722402.09849  -6534476.58947  22246629.619    22246637.730
 04  1 16  0 59 30.0000000  0  9G30G 5G10G29G26G 6G18G21G17
  21746676.379    -7258824.36849  -5632642.81447  21746676.359    21746683.188
  24473941.129     1953259.02749   1762906.32244  24473937.188    24473947.302
  22396047.396    -8968643.75749  -6971882.62247  22396046.070    22396053.176
  23486019.363    -4004786.42949  -3107582.42345  23486019.077    23486027.377
  23398875.191    -1502436.97549  -1149934.95245  23398873.547    23398884.607
  20395308.447   -18850990.78949 -14314567.56648  20395307.912    20395313.834
  23220096.189    -7121289.75149  -3556679.68745  23220094.953    23220104.256
  21608273.064   -12736871.35049  -9903627.90547  21608272.224    21608277.894
  22258277.540    -8661196.34849  -6486783.78347  22258276.705    22258284.848
 04  1 16  1  0  0.0000000  0  9G30G 5G10G29G26G 6G18G21G17
  21763148.525    -7172263.48949  -5565192.79547  21763148.475    21763155.211
  24494560.407     2061622.25948   1847345.10344  24494556.984    24494568.464
  22412295.592    -8883258.31249  -6905348.50547  22412294.362    22412301.438
  23476642.471    -4054060.95249  -3145978.02545  23476642.259    23476650.626
  23383255.390    -1584517.76449  -1213893.85645  23383254.090    23383264.966
  20391654.633   -18870191.54549 -14329529.17548  20391654.102    20391660.016
  23200567.637    -7223909.81649  -3636643.26945  23200566.853    23200576.094
  21599242.339   -12784328.48049  -9940607.45047  21599241.466    21599247.054
  22269944.352    -8599887.51349  -6439010.66647  22269943.429    22269951.537
 04  1 16  1  0 30.0000000  0  9G30G 5G10G29G26G 6G18G21G17
  21779682.406    -7085378.02649  -5497489.85347  21779682.299    21779688.947
  24515175.098     2169964.85748   1931767.86144  24515173.182    24515185.431
  22428610.990    -8797520.05349  -6838539.46947  22428609.806    22428616.791
  23467334.831    -4102971.86849  -3184090.31045  23467334.663    23467343.119
  23367679.859    -1666364.67149  -1277670.55245  23367678.883    23367689.904
  20388068.789   -18889035.43549 -14344212.70148  20388068.254    20388074.095
  23181077.693    -7326328.23749  -3716449.71845  23181077.124    23181086.260
  21590252.779   -12831569.08549  -9977418.26747  21590251.909    21590257.439
  22281631.148    -8538473.21249  -6391155.36447  22281630.209    22281638.290
 04  1 16  1  1  0.0000000  0  9G30G 5G10G29G26G 6G18G21G17
  21796277.488    -6998170.92649  -5429536.27347  21796277.341    21796283.939
  24535785.385     2278284.18248   2016172.47144  24535784.841    24535798.137
  22444992.950    -8711431.97149  -6771457.84347  22444991.756    22444998.777
  23458096.852    -4151516.87349  -3221917.46345  23458096.638    23458105.022
  23352149.411    -1747974.28749  -1341262.36245  23352148.714    23352159.947
  20384551.129   -18907521.07649 -14358617.06948  20384550.579    20384556.354
  23161627.112    -7428542.74949  -3796097.26345  23161626.269    23161635.248
  21581304.260   -12878594.08649 -10014061.07147  21581303.365    21581308.836
  22293337.667    -8476954.57049  -6343218.74746  22293336.754    22293344.844
 04  1 16  1  1 30.0000000  0  9G30G 5G10G29G26G 6G18G21G17
  21812932.784    -6910647.32649  -5361336.08947  21812932.581    21812939.124
  24556390.610     2386575.89048   2100555.50744  24556391.304    24556405.900
  22461440.490    -8624999.58649  -6704107.91947  22461439.299    22461446.202
  23448927.921    -4199695.73149  -3259459.32645  23448927.876    23448936.474
  23336665.012    -1829345.66449  -1404668.47345  23336664.522    23336675.182
  20381101.435   -18925649.43049 -14372743.03348  20381100.867    20381106.599
  23142214.933    -7530553.86349  -3875586.31445  23142214.358    23142222.996
  21572396.243   -12925405.97649 -10050537.83047  21572395.341    21572400.818
  22305063.365    -8415334.85949  -6295203.38346  22305062.467    22305070.663
 04  1 16  1  2  0.0000000  0  9G30G 5G10G29G26G 6G18G21G17
  21829647.702    -6822809.70949  -5292891.20647  21829647.499    21829654.053
  24576992.003     2494838.02348   2184915.63944  24576993.202    24577007.455
  22477953.222    -8538224.95949  -6636491.32447  22477951.948    22477958.801
  23439829.665    -4247505.57449  -3296713.62345  23439829.604    23439838.391
  23321226.943    -1910474.49949  -1467885.60145  23321226.620    23321236.670
  20377720.087   -18943418.46549 -14386589.00848  20377719.528    20377725.229
  23122842.273    -7632358.53349  -3954914.49245  23122841.769    23122850.040
  21563528.884   -12972004.12949 -10086848.03247  21563527.980    21563533.494
  22316808.348    -8353614.14749  -6247109.30546  22316807.455    22316815.644
 04  1 16  1  2 30.0000000  0  9G30G 5G10G29G26G 6G18G21G17
  21846422.010    -6734659.65849  -5224202.87547  21846421.857    21846428.473
  24597586.956     2603069.20848   2269251.44444  24597588.103    24597603.959
  22494530.572    -8451109.99149  -6568609.54046  22494529.302    22494536.261
  23430802.535    -4294942.57449  -3333677.41345  23430802.313    23430811.299
  23305836.331    -1991356.11549  -1530910.07045  23305835.775    23305845.317
  20374407.609   -18960825.59249 -14400152.97848  20374407.032    20374412.737
  23103509.902    -7733953.50249  -4034079.28245  23103509.033    23103516.978
  21554702.298   -13018387.74549 -10122991.07247  21554701.471    21554706.955
  22328572.813    -8291791.91449  -6198936.13546  22328571.861    22328579.907
 04  1 16  1  3  0.0000000  0  9G30G 5G10G29G26G 6G18G21G17
  21863254.505    -6646203.78149  -5155276.23247  21863254.374    21863261.124
  24618176.655     2711263.13348   2353558.39044  24618177.718    24618192.858
  22511171.426    -8363661.29849  -6500467.70546  22511170.191    22511177.198
  23421846.386    -4342007.70449  -3370351.42345  23421846.203    23421855.031
  23290491.811    -2071990.48149  -1593741.96345  23290491.350    23290501.119
  20371163.551   -18977872.93349 -14413436.59648  20371162.987    20371168.698
  23084216.986    -7835340.65249  -4113082.12845  23084215.899    23084223.553
  21545915.961   -13064560.81249 -10158970.03947  21545915.043    21545920.431
  22340355.666    -8229872.66649  -6150687.35946  22340354.744    22340362.674
 04  1 16  1  3 30.0000000  0  9G30G 5G10G29G26G 6G18G21G17
  21880145.257    -6557441.80449  -5086111.06947  21880145.161    21880152.033
  24638757.731     2819420.62648   2437836.77344  24638759.283    24638774.456
  22527875.856    -8275878.41849  -6432065.46746  22527874.647    22527881.652
  23412962.418    -4388695.64449  -3406731.51545  23412962.123    23412970.462
  23275195.329    -2152371.23049  -1656376.20945  23275194.849    23275204.896
  20367988.866   -18994555.95249 -14426436.34048  20367988.305    20367993.985
  23064964.507    -7936514.24449  -4191918.56845  23064963.379    23064970.729
  21537170.150   -13110520.04349 -10194782.39247  21537169.258    21537174.653
  22352157.463    -8167854.08149  -6102361.17746  22352156.534    22352164.259
 04  1 16  1  4  0.0000000  0  9G30G 5G10G29G26G 6G18G21G17
  21897093.579    -6468377.86249  -5016710.61647  21897093.408    21897100.359
  24659332.198     2927537.71648   2522083.77344  24659333.725    24659348.471
  22544643.177    -8187765.51849  -6363406.06346  22544641.929    22544648.929
  23404150.120    -4435005.00849  -3442816.64145  23404149.775    23404158.073
  23259947.977    -2232495.98949  -1718810.98145  23259947.624    23259957.351
  20364883.458   -19010874.62049 -14439152.16948  20364882.905    20364888.600
  23045752.740    -8037473.27249  -4270587.80445  23045751.658    23045758.559
  21528464.776   -13156267.20249 -10230429.48247  21528463.904    21528469.233
  22363977.844    -8105738.25249  -6053959.22546  22363976.901    22363984.391
 04  1 16  1  4 30.0000000  0  9G30G 5G10G29G26G 6G18G21G17
  21914099.084    -6379012.56149  -4947075.33047  21914099.065    21914106.108
  24679900.077     3035614.44548   2606299.27144  24679901.021    24679915.121
  22561473.155    -8099323.02749  -6294489.84646  22561471.938    22561478.956
  23395410.771    -4480930.92249  -3478602.96945  23395410.305    23395418.522
  23244750.725    -2312358.63849  -1781041.48745  23244750.414    23244759.163
  20361848.146   -19026824.97949 -14451581.00748  20361847.616    20361853.266
  23026582.743    -8138213.36049  -4349086.45446  23026581.549    23026588.064
  21519800.204   -13201799.92149 -10265909.48647  21519799.343    21519804.642
  22375817.050    -8043523.43549  -6005480.12346  22375816.095    22375823.440
 04  1 16  1  5  0.0000000  0  9G30G 5G10G29G26G 6G18G21G17
  21931161.270    -6289350.41349  -4877208.75147  21931161.193    21931168.299
  24700458.720     3143646.66849   2690480.11244  24700459.423    24700473.292
  22578365.050    -8010555.23449  -6225320.14046  22578363.864    22578370.885
  23386744.171    -4526472.67749  -3514089.95945  23386743.724    23386752.296
  23229603.838    -2391957.45649  -1843066.39245  23229603.530    23229611.308
  20358882.946   -19042407.18649 -14463722.97348  20358882.409    20358888.048
  23007454.508    -8238733.61749  -4427413.79946  23007453.172    23007459.411
  21511176.134   -13247119.84149 -10301223.67347  21511175.273    21511180.531
  22387674.546    -7981211.98949  -5956925.72946  22387673.606    22387680.775
 04  1 16  1  5 30.0000000  0  9G30G 5G10G29G26G 6G18G21G17
  21948279.060    -6199395.58949  -4807114.09547  21948279.082    21948286.204
  24721009.210     3251631.45749   2774623.97444  24721009.371    24721022.256
  22595318.226    -7921466.41749  -6155900.27546  22595316.928    22595323.816
  23378151.182    -4571628.97649  -3549276.59145  23378150.893    23378159.442
  23214507.296    -2471290.19049  -1904883.98945  23214506.971    23214514.443
  20355987.750   -19057621.15549 -14475578.00148  20355987.213    20355992.852
  22988368.001    -8339032.84749  -4505568.93346  22988366.825    22988372.800
  21502592.373   -13292228.41149 -10336373.16447  21502591.436    21502596.626
  22399550.018    -7918805.80149  -5908297.50246  22399549.125    22399556.166
 04  1 16  1  6  0.0000000  0  9G30G 5G10G29G26G 6G18G21G17
  21965452.671    -6109148.36549  -4736791.60747  21965452.603    21965459.704
  24741549.903     3359568.05149   2858730.31145  24741549.540    24741561.967
  22612332.296    -7832056.93149  -6086230.53046  22612330.989    22612337.803
  23369632.618    -4616394.90049  -3584159.02445  23369632.340    23369640.823
  23199462.605    -2550350.54549  -1966489.35345  23199462.226    23199469.730
  20353163.398   -19072462.93349 -14487143.01248  20353162.879    20353168.536
  22969324.270    -8439107.09349  -4583548.74146  22969323.250    22969328.954
  21494049.157   -13337123.49949 -10371356.30647  21494048.190    21494053.410
  22411443.860    -7856303.11349  -5859594.09646  22411443.041    22411449.889
 04  1 16  1  6 30.0000000  0  9G30G 5G10G29G26G 6G18G21G17
  21982681.266    -6018611.67849  -4666243.54947  21982681.256    21982688.294
  24762081.273     3467454.21249   2942797.35345  24762080.825    24762091.937
  22629406.757    -7742329.58149  -6016313.11146  22629405.499    22629412.330
  23361188.674    -4660767.93149  -3618735.32945  23361188.495    23361196.857
  23184470.288    -2629135.16549  -2027879.85845  23184469.985    23184477.700
  20350410.104   -19086931.14249 -14498416.92648  20350409.595    20350415.268
  22950323.855    -8538953.66149  -4661351.14345  22950322.912    22950328.416
  21485546.389   -13381805.46149 -10406173.37547  21485545.466    21485550.683
  22423355.976    -7793704.74749  -5810816.12946  22423355.174    22423361.847
 04  1 16  1  7  0.0000000  0  9G30G 5G10G29G26G 6G18G21G17
  21999964.331    -5927789.52349  -4595473.06147  21999964.221    21999971.203
  24782601.610     3575287.22049   3026822.95145  24782601.190    24782611.878
  22646540.991    -7652288.27549  -5946151.04346  22646539.746    22646546.515
  23352820.125    -4704746.79249  -3653004.47645  23352819.600    23352827.779
  23169530.951    -2707641.34149  -2089053.38945  23169530.569    23169538.671
  20347727.988   -19101025.16649 -14509399.26648  20347727.512    20347733.232
  22931367.081    -8638571.30549  -4738975.16545  22931366.096    22931371.521
  21477084.094   -13426275.03949 -10440824.94947  21477083.135    21477088.370
  22435286.052    -7731012.36849  -5761964.91046  22435285.225    22435291.809
 04  1 16  1  7 30.0000000  0  9G30G 5G10G29G26G 6G18G21G17
  22017301.003    -5836684.80649  -4524482.38047  22017300.930    22017307.860
  24803111.418     3683063.90649   3110804.73745  24803111.360    24803121.109
  22663734.540    -7561935.74649  -5875746.46846  22663733.254    22663739.951
  23344526.354    -4748328.94849  -3686964.52945  23344525.982    23344534.240
  23154645.097    -2785865.67549  -2150007.31245  23154644.723    23154653.034
  20345117.329   -19114743.85749 -14520089.14548  20345116.889    20345122.581
  22912454.261    -8737958.16649  -4816419.34445  22912453.219    22912458.530
  21468662.081   -13470532.64149 -10475311.34747  21468661.145    21468666.391
  22447233.895    -7668226.51349  -5713040.85446  22447233.064    22447239.595
 04  1 16  1  8  0.0000000  0  9G30G 5G10G29G26G 6G18G21G17
  22034691.241    -5745298.69549  -4453272.43447  22034691.181    22034698.062
  24823610.757     3790783.66549   3194742.10745  24823610.860    24823619.630
  22680986.851    -7471273.26449  -5805100.37046  22680985.730    22680992.479
  23336309.038    -4791510.46049  -3720612.38845  23336308.530    23336316.817
  23139813.988    -2863802.97949  -2210737.57345  23139813.631    23139821.737
  20342578.786   -19128084.10249 -14530484.11948  20342578.306    20342583.976
  22893585.932    -8837109.84849  -4893680.28645  22893585.200    22893590.376
  21460280.678   -13514576.68249 -10509631.34347  21460279.788    21460285.035
  22459199.686    -7605346.50549  -5664043.43846  22459198.810    22459205.319
 04  1 16  1  8 30.0000000  0  8G30G10G29G26G 6G18G21G17
  22052134.818    -5653632.86149  -4381844.52647  22052134.694    22052141.517
  22698297.995    -7380302.47449  -5734214.03146  22698296.886    22698303.557
  23328168.596    -4834287.64949  -3753945.20845  23328168.175    23328176.519
  23125038.233    -2941448.48849  -2271240.46345  23125037.930    23125045.745
  20340112.725   -19141043.26449 -14540582.15248  20340112.273    20340117.928
  22874763.303    -8936023.26349  -4970755.55945  22874762.481    22874767.654
  21451940.120   -13558406.05949 -10543784.06247  21451939.222    21451944.524
  22471183.433    -7542371.52349  -5614972.01846  22471182.614    22471189.026
 04  1 16  1  9  0.0000000  0  8G30G10G29G26G 6G18G21G17
  22069631.085    -5561689.98149  -4310200.72947  22069630.932    22069637.725
  22715667.455    -7289025.96149  -5663089.44546  22715666.231    22715672.881
  23320106.008    -4876657.92049  -3786960.92645  23320105.557    23320113.519
  23110318.934    -3018798.32149  -2331512.95745  23110318.460    23110325.939
  20337719.562   -19153619.59349 -14550381.86948  20337719.050    20337724.696
  22855986.611    -9034695.69049  -5047643.03346  22855985.691    22855990.886
  21443640.338   -13602020.73949 -10577769.47947  21443639.497    21443644.857
  22483185.231    -7479302.06649  -5565826.98446  22483184.346    22483190.762
 04  1 16  1  9 30.0000000  0  8G30G10G29G26G 6G18G21G17
  22087178.081    -5469479.87049  -4238348.70947  22087178.005    22087184.735
  22733093.037    -7197453.18649  -5591734.02546  22733091.888    22733098.690
  23312120.029    -4918625.71949  -3819663.03145  23312119.505    23312127.202
  23095654.823    -3095855.79749  -2391557.63945  23095654.592    23095661.882
  20335398.107   -19165818.59649 -14559887.56748  20335397.627    20335403.272
  22837254.810    -9133132.00549  -5124346.54146  22837253.799    22837259.082
  21435380.225   -13645427.65049 -10611593.00047  21435379.346    21435384.709
  22495203.440    -7416145.56649  -5516614.13046  22495202.615    22495209.056
 04  1 16  1 10  0.0000000  0  8G30G10G29G26G 6G18G21G17
  22104776.389    -5377000.48549  -4166286.86547  22104776.302    22104782.993
  22750575.506    -7105582.17349  -5520146.20646  22750574.295    22750581.172
  23304212.073    -4960183.75849  -3852045.85545  23304211.510    23304218.853
  23081048.548    -3172612.52049  -2451367.99045  23081048.212    23081055.511
  20333149.682   -19177633.98749 -14569094.34048  20333149.174    20333154.871
  22818569.150    -9231325.37049  -5200860.72246  22818568.144    22818573.505
  21427160.454   -13688622.04649 -10645250.92747  21427159.616    21427165.007
  22507239.116    -7352897.72649  -5467330.10546  22507238.243    22507244.769
 04  1 16  1 10 30.0000000  0  8G30G10G29G26G 6G18G21G17
  22122424.870    -5284257.54349  -4094019.66447  22122424.764    22122431.422
  22768113.615    -7013418.51849  -5448330.35446  22768112.454    22768119.372
  23296381.962    -5001332.55649  -3884109.76845  23296381.301    23296388.343
  23066499.682    -3249067.78149  -2510943.43345  23066499.364    23066506.724
  20330973.912   -19189067.20449 -14578003.33048  20330973.440    20330979.161
  22799929.654    -9329276.32649  -5277186.04446  22799928.579    22799933.993
  21418980.662   -13731606.87949 -10678745.55647  21418979.809    21418985.244
  22519291.451    -7289562.08649  -5417977.66946  22519290.550    22519297.139
 04  1 16  1 11  0.0000000  0  8G30G10G29G26G 6G18G21G17
  22140122.505    -5191256.15349  -4021551.06847  22140122.402    22140129.037
  22785706.620    -6920967.15649  -5376290.31446  22785705.414    22785712.331
  23288629.550    -5042071.85049  -3915854.60046  23288628.848    23288635.875
  23052008.627    -3325220.10649  -2570282.82345  23052008.097    23052015.586
  20328870.798   -19200119.02649 -14586615.12148  20328870.306    20328876.103
  22781336.297    -9426984.58549  -5353322.23346  22781335.290    22781340.727
  21410840.307   -13774384.55349 -10712078.75047  21410839.484    21410844.910
  22531360.022    -7226141.30449  -5368558.86746  22531359.045    22531365.786
 04  1 16  1 11 30.0000000  0  8G30G10G29G26G 6G18G21G17
  22157869.818    -5097993.43149  -3948878.83847  22157869.746    22157876.365
  22803354.864    -6828225.14249  -5304023.79146  22803353.597    22803360.643
  23280956.443    -5082393.78449  -3947274.21346  23280955.800    23280962.830
  23037576.565    -3401060.23949  -2629378.96345  23037576.089    23037583.747
  20326841.609   -19210782.26349 -14594924.11248  20326841.131    20326846.979
  22762790.591    -9524442.54949  -5429263.38846  22762789.579    22762795.039
  21402740.345   -13816949.76349 -10745246.40047  21402739.462    21402744.971
  22543445.633    -7162630.32349  -5319069.79046  22543444.658    22543451.674
 04  1 16  1 12  0.0000000  0  8G30G10G29G26G 6G18G21G17
  22175666.106    -5004473.57749  -3876006.24547  22175666.036    22175672.650
  22821057.487    -6735196.48549  -5231533.92746  22821056.232    22821063.534
  23273362.981    -5122297.03049  -3978367.56846  23273362.437    23273369.498
  23023204.430    -3476585.81849  -2688229.98945  23023203.908    23023211.611
  20324886.416   -19221056.78249 -14602930.20348  20324885.904    20324891.807
  22744292.627    -9621648.80349  -5505008.42346  22744291.785    22744297.157
  21394680.569   -13859303.55249 -10778249.31047  21394679.722    21394685.230
  22555548.062    -7099030.86849  -5269511.77346  22555547.120    22555554.334
 04  1 16  1 12 30.0000000  0  8G30G10G29G26G 6G18G21G17
  22193510.583    -4910700.71149  -3802936.49947  22193510.472    22193517.125
  22838813.885    -6641885.45449  -5158824.01846  22838812.669    22838820.086
  23265849.466    -5161780.74749  -4009134.01546  23265848.918    23265855.996
  23008892.414    -3551794.61549  -2746834.15345  23008892.075    23008899.360
  20323005.172   -19230942.64549 -14610633.45148  20323004.677    20323010.634
  22725842.767    -9718603.31049  -5580557.28246  22725841.897    22725847.231
  21386660.709   -13901447.52349 -10811088.72847  21386659.884    21386665.398
  22567666.978    -7035344.98249  -5219886.40246  22567666.070    22567673.446
 04  1 16  1 13  0.0000000  0  8G30G10G29G26G 6G18G21G17
  22211402.892    -4816676.03149  -3729670.54347  22211402.796    22211409.456
  22856623.910    -6548293.05449  -5085894.86446  22856622.660    22856630.118
  23258416.480    -5200840.83049  -4039570.37446  23258416.043    23258423.197
                  -3626681.22849  -2805187.22045
  20321198.501   -19240436.59549 -14618031.31848  20321197.988    20321204.012
  22707441.643    -9815301.72949  -5655906.60246  22707440.746    22707446.096
  21378681.135   -13943379.81949 -10843763.21847  21378680.318    21378685.840
  22579802.655    -6971571.40349  -5170192.70246  22579801.679    22579809.206
 04  1 16  1 13 30.0000000  0  8G30G10G29G26G 6G18G21G17
  22229342.022    -4722405.25349  -3656212.81547  22229341.947    22229348.587
  22874486.355    -6454424.92849  -5012750.85146  22874485.054    22874492.693
  23251064.168    -5239477.88949  -4069677.11046  23251063.634    23251070.859
  22980452.979    -3701245.20749  -2863288.92845  22980452.623    22980458.435
  20319466.091   -19249540.18249 -14625125.00848  20319465.597    20319471.637
  22689088.946    -9911744.37049  -5731056.60246  22689088.221    22689093.689
  21370741.415   -13985103.20749 -10876274.90347  21370740.614    21370746.040
  22591954.325    -6907713.54849  -5120433.32446  22591953.376    22591960.977
 04  1 16  1 14  0.0000000  0  8G30G10G29G26G 6G18G21G17
  22247327.331    -4627892.21249  -3582566.31847  22247327.226    22247333.853
  22892400.556    -6360284.67449  -4939394.81046  22892399.252    22892407.036
  23243792.589    -5277690.51649  -4099453.12046  23243792.007    23243799.236
  22966325.900    -3775483.92349  -2921137.17745  22966325.533    22966331.214
  20317808.160   -19258252.80249 -14631914.04648  20317807.645    20317813.706
  22670785.195   -10007930.33449  -5806006.60946  22670784.433    22670790.052
  21362841.184   -14026619.10649 -10908624.91647  21362840.383    21362845.774
  22604121.912    -6843772.73149  -5070609.30746  22604120.983    22604128.548
 04  1 16  1 14 30.0000000  0  8G30G10G29G26G 6G18G21G17
  22265358.966    -4533135.34649  -3508729.83347  22265358.913    22265365.498
  22910366.820    -6265870.67049  -4865825.45646  22910365.584    22910373.431
  23236602.994    -5315471.98549  -4128893.17146  23236602.404    23236609.404
  22952262.169    -3849389.17849  -2978725.60045  22952261.870    22952267.806
  20316225.665   -19266568.73549 -14638393.97848  20316225.160    20316231.226
  22652531.631   -10103852.21549  -5880750.84446  22652530.920    22652536.715
  21354981.404   -14067922.73249 -10940809.52847  21354980.575    21354985.909
  22616305.959    -6779745.04449  -5020717.59346  22616305.068    22616312.581
 04  1 16  1 15  0.0000000  0  8G30G10G29G26G 6G18G21G17
  22283435.974    -4438140.01649  -3434707.51647  22283435.938    22283442.509
  22928384.351    -6171187.82149  -4792046.60746  22928383.081    22928391.023
  23229495.419    -5352822.58049  -4157997.44946  23229494.805    23229501.660
  22938262.095    -3922959.93549  -3036053.35945  22938261.751    22938268.040
  20314718.447   -19274489.09849 -14644565.65748  20314717.914    20314724.014
  22634328.236   -10199511.01249  -5955290.05546  22634327.512    22634333.432
  21347161.348   -14109017.25749 -10972831.20647  21347160.528    21347165.822
  22628505.935    -6715633.43749  -4970760.47946  22628505.062    22628512.523
 04  1 16  1 15 30.0000000  0  8G30G10G29G26G 6G18G21G17
  22301557.487    -4342910.36449  -3360502.63747  22301557.513    22301564.064
  22946452.293    -6076240.35449  -4718061.56546  22946451.002    22946458.936
  23222469.844    -5389741.37849  -4186765.26946  23222469.289    23222475.992
  22924325.980    -3996194.11649  -3093118.87845  22924325.640    22924332.089
  20313286.452   -19282013.94249 -14650429.16248  20313285.945    20313292.108
  22616175.031   -10294906.19649  -6029623.87846  22616174.248    22616180.317
  21339380.906   -14149904.01449 -11004690.99447  21339380.045    21339385.286
  22640721.498    -6651439.94449  -4920739.56846  22640720.626    22640728.053
 04  1 16  1 16  0.0000000  0  8G30G10G29G26G 6G18G21G17
  22319723.303    -4247448.67949  -3286116.93947  22319723.247    22319729.835
  22964570.144    -5981030.32749  -4643871.93346  22964568.879    22964576.780
  23215527.095    -5426225.62249  -4215194.46946  23215526.575    23215533.156
  22910454.397    -4069087.45249  -3149918.77145  22910454.372    22910460.908
  20311930.156   -19289141.16049 -14655982.82548  20311929.664    20311935.833
  22598072.659   -10390034.47449  -6103749.70646  22598071.880    22598077.925
  21331640.053   -14190581.92049 -11036388.03247  21331639.243    21331644.461
  22652952.622    -6587164.24049  -4870654.58146  22652951.748    22652959.236
 04  1 16  1 16 30.0000000  0  8G30G10G29G26G 6G18G21G17
  22337932.735    -4151757.36249  -3211552.30647  22337932.651    22337939.244
  22982737.563    -5885560.16949  -4569479.60046  22982736.253    22982744.175
  23208667.487    -5462272.45949  -4243282.83446  23208667.153    23208673.690
  22896649.062    -4141636.07149  -3206450.04545  22896648.831    22896655.269
  20310649.843   -19295869.04849 -14661225.31548  20310649.360    20310655.560
  22580021.774   -10484893.19549  -6177665.51346  22580020.777    22580026.807
  21323939.055   -14231051.12449 -11067922.44547  21323938.215    21323943.430
  22665199.407    -6522806.43049  -4820505.61846  22665198.540    22665206.120
 04  1 16  1 17  0.0000000  0  8G30G10G29G26G 6G18G21G17
  22356185.552    -4055838.16649  -3136810.11947  22356185.405    22356192.010
  23000954.129    -5789831.24149  -4494885.63046  23000952.852    23000960.761
  23201891.931    -5497878.67049  -4271027.86446  23201891.554    23201897.963
  22882909.969    -4213835.11149  -3262708.92746  22882909.751    22882916.092
  20309446.057   -19302194.97349 -14666154.60248  20309445.564    20309451.786
  22562022.647   -10579479.11749  -6251368.74146  22562021.658    22562027.678
  21316277.931   -14271310.69149 -11099293.51147  21316277.088    21316282.251
  22677462.088    -6458365.69149  -4770292.04846  22677461.130    22677468.796
 04  1 16  1 17 30.0000000  0  8G30G10G29G26G 6G18G21G17
  22374480.779    -3959695.42649  -3061893.73346  22374480.669    22374487.323
  23019219.156    -5693847.95349  -4420093.45046  23019217.857    23019225.829
  23195200.420    -5533043.25149  -4298428.75746  23195200.027    23195206.354
  22869237.819    -4285682.53249  -3318693.82746  22869237.507    22869243.836
  20308318.679   -19308119.00549 -14670770.70748  20308318.204    20308324.471
  22544075.553   -10673791.51249  -6324858.84046  22544074.562    22544080.588
  21308656.421   -14311361.75349 -11130502.09847  21308655.625    21308660.668
  22689740.037    -6393843.85649  -4720015.26446  22689739.141    22689746.898
 04  1 16  1 18  0.0000000  0  8G30G10G29G26G 6G18G21G17
  22392817.785    -3863333.94749  -2986806.89946  22392817.645    22392824.267
  23037531.788    -5597615.09449  -4345106.79846  23037530.340    23037538.363
  23188592.743    -5567766.41649  -4325485.70646  23188592.441    23188598.618
  22855632.793    -4357176.86549  -3374403.60446  22855632.466    22855638.794
  20307267.687   -19313641.94549 -14675074.27648  20307267.202    20307273.483
  22526180.549   -10767830.38849  -6398135.79646  22526179.500    22526185.566
  21301074.205   -14351206.63949 -11161550.03847  21301073.394    21301078.305
  22702032.861    -6329243.70849  -4669677.47546  22702032.040    22702039.865
 04  1 16  1 18 30.0000000  0  8G30G10G29G26G 6G18G21G17
  22411196.377    -3766753.26749  -2911549.26246  22411196.311    22411202.949
  23055891.948    -5501131.42849  -4269924.70046  23055890.499    23055898.537
  23182070.160    -5602042.39649  -4352194.18946  23182069.867    23182075.988
  22842096.313    -4428311.21949  -3429832.87646  22842096.056    22842102.306
  20306293.932   -19318758.93049 -14679061.51748  20306293.456    20306299.761
  22508338.331   -10861590.35349  -6471195.43046  22508337.423    22508343.563
  21293531.891   -14390841.85349 -11192434.58447  21293531.055    21293535.919
  22714341.162    -6264562.34049  -4619276.39346  22714340.449    22714348.238
 04  1 16  1 19  0.0000000  0  8G30G10G29G26G 6G18G21G17
  22429616.234    -3669956.69349  -2836123.39346  22429616.110    22429622.713
  23074299.097    -5404400.49149  -4194549.93746  23074297.746    23074305.761
  23175633.187    -5635869.50349  -4378552.90346  23175632.803    23175638.706
  22828629.126    -4499082.43049  -3484979.18446  22828628.739    22828635.068
  20305397.574   -19323469.27449 -14682731.89348  20305397.086    20305403.368
  22490549.630   -10955069.52449  -6544036.26246  22490548.768    22490555.068
  21286029.359   -14430267.97049 -11223156.20447  21286028.549    21286033.289
  22726664.894    -6199800.46849  -4568812.57946  22726664.168    22726671.866
 04  1 16  1 19 30.0000000  0  8G30G10G29G26G 6G18G21G17
  22448075.728    -3572951.12549  -2760534.67846  22448075.631    22448082.275
  23092752.162    -5307429.20749  -4118987.86946  23092750.831    23092758.801
  23169281.038    -5669249.85549  -4404563.49546  23169280.691    23169286.459
  22815230.579    -4569491.20049  -3539843.07446  22815230.384    22815236.790
  20304577.994   -19327775.82549 -14686087.63248  20304577.524    20304583.827
  22472814.032   -11048269.51149  -6616659.56146  22472813.246    22472819.563
  21278565.841   -14469489.19249 -11253718.16247  21278564.976    21278569.723
  22739003.151    -6134962.34249  -4518289.36446  22739002.486    22739010.145
 04  1 16  1 20  0.0000000  0  9G16G30G10G29G26G 6G18G21G17
                   -611492.62749   -463791.83144                  24027997.129
  22466575.197    -3475736.05349  -2684782.71546  22466575.033    22466581.696
  23111251.147    -5210216.47649  -4043237.66846  23111249.875    23111257.774
  23163014.905    -5702177.74649  -4430221.49846  23163014.580    23163020.375
  22801902.512    -4639530.40549  -3594419.00446  22801902.262    22801908.821
  20303836.268   -19331673.59649 -14689124.83048  20303835.807    20303842.058
  22455132.770   -11141184.89549  -6689061.08846  22455131.856    22455138.296
  21271142.036   -14508502.00849 -11284117.72147  21271141.145    21271145.889
  22751356.421    -6070045.55449  -4467704.83346  22751355.804    22751363.366
 04  1 16  1 20 30.0000000  0  9G16G30G10G29G26G 6G18G21G17
  24014417.804     -682826.67549   -519376.68544  24014418.414    24014423.450
  22485113.556    -3378316.05749  -2608871.07546  22485113.390    22485120.137
  23129795.214    -5112766.81849  -3967302.85846  23129793.947    23129801.937
  23156834.976    -5734652.95949  -4455526.76646  23156834.647    23156840.504
  22788645.002    -4709198.44849  -3648705.71046  22788644.760    22788651.357
  20303172.246   -19335163.12649 -14691843.93048  20303171.777    20303177.992
  22437505.494   -11233815.49249  -6761240.70246  22437504.649    22437511.208
  21263757.478   -14547308.44949 -11314356.47347  21263756.558    21263761.258
  22763724.561    -6005051.68749  -4417060.25946  22763723.822    22763731.297
 04  1 16  1 21  0.0000000  0  9G16G30G10G29G26G 6G18G21G17
  24000922.465     -753751.35649   -574642.56345  24000922.747    24000925.572
  22503690.174    -3280694.60649  -2532802.45846  22503690.080    22503696.944
  23148383.861    -5015083.69649  -3891186.10846  23148382.528    23148390.497
  23150741.646    -5766673.70349  -4480477.90246  23150741.306    23150747.134
  22775458.705    -4778492.47349  -3702700.95946  22775458.459    22775465.042
  20302586.079   -19338243.68549 -14694244.35048  20302585.592    20302591.765
  22419932.781   -11326159.81449  -6833197.25246  22419931.984    22419938.611
  21256412.134   -14585909.06249 -11344434.83847  21256411.143    21256415.815
  22776107.007    -5939981.91449  -4366356.52146  22776106.210    22776113.686
 04  1 16  1 21 30.0000000  0  9G16G30G10G29G26G 6G18G21G17
  23987504.578     -824265.22749   -629588.39745  23987504.466    23987507.985
  22522304.350    -3182875.77349  -2456580.03746  22522304.343    22522311.349
  23167016.182    -4917170.96749  -3814890.44346  23167014.750    23167022.671
  23144734.958    -5798239.41949  -4505074.47046  23144734.554    23144740.341
  22762344.135    -4847409.98149  -3756402.80546  22762343.898    22762350.407
  20302077.775   -19340915.25349 -14696326.07848  20302077.274    20302083.369
  22402414.678   -11418217.01749  -6904930.07046  22402413.922    22402420.681
  21249105.574   -14624304.99549 -11374353.70147  21249104.621    21249109.286
  22788503.586    -5874837.80249  -4315594.86746  22788502.757    22788510.170
 04  1 16  1 22  0.0000000  0  9G16G30G10G29G26G 6G18G21G17
  23974164.895     -894364.64449   -684211.19445  23974163.993    23974169.371
  22540956.012    -3084860.72949  -2380204.72846  22540955.911    22540963.110
  23185691.827    -4819029.39549  -3738416.47246  23185690.470    23185698.346
  23138815.469    -5829346.33249  -4529313.52546  23138815.042    23138820.847
  22749302.350    -4915946.06549  -3809807.42646  22749301.996    22749308.511
  20301647.775   -19343174.88949 -14698086.81548  20301647.292    20301653.373
  22384951.868   -11509983.19549  -6976436.11846  22384951.321    22384958.156
  21241838.208   -14662494.95549 -11404112.07147  21241837.272    21241841.969
  22800914.621    -5809618.26149  -4264774.42946  22800913.765    22800920.957
 04  1 16  1 22 30.0000000  0  9G16G30G10G29G26G 6G18G21G17
  23960904.838     -964042.85549   -738505.75045  23960903.364    23960910.585
  22559645.151    -2986647.86649  -2303675.28146  22559645.143    22559652.607
  23204411.442    -4720657.10749  -3661762.71246  23204410.121    23204417.887
  23132984.428    -5859987.79449  -4553189.87846  23132984.068    23132989.940
  22736334.417    -4984092.71149  -3862908.63446  22736334.044    22736340.767
  20301297.349   -19345016.73949 -14699522.00248  20301296.855    20301302.873
  22367546.063   -11601451.49449  -7047710.05146  22367545.490    22367552.284
  21234610.879   -14700474.24649 -11433706.28147  21234609.975    21234614.643
  22813340.915    -5744318.82149  -4213891.72746  22813339.983    22813346.941
 04  1 16  1 23  0.0000000  0  9G16G30G10G29G26G 6G18G21G17
  23947724.576    -1033301.01249   -792473.02045  23947722.968    23947731.267
  22578370.698    -2888243.54249  -2226996.64446  22578370.730    22578378.463
  23223173.744    -4622060.33149  -3584934.02146  23223172.482    23223180.240
  23127241.621    -5890165.49149  -4576704.87146  23127241.294    23127247.289
  22723440.485    -5051849.65749  -3915706.16746  22723440.141    22723447.202
  20301025.920   -19346443.15449 -14700633.47748  20301025.432    20301031.414
  22350196.611   -11692623.73849  -7118753.29546  22350196.001    22350202.764
  21227423.114   -14738246.31549 -11463139.01647  21227422.171    21227426.797
  22825781.500    -5678943.49349  -4162949.87546  22825780.591    22825787.388
 04  1 16  1 23 30.0000000  0  9G16G30G10G29G26G 6G18G21G17
  23934625.097    -1102135.61649   -846110.23945  23934623.615    23934632.393
  22597132.627    -2789649.27349  -2150169.98546  22597132.571    22597140.467
  23241978.482    -4523240.63449  -3507931.64446  23241977.204    23241985.016
  23121587.723    -5919876.01349  -4599855.81546  23121587.418    23121593.430
  22710621.499    -5119212.59549  -3968196.65746  22710621.165    22710628.508
  20300834.067   -19347451.60649 -14701419.26448  20300833.565    20300839.460
  22332904.183   -11783496.23349  -7189562.96846  22332903.542    22332910.202
  21220274.837   -14775810.37149 -11492409.65847  21220273.930    21220278.592
  22838236.668    -5613491.52249  -4111948.31246  22838235.788    22838242.480
 04  1 16  1 24  0.0000000  0  9G16G30G10G29G26G 6G18G21G17
  23921606.732    -1170547.28349   -899417.97445  23921605.407    23921613.250
  22615929.683    -2690871.09449  -2073200.02746  22615929.488    22615937.470
  23260824.546    -4424203.70749  -3430759.99446  23260823.218    23260831.115
  23116022.620    -5949120.61849  -4622643.72646  23116022.231    23116028.290
  22697877.649    -5186181.10549  -4020379.79446  22697877.387    22697884.814
  20300721.355   -19348044.01249 -14701880.84448  20300720.853    20300726.717
  22315668.594   -11874070.36049  -7260140.14347  22315667.905    22315674.481
  21213165.547   -14813169.60749 -11521520.70148  21213164.662    21213169.336
  22850705.727    -5547966.18649  -4060889.59346  22850704.836    22850711.485
 04  1 16  1 24 30.0000000  0  9G16G30G10G29G26G 6G18G21G17
  23908669.209    -1238534.83649   -952395.21345  23908668.024    23908675.231
  22634760.918    -2591912.60649  -1996089.56746  22634760.721    22634768.693
  23279711.343    -4324952.84049  -3353421.63646  23279710.062    23279717.823
  23110546.223    -5977897.95249  -4645067.52746  23110545.793    23110552.044
  22685209.390    -5252752.28149  -4072253.32246  22685209.197    22685216.642
  20300687.928   -19348219.84649 -14702017.83248  20300687.407    20300693.238
  22298490.033   -11964344.35349  -7330483.44747  22298489.357    22298495.884
  21206095.267   -14850323.99949 -11550472.12548  21206094.406    21206099.059
  22863188.506    -5482368.67449  -4009774.63146  22863187.635    22863194.145
 04  1 16  1 25  0.0000000  0  9G16G30G10G29G26G 6G18G21G17
  23895813.614    -1306090.14949  -1005035.62845  23895812.782    23895819.483
  22653627.206    -2492770.72449  -1918836.21246  22653626.880    22653634.837
  23298639.389    -4225484.95649  -3275914.17346  23298638.129    23298645.876
  23105160.402    -6006200.34549  -4667121.25546  23105159.871    23105166.184
  22672618.366    -5318916.95249  -4123810.09346  22672618.164    22672625.742
  20300735.057   -19347972.09549 -14701824.76848  20300734.564    20300740.327
  22281370.061   -12054310.34649  -7400586.76447  22281369.419    22281375.913
  21199065.099   -14887268.23149 -11579259.79248  21199064.183    21199068.833
  22875686.112    -5416693.32449  -3958599.01246  22875685.273    22875691.710
 04  1 16  1 25 30.0000000  0  9G16G30G10G29G26G 6G18G21G17
  23883039.677    -1373219.86349  -1057344.44045  23883038.598    23883044.601
  22672526.060    -2393457.24649  -1841449.13746  22672525.717    22672533.634
  23317606.454    -4125811.48649  -3198246.50946  23317605.258    23317612.948
  23099863.396    -6034034.80849  -4688810.35546  23099862.918    23099869.383
  22660103.568    -5384680.65849  -4175054.43946  22660103.428    22660111.197
  20300861.377   -19347308.33949 -14701307.53848  20300860.886    20300866.614
  22264307.379   -12143975.17449  -7470455.40347  22264306.841    22264313.274
  21192073.092   -14924011.27349 -11607890.69648  21192072.174    21192076.797
  22888196.597    -5350949.40849  -3907369.97046  22888195.842    22888202.311
 04  1 16  1 26  0.0000000  0  9G16G30G10G29G26G 6G18G21G17
  23870346.680    -1439916.99949  -1109316.11845  23870345.725    23870352.371
  22691457.771    -2293970.21849  -1763926.82346  22691457.511    22691465.396
  23336613.132    -4025930.15049  -3120416.86846  23336612.020    23336619.556
  23094656.900    -6061394.51549  -4710129.50046  23094656.472    23094662.963
  22647666.907    -5450035.24649  -4225979.97646  22647666.737    22647674.574
  20301067.966   -19346222.59649 -14700461.47848  20301067.463    20301073.175
  22247303.367   -12233332.30149  -7540084.26447  22247302.763    22247309.155
  21185120.282   -14960548.28449 -11636361.03248  21185119.377    21185124.037
  22900721.032    -5285132.53249  -3856084.06946  22900720.301    22900726.840
 04  1 16  1 26 30.0000000  0  9G16G30G10G29G26G 6G18G21G17
  23857736.896    -1506178.38149  -1160948.29645  23857736.073    23857742.902
  22710422.557    -2194311.63049  -1686270.82146  22710422.022    22710429.744
  23355659.273    -3925842.48249  -3042426.44646  23355658.224    23355665.463
  23089541.341    -6088276.74349  -4731076.60246  23089540.804    23089547.416
  22635309.000    -5514976.27849  -4276583.26046  22635308.752    22635316.591
  20301355.260   -19344712.88849 -14699285.05648  20301354.755    20301360.432
  22230358.367   -12322378.96349  -7609471.20047  22230357.754    22230364.188
  21178206.739   -14996878.77149 -11664670.45048  21178205.873    21178210.547
  22913259.643    -5219242.21949  -3804740.93046  22913258.871    22913265.321
 04  1 16  1 27  0.0000000  0  9G16G30G10G29G26G 6G18G21G17
  23845210.184    -1572004.45849  -1212241.23445  23845209.685    23845216.980
  22729418.705    -2094487.01249  -1608485.43745  22729418.102    22729425.599
  23374743.745    -3825553.99649  -2964279.53446  23374742.672    23374749.623
  23084516.550    -6114682.19649  -4751652.18746  23084515.953    23084522.558
  22623029.750    -5579503.25149  -4326863.89746  22623029.383    22623037.466
  20301722.926   -19342780.70849 -14697779.44048  20301722.440    20301728.072
  22213472.325   -12411115.83949  -7678616.74947  22213471.664    22213478.107
  21171332.092   -15033005.20249 -11692820.86148  21171331.222    21171335.810
  22925811.654    -5153281.07049  -3753342.60846  22925810.851    22925817.264
 04  1 16  1 27 30.0000000  0  9G16G30G10G29G26G 6G18G21G17
  23832768.066    -1637391.51749  -1263192.12045  23832767.278    23832774.467
  22748446.193    -1994497.48349  -1530571.54945  22748445.529    22748452.909
  23393866.255    -3725065.64849  -2885976.90346  23393865.153    23393871.847
  23079582.888    -6140607.34949  -4771853.53346  23079582.368    23079589.095
  22610830.127    -5643610.88649  -4376817.79446  22610829.680    22610838.081
  20302171.576   -19340423.11549 -14695942.33248  20302171.080    20302176.673
  22196646.026   -12499538.67849  -7747517.59947  22196645.342    22196651.770
  21164496.515   -15068925.89349 -11720810.97348  21164495.685    21164500.232
  22938377.436    -5087248.11049  -3701888.32946  22938376.622    22938382.946
 04  1 16  1 28  0.0000000  0  9G16G30G10G29G26G 6G18G21G17
  23820408.627    -1702341.80549  -1313802.66245  23820407.974    23820414.633
  22767503.688    -1894350.30849  -1452534.81345  22767502.916    22767510.228
  23413025.381    -3624384.52149  -2807524.03946  23413024.231    23413030.656
  23074740.098    -6166055.02849  -4791682.81646  23074739.641    23074746.524
  22598710.088    -5707300.42549  -4426445.88946  22598709.619    22598718.304
  20302700.525   -19337643.40949 -14693776.30148  20302700.033    20302705.567
  22179878.950   -12587649.88249  -7816175.61147  22179878.270    22179884.700
  21157699.194   -15104645.47649 -11748644.36647  21157698.390    21157702.998
  22950956.092    -5021147.92449  -3650381.65646  22950955.194    22950961.331
 04  1 16  1 28 30.0000000  0  9G16G30G10G29G26G 6G18G21G17
  23808133.969    -1766846.60049  -1364066.08545  23808133.302    23808139.351
  22786591.465    -1794041.88049  -1374372.43245  22786590.971    22786598.297
  23432221.712    -3523506.51349  -2728917.76346  23432220.671    23432226.992
  23069989.832    -6191016.75449  -4811133.44146  23069989.409    23069996.428
  22586671.672    -5770561.98949  -4475740.49646  22586671.253    22586679.993
  20303311.288   -19334433.98749 -14691275.43048  20303310.790    20303316.271
  22163172.886   -12675440.76949  -7884584.02047  22163172.175    22163178.582
  21150941.464   -15140157.27949 -11776315.85047  21150940.659    21150945.309
  22963548.597    -4954974.25749  -3598817.72246  22963547.677    22963553.659
 04  1 16  1 29  0.0000000  0  9G16G30G10G29G26G 6G18G21G17
  23795942.829    -1830909.57949  -1413985.22145  23795942.334    23795948.263
  22805708.729    -1693580.83549  -1296091.12345  22805708.177    22805715.422
  23451453.987    -3422440.35049  -2650164.88346  23451453.006    23451459.126
  23065331.289    -6215496.59649  -4830208.54946  23065330.924    23065338.090
  22574714.409    -5833398.19249  -4524703.63546  22574713.941    22574722.627
  20304002.908   -19330799.58449 -14688443.40848  20304002.412    20304007.850
  22146526.998   -12762915.56649  -7952746.13147  22146526.269    22146532.637
  21144222.138   -15175467.09649 -11803829.94847  21144221.340    21144226.025
  22976153.785    -4888733.22049  -3547201.30846  22976152.871    22976158.735
 04  1 16  1 29 30.0000000  0  9G16G30G10G29G26G 6G18G21G17
  23783836.548    -1894524.49249  -1463555.15845  23783836.065    23783842.864
  22824855.229    -1592965.69349  -1217689.75245  22824854.671    22824861.869
  23470722.509    -3321183.82249  -2571263.66646  23470721.468    23470727.366
  23060765.648    -6239488.50149  -4848903.47046  23060765.324    23060772.536
  22562839.564    -5895801.03149  -4573329.11946  22562839.002    22562847.615
  20304776.446   -19326734.74549 -14685275.97948  20304775.946    20304781.334
  22129942.381   -12850068.35649  -8020657.32947  22129941.660    22129947.952
  21137542.123   -15210570.87249 -11831183.49247  21137541.295    21137546.019
  22988772.693    -4822420.59449  -3495529.08846  22988771.755    22988777.451
 04  1 16  1 30  0.0000000  0  9G16G30G10G29G26G 6G18G21G17
  23771815.779    -1957691.25449  -1512775.94845  23771815.265    23771822.525
  22844030.119    -1492201.63749  -1139172.32345  22844029.368    22844036.566
  23490026.200    -3219742.05149  -2492218.09046  23490025.195    23490030.965
  23056292.918    -6262993.05349  -4867218.62446  23056292.491    23056299.727
  22551047.014    -5957769.79849  -4621616.35146  22551046.496    22551055.108
  20305631.664   -19322240.73549 -14681774.12148  20305631.154    20305636.494
  22113419.040   -12936899.03949  -8088317.52547  22113418.339    22113424.581
  21130900.904   -15245470.89249 -11858378.26247  21130900.032    21130904.763
  23001404.584    -4756039.27149  -3443803.35046  23001403.599    23001409.307
 04  1 16  1 30 30.0000000  0  9G16G30G10G29G26G 6G18G21G17
  23759880.884    -2020409.17149  -1561646.94645  23759880.267    23759887.640
  22863232.234    -1391292.68549  -1060541.98045  22863231.754    22863238.826
  23509364.390    -3118118.76449  -2413031.09046  23509363.426    23509369.041
  23051912.931    -6286009.66949  -4885153.56746  23051912.473    23051919.742
  22539337.610    -6019302.29849  -4669563.63546  22539337.132    22539345.530
  20306568.459   -19317317.65049 -14677937.92548  20306567.936    20306573.281
  22096957.205   -13023406.84049  -8155726.12947  22096956.485    22096962.675
  21124298.116   -15280168.49649 -11885415.30648  21124297.263    21124301.973
  23014049.268    -4689590.59549  -3392025.12046  23014048.236    23014053.973
 04  1 16  1 31  0.0000000  0  9G16G30G10G29G26G 6G18G21G17
  23748033.366    -2082671.09449  -1610162.64045  23748032.728    23748039.502
  22882462.425    -1290236.62149   -981797.04545  22882461.941    22882469.221
  23528737.631    -3016311.76749  -2333700.93046  23528736.665    23528741.973
  23047627.029    -6308531.70749  -4902703.14346  23047626.630    23047634.007
  22527712.813    -6080390.40549  -4717164.64546  22527712.360    22527720.681
  20307588.102   -19311959.33049 -14673762.59548  20307587.580    20307592.904
  22080557.943   -13109585.11649  -8222877.97147  22080557.288    22080563.443
  21117734.917   -15314658.56449 -11912290.63348  21117734.057    21117738.707
  23026707.507    -4623069.77949  -3340190.69146  23026706.583    23026712.491
 04  1 16  1 31 30.0000000  0  9G16G30G10G29G26G 6G18G21G17
  23736271.321    -2144485.05049  -1658329.32945  23736270.592    23736276.221
  22901718.196    -1189046.29749   -902947.49445  22901717.721    22901725.258
  23548143.562    -2914333.39149  -2254237.21246  23548142.501    23548147.772
  23043433.748    -6330567.50649  -4919873.80246  23043433.263    23043440.651
  22516171.204    -6141040.75849  -4764424.54046  22516170.730    22516179.225
  20308688.790   -19306174.73349 -14669255.08748  20308688.308    20308693.630
  22064220.015   -13195441.54849  -8289779.00147  22064219.309    22064225.459
  21111209.326   -15348950.81549 -11939011.81548  21111208.425    21111213.104
  23039377.559    -4556487.07749  -3288308.01546  23039376.652    23039382.812
 04  1 16  1 32  0.0000000  0  9G16G30G10G29G26G 6G18G21G17
  23724595.902    -2205840.18849  -1706138.44445  23724595.144    23724600.814
  22921000.838    -1087715.77549   -823988.68145  22921000.321    22921007.973
  23567583.277    -2812177.14149  -2174634.93946  23567582.192    23567587.398
  23039334.903    -6352106.38249  -4936657.27346  23039334.550    23039341.902
  22504714.945    -6201241.09349  -4811333.81246  22504714.691    22504723.376
  20309872.591   -19299953.82449 -14664407.59948  20309872.088    20309877.432
  22047945.333   -13280965.27349  -8356420.79247  22047944.626    22047950.715
  21104722.883   -15383036.95849 -11965572.39548  21104722.045    21104726.699
  23052061.088    -4489834.16049  -3236370.64646  23052060.260    23052066.571
 04  1 16  1 32 30.0000000  0  9G16G30G10G29G26G 6G18G21G17
  23713006.627    -2266741.53249  -1753593.94645  23713005.769    23713011.895
  22940308.394     -986254.92949   -744928.33545  22940307.875    22940315.396
  23587054.899    -2709852.85649  -2094901.68945  23587053.873    23587058.927
  23035329.732    -6373153.75349  -4953057.73446  23035329.324    23035336.672
  22493344.020    -6260995.31149  -4857895.42646  22493343.832    22493352.301
  20311138.152   -19293302.80649 -14659224.95648  20311137.672    20311143.041
  22031732.957   -13366161.28549  -8422807.21147  22031732.279    22031738.334
  21098274.421   -15416923.81649 -11991977.68448  21098273.549    21098278.178
  23064756.932    -4423117.89649  -3184383.90246  23064755.982    23064762.285
 04  1 16  1 33  0.0000000  0  9G16G30G10G29G26G 6G18G21G17
  23701505.401    -2327178.11549  -1800687.27345  23701504.631    23701511.595
  22959642.111     -884657.57349   -665761.59945  22959641.361    22959648.818
  23606559.600    -2607354.17749  -2015032.58545  23606558.520    23606563.679
  23031420.059    -6393699.39549  -4969067.24146  23031419.640    23031426.984
  22482060.413    -6320291.38349  -4904100.03746  22482060.233    22482068.275
  20312487.534   -19286211.68749 -14653699.38848  20312487.038    20312492.419
  22015584.897   -13451019.43949  -8488930.36947  22015584.238    22015590.246
  21091865.578   -15450602.47049 -12018220.74748  21091864.706    21091869.307
  23077466.178    -4356329.76249  -3132341.17046  23077465.344    23077471.618
 04  1 16  1 33 30.0000000  0  9G16G30G10G29G26G 6G18G21G17
  23690091.884    -2387154.84049  -1847422.30645  23690090.962    23690098.480
  22978999.600     -782933.62749   -586496.23745  22978998.950    22979006.241
  23626095.629    -2504690.55949  -1935034.94545  23626094.556    23626099.766
  23027604.581    -6413748.52449  -4984689.86246  23027604.222    23027611.750
  22470863.342    -6379133.08349  -4949950.57946  22470863.115    22470870.735
  20313919.481   -19278686.47549 -14647835.56548  20313918.997    20313924.378
  21999500.229   -13535544.26649  -8554793.78747  21999499.603    21999505.578
  21085494.995   -15484079.99249 -12044307.07647  21085494.126    21085498.719
  23090187.876    -4289477.16049  -3080248.20246  23090186.986    23090193.228
 04  1 16  1 34  0.0000000  0  9G16G30G10G29G26G 6G18G21G17
  23678766.783    -2446667.24649  -1893795.55645  23678765.872    23678773.438
  22998381.255     -681083.30949   -507132.39445  22998380.522    22998387.719
  23645663.076    -2401862.01049  -1854908.78945  23645661.929    23645667.364
  23023884.389    -6433296.98549  -4999922.35446  23023884.117    23023891.791
  22459753.577    -6437514.72249  -4995442.65946  22459753.366    22459760.795
  20315434.713   -19270723.71549 -14641630.78748  20315434.238    20315439.628
  21983479.700   -13619731.84449  -8620394.41147  21983479.144    21983485.095
  21079163.136   -15517353.88649 -12070234.73547  21079162.240    21079166.855
  23102922.156    -4222557.52249  -3028102.98746  23102921.340    23102927.461
 04  1 16  1 34 30.0000000  0 10G16G30G10G29G26G 6G18G21G15G17
  23667529.772    -2505717.53249  -1939808.68745  23667528.751    23667536.312
  23017785.372     -579113.64249   -427675.55945  23017784.799    23017792.037
  23665260.583    -2298875.10249  -1774659.23145  23665259.512    23665265.124
  23020259.019    -6452347.39149  -5014766.73146  23020258.826    23020266.601
  22448731.276    -6495437.04449  -5040576.81346  22448731.007    22448738.392
  20317032.659   -19262326.34949 -14635087.35648  20317032.151    20317037.536
  21967523.158   -13703583.71249  -8685733.43347  21967522.541    21967528.476
  21072869.167   -15550428.34949 -12096006.98647  21072868.307    21072872.943
                   -149278.28149   -102167.30143
  23115668.371    -4155575.26249  -2975908.99546  23115667.517    23115673.873
 04  1 16  1 35  0.0000000  0 10G16G30G10G29G26G 6G18G21G15G17
  23656382.298    -2564298.30949  -1985456.00545  23656381.179    23656388.368
  23037212.948     -477022.09149   -348123.76545  23037212.269    23037219.329
  23684888.912    -2195727.07649  -1694284.14245  23684887.843    23684893.584
  23016729.790    -6470892.85649  -5029217.66446  23016729.560    23016737.495
  22437797.992    -6552891.74449  -5085346.61146  22437797.736    22437805.070
  20318714.446   -19253488.15749 -14628200.43048  20318713.957    20318719.371
  21951631.674   -13787093.36649  -8750805.80147  21951631.112    21951637.034
  21066614.249   -15583298.00949 -12121619.65747  21066613.337    21066618.029
                   -227628.29149   -163219.86043
  23128427.353    -4088525.56949  -2923662.43646  23128426.594    23128432.870
 04  1 16  1 35 30.0000000  0 10G16G30G10G29G26G 6G18G21G15G17
  23645324.101    -2622410.07449  -2030737.83345  23645322.863    23645329.686
  23056662.595     -374813.86449   -268481.03345  23056662.105    23056668.888
  23704547.014    -2092422.73149  -1613787.21945  23704545.904    23704551.692
  23013296.694    -6488934.22849  -5043275.78346  23013296.327    23013304.285
  22426953.873    -6609878.06149  -5129751.41746  22426953.613    22426960.947
  20320479.839   -19244210.61249 -14620971.14948  20320479.355    20320484.742
  21935805.368   -13870261.26249  -8815611.86147  21935804.699    21935810.655
  21060397.708   -15615965.20049 -12147074.56247  21060396.861    21060401.598
                   -305895.25249   -224209.19143
  23141198.779    -4021410.49949  -2871364.93946  23141197.873    23141204.322
 04  1 16  1 36  0.0000000  0 10G16G30G10G29G26G 6G18G21G15G17
  23634355.259    -2680051.45549  -2075653.11645  23634354.327    23634360.942
  23076133.625     -272492.17549   -188749.89345  23076133.445    23076139.993
  23724234.326    -1988965.06849  -1533170.84545  23724233.305    23724238.846
  23009959.556    -6506470.49049  -5056940.33146  23009959.187    23009967.131
  22416199.348    -6666393.23449  -5173789.11346  22416199.098    22416206.355
  20322329.010   -19234493.19749 -14613399.11948  20322328.525    20322333.852
  21920044.402   -13953085.37149  -8880150.04547  21920043.700    21920049.673
  21054219.811   -15648430.45949 -12172372.11247  21054218.888    21054223.591
                   -384079.269 9    281074.167 1
  23153982.383    -3954230.86649  -2819017.13146  23153981.533    23153988.243
 04  1 16  1 36 30.0000000  0 10G16G30G10G29G26G 6G18G21G15G17
  23623475.526    -2737223.71949  -2120202.85145  23623474.529    23623481.355
  23095625.676     -170063.09849   -108935.07645  23095625.260    23095631.612
  23743949.922    -1885359.82349  -1452439.46745  23743948.806    23743953.867
  23006718.161    -6523503.64249  -5070212.83146  23006717.781    23006725.663
  22405534.512    -6722437.44649  -5217459.81046  22405534.262    22405541.282
  20324261.459   -19224338.09349 -14605486.02248  20324260.937    20324266.236
  21904348.612   -14035567.54249  -8944421.77547  21904347.836    21904353.794
  21048079.559   -15680697.02249 -12197514.83547  21048078.658    21048083.401
                   -462183.37649   -137085.45243
  23166777.744    -3886990.23849  -2766621.79546  23166776.874    23166783.739
 04  1 16  1 37  0.0000000  0 10G16G30G10G29G26G 6G18G21G15G17
  23612685.575    -2793924.63249  -2164385.29245  23612684.470    23612691.673
  23115137.711      -67529.06349    -29038.47545  23115137.093    23115143.193
  23763693.107    -1781608.89449  -1371594.56545  23763691.918    23763696.866
  23003572.945    -6540031.47249  -5083091.57746  23003572.578    23003580.334
  22394960.003    -6778007.02849  -5260760.67046  22394959.802    22394966.470
  20326277.355   -19213744.09849 -14597230.93648  20326276.851    20326282.125
  21888718.143   -14117705.90249  -9008425.59847  21888717.347    21888723.283
  21041977.251   -15712764.30149 -12222502.27247  21041976.353    21041981.090
                   -540207.20049   -197883.36143
  23179584.841    -3819688.39949  -2714178.75946  23179584.048    23179590.994
 04  1 16  1 37 30.0000000  0 10G16G30G10G29G26G 6G18G21G15G17
  23601985.934    -2850150.63049  -2208197.66645  23601984.727    23601992.721
  23134668.875       35108.56349     50938.84945  23134668.491    23134674.470
  23783463.616    -1677713.53549  -1290637.10445  23783462.612    23783467.530
  23000524.341    -6556051.28049  -5095574.47246  23000524.098    23000531.677
  22384476.739    -6833097.68149  -5303688.34746  22384476.430    22384482.833
  20328377.260   -19202708.76549 -14588631.95148  20328376.758    20328382.009
  21873153.728   -14199497.02849  -9072158.85347  21873152.922    21873158.853
  21035913.105   -15744631.14749 -12247333.52847  21035912.241    21035916.966
                   -618149.02349   -258616.99644                  24148740.056
  23192403.741    -3752324.01949  -2661686.99846  23192402.974    23192409.815
 04  1 16  1 38  0.0000000  0 10G16G30G10G29G26G 6G18G21G15G17
  23591377.331    -2905896.45849  -2251635.84945  23591376.280    23591384.857
  23154219.860      137850.64649    130997.60045  23154219.838    23154225.834
  23803261.754    -1573672.56949  -1209566.21745  23803260.746    23803266.044
  22997573.506    -6571558.19049  -5107657.70146  22997573.161    22997580.606
  22374085.745    -6887702.53049  -5346237.47546  22374085.383    22374091.746
  20330562.065   -19191227.67249 -14579685.61948  20330561.535    20330566.714
  21857656.573   -14280934.89349  -9135616.84147  21857655.720    21857661.637
  21029887.924   -15776293.80749 -12272005.67047  21029887.002    21029891.699
  24133917.336     -696004.95049   -319283.86744  24133917.007    24133925.214
  23205235.298    -3684893.79349  -2609143.90646  23205234.601    23205241.512
 04  1 16  1 38 30.0000000  0 10G16G30G10G29G26G 6G18G21G15G17
  23580860.875    -2961161.09549  -2294699.17545  23580859.930    23580868.007
  23173790.175      240693.68049    211134.96745  23173790.359    23173796.156
  23823086.928    -1469488.83949  -1128384.05245  23823086.241    23823091.710
  22994720.525    -6586551.28549  -5119340.55646  22994720.127    22994727.460
  22363787.565    -6941819.37649  -5388406.36246  22363787.282    22363793.673
  20332831.713   -19179300.54949 -14570391.72548  20332831.174    20332836.303
  21842226.799   -14362018.69749  -9198798.93747  21842225.912    21842231.804
  21023901.294   -15807753.16849 -12296519.40247  21023900.397    21023905.104
  24119118.459     -773775.70549   -379884.36445  24119117.782    24119125.834
  23218079.268    -3617398.45449  -2556550.11546  23218078.478    23218085.521
 04  1 16  1 39  0.0000000  0 10G16G30G10G29G26G 6G18G21G15G17
  23570435.934    -3015944.41249  -2337387.39945  23570434.927    23570442.526
  23193379.138      343632.95249    291347.34645  23193378.948    23193384.851
  23842938.766    -1365166.89649  -1047094.20745  23842938.077    23842943.669
  22991965.246    -6601031.16249  -5130623.51146  22991964.784    22991971.987
  22353582.375    -6995446.95749  -5430194.00646  22353582.097    22353588.605
  20335185.980   -19166928.52249 -14560751.15848  20335185.424    20335190.559
  21826864.297   -14442748.49949  -9261705.19247  21826863.437    21826869.332
  21017953.030   -15839010.97449 -12320876.08547  21017952.165    21017956.925
  24104335.241     -851463.01049   -440419.82945  24104334.207    24104342.438
  23230935.350    -3549839.96249  -2503907.08046  23230934.579    23230941.324
 04  1 16  1 39 30.0000000  0 10G16G30G10G29G26G 6G18G21G15G17
  23560102.681    -3070246.17549  -2379700.41045  23560101.760    23560108.679
  23212985.491      446664.18049    371631.34745  23212985.145    23212991.071
  23862816.132    -1260710.92449   -965699.90445  23862815.315    23862821.009
  22989307.552    -6614997.99649  -5141506.69046  22989307.054    22989314.057
  22343470.649    -7048583.92549  -5471599.35246  22343470.447    22343476.864
  20337624.785   -19154112.21349 -14550764.39448  20337624.236    20337629.385
  21811569.241   -14523124.30249  -9324335.59947  21811568.336    21811574.211
  21012042.999   -15870068.49249 -12345076.69947  21012042.106    21012046.854
  24089567.441     -929068.17849   -500891.32344  24089565.441    24089574.957
  23243803.080    -3482220.23449  -2451216.35646  23243802.230    23243809.047
 04  1 16  1 40  0.0000000  0 10G16G30G10G29G26G 6G18G21G15G17
  23549862.067    -3124061.58149  -2421634.46145  23549861.132    23549867.717
  23232609.419      549787.52849    451987.15645  23232609.059    23232614.781
  23882719.283    -1156120.28249   -884200.66645  23882718.289    23882724.136
  22986748.214    -6628447.45149  -5151986.71946  22986747.836    22986754.629
  22333453.717    -7101224.12549  -5512617.60946  22333453.422    22333459.678
  20340148.891   -19140847.74949 -14540428.41748  20340148.348    20340153.522
  21796342.405   -14603141.33949  -9386686.44847  21796341.507    21796347.392
  21006171.452   -15900923.15549 -12369119.24747  21006170.571    21006175.335
  24074815.670    -1006588.10049   -561296.34544  24074813.615    24074823.115
  23256683.099    -3414536.23049  -2398475.52146  23256682.234    23256688.664
 04  1 16  1 40 30.0000000  0 10G16G30G10G29G26G 6G18G21G15G17
  23539713.500    -3177388.47949  -2463187.76545  23539712.836    23539720.275
  23252249.913      653000.63849    532412.94545  23252249.942    23252255.659
  23902647.377    -1051396.95049   -802598.04845  23902646.293    23902652.163
  22984287.516    -6641378.12149  -5162062.49246  22984287.199    22984293.804
  22323531.858    -7153364.27349  -5553246.20746  22323531.531    22323537.563
  20342758.462   -19127134.05549 -14529742.39048  20342757.942    20342763.123
  21781184.149   -14682797.43049  -9448756.04247  21781183.301    21781189.241
  21000338.686   -15931574.52849 -12393003.38147  21000337.809    21000342.531
  24060079.813    -1084022.26749   -621634.57344  24060077.806    24060087.491
  23269575.156    -3346787.70649  -2345684.44946  23269574.299    23269580.748
 04  1 16  1 41  0.0000000  0 10G16G30G10G29G26G 6G18G21G15G17
  23529658.145    -3230230.54249  -2504363.34645  23529657.467    23529665.478
  23271906.531      756295.19749    612902.18045  23271906.455    23271911.878
  23922598.974     -946548.50849   -720897.94545  23922598.190    23922604.198
  22981924.836    -6653793.92149  -5171737.07146  22981924.475    22981930.899
  22313704.772    -7205006.73149  -5593486.98646  22313704.364    22313710.218
  20345452.716   -19112975.50349 -14518709.72348  20345452.187    20345457.372
  21766093.897   -14762096.33249  -9510547.30947  21766093.097    21766099.107
  20994543.576   -15962027.74949 -12416733.11847  20994542.711    20994547.416
  24045358.903    -1161375.70248   -681909.85544                  24045357.367
  23282478.515    -3278980.59949  -2292847.69146  23282477.606    23282484.059
 04  1 16  1 41 30.0000000  0 10G16G30G10G29G26G 6G18G21G15G17
  23519695.943    -3282582.71649  -2545157.18845  23519695.282    23519703.221
  23291578.381      859671.87249    693455.39245  23291578.276    23291583.707
  23942574.996     -841574.39249   -639099.90845  23942574.171    23942580.341
  22979660.976    -6665690.19449  -5181006.82246  22979660.601    22979667.006
  22303973.285    -7256145.42749  -5633335.24146  22303972.931    22303978.757
  20348232.389   -19098368.03249 -14507327.24448  20348231.872    20348237.085
  21751072.673   -14841032.51649  -9572055.93847  21751071.926    21751077.995
  20988786.782   -15992279.64349 -12440305.97547  20988785.936    20988790.564
  24030653.576    -1238645.13548   -742119.74444                  24030651.565
  23295393.458    -3211111.26049  -2239962.44846  23295392.625    23295399.217
 04  1 16  1 42  0.0000000  0  9G16G30G10G29G26G 6G18G21G17
  23509829.014    -3334437.98149  -2585563.86645  23509828.224    23509835.103
  23311266.050      963133.11049    774074.52545  23311266.035    23311271.639
  23962574.927     -736471.98149   -557201.88945  23962574.206    23962580.767
  22977497.307    -6677060.70649  -5189866.89246  22977496.860    22977503.109
  22294339.179    -7306771.98949  -5672784.44346  22294338.881    22294344.780
  20351098.615   -19083305.69449 -14495590.32348  20351098.088    20351103.315
  21736121.770   -14919599.57249  -9633276.93247  21736121.027    21736127.131
  20983069.397   -16022324.89149 -12463717.80347  20983068.534    20983073.008
  23308321.524    -3143174.75049  -2187024.87446  23308320.625    23308327.312
 04  1 16  1 42 30.0000000  0  9G16G30G10G29G26G 6G18G21G17
  23500055.097    -3385798.83949  -2625585.23345  23500054.461    23500061.380
  23330968.599     1066672.02449    854754.12145  23330968.180    23330974.684
  23982598.271     -631247.15949   -475208.51044  23982597.503    23982604.187
  22975433.159    -6687908.20749  -5198319.42746  22975432.739    22975438.848
  22284802.461    -7356887.68649  -5711835.55846  22284802.083    22284807.981
  20354050.794   -19067791.68149 -14483501.46248  20354050.274    20354055.511
  21721240.810   -14997799.60849  -9694211.94847  21721240.018    21721246.118
  20977390.525   -16052167.58049 -12486971.79748  20977389.636    20977394.052
  23321261.498    -3075175.22049  -2134038.19346  23321260.527    23321267.001
 04  1 16  1 43  0.0000000  0  9G16G30G10G29G26G 6G18G21G17
  23490374.805    -3436669.29749  -2665224.53245  23490374.163    23490380.622
  23350684.176     1170279.96049    935487.50745  23350683.879    23350690.327
  24002643.181     -525908.29049   -393126.26644  24002642.347    24002649.390
  22973467.679    -6698237.45749  -5206368.11446  22973467.189    22973473.200
  22275362.309    -7406495.42549  -5750490.86346  22275361.988    22275367.897
  20357087.914   -19051831.27649 -14471064.74748  20357087.402    20357092.657
  21706428.859   -15075636.78249  -9754864.20347  21706428.063    21706434.161
  20971748.961   -16081813.55449 -12510072.50448  20971748.181    20971752.597
  23334212.344    -3007118.82349  -2081007.19646  23334211.302    23334217.710
 04  1 16  1 43 30.0000000  0  9G16G30G10G29G26G 6G18G21G17
  23480788.527    -3487045.24649  -2704478.43745  23480787.829    23480794.405
  23370412.033     1273956.69549   1016274.52944  23370412.770    23370419.053
  24022710.166     -420455.30949   -310955.06744  24022709.493    24022716.765
  22971601.395    -6708044.77049  -5214010.10046  22971600.931    22971606.870
  22266019.898    -7455589.94849  -5788746.24246  22266019.585    22266025.372
  20360210.649   -19035421.08149 -14458277.55248  20360210.130    20360215.427
  21691686.755   -15153107.06549  -9815230.56647  21691685.938    21691692.023
  20966145.539   -16111260.13949 -12533017.83748  20966144.710    20966149.042
  23347174.212    -2939002.97349  -2027929.89646  23347173.199    23347179.732
 04  1 16  1 44  0.0000000  0  9G16G30G10G29G26G 6G18G21G17
  23471296.955    -3536924.99549  -2743345.73145  23471296.209    23471302.496
  23390153.408     1377699.56349   1097113.10044  23390154.057    23390160.385
  24042798.557     -314890.67149   -228696.89344  24042797.728    24042805.307
  22969834.679    -6717328.99249  -5221244.49846  22969834.215    22969839.879
  22256775.527    -7504168.40249  -5826599.49746  22256775.295    22256781.145
  20363419.048   -19018560.43949 -14445139.36648  20363418.539    20363423.881
  21677014.905   -15230208.37049  -9875309.42047  21677014.035    21677020.068
  20960579.972   -16140507.50849 -12555807.94548  20960579.093    20960583.428
  23360147.474    -2870827.77949  -1974806.33746  23360146.627    23360152.652
 04  1 16  1 44 30.0000000  0 10G16G30G10G29G26G 6G18G21G15G17
  23461899.823    -3586307.23449  -2781825.31645  23461899.165    23461905.593
  23409907.171     1481505.50549   1178000.79644  23409906.530    23409913.808
  24062907.812     -209216.89749   -146353.68144  24062906.776    24062914.676
  22968167.479    -6726089.22849  -5228070.60446  22968167.039    22968172.678
  22247630.012    -7552227.92549  -5864048.40046  22247629.796    22247635.720
  20366713.322   -19001248.84949 -14431649.78848  20366712.798    20366718.177
  21662413.406   -15306939.52349  -9935099.85247  21662412.574    21662418.601
  20955052.256   -16169555.64349 -12578442.80648  20955051.430    20955055.742
                  -1630182.99449  -1259998.26443
  23373131.781    -2802593.89449  -1921637.05645  23373130.938    23373136.987
 04  1 16  1 45  0.0000000  0 10G16G30G10G29G26G 6G18G21G15G17
  23452598.234    -3635189.21749  -2819915.13245  23452597.464    23452603.703
  23429672.383     1585372.90849   1258936.33744  23429671.595    23429679.094
  24083037.239     -103434.95848    -63926.19444  24083036.100    24083044.257
  22966600.589    -6734323.37749  -5234486.75946  22966600.134    22966605.486
  22238584.081    -7599764.86849  -5901090.09746  22238583.749    22238589.744
  20370093.687   -18983484.59349 -14417807.48548  20370093.178    20370098.582
  21647882.842   -15383297.85349  -9994599.76347  21647881.993    21647888.012
  20949562.604   -16198403.79749 -12600921.83748  20949561.760    20949566.082
                  -1706865.77649  -1319749.03843
  23386127.586    -2734299.85349  -1868420.89545  23386126.842    23386132.728
 04  1 16  1 45 30.0000000  0 10G16G30G10G29G26G 6G18G21G15G17
  23443391.109    -3683572.34749  -2857616.19345  23443390.439    23443396.851
  23449447.813     1689295.91548   1339915.26944  23449446.856    23449454.847
  24103186.428        2449.38249     18581.13644  24103185.772    24103193.257
  22965133.281    -6742033.36349  -5240494.48446  22965132.909    22965138.211
  22229637.605    -7646779.43249  -5937724.73546  22229637.232    22229643.240
  20373559.820   -18965269.91149 -14403614.21048  20373559.298    20373564.728
  21633422.829   -15459284.70949 -10053810.21947  21633422.104    21633428.109
  20944110.487   -16227054.68849 -12623247.14948  20944109.635    20944113.951
                  -1783467.45649  -1175055.11943
  23399134.183    -2665949.07149  -1815160.53545  23399133.327    23399139.247
 04  1 16  1 46  0.0000000  0 10G16G30G10G29G26G 6G18G21G15G17
  23434279.842    -3731452.64549  -2894925.45145  23434279.007    23434285.378
  23469233.422     1793274.19148   1420937.30744  23469233.059    23469241.344
  24123355.528      108436.39049    101168.44444  24123354.748    24123361.517
  22963766.651    -6749215.56849  -5246090.95546  22963766.215    22963771.338
  22220791.486    -7693266.31349  -5973948.20646  22220791.027    22220797.058
  20377112.221   -18946601.75649 -14389067.57348  20377111.709    20377117.160
  21619034.308   -15534895.85149 -10112727.91447  21619033.665    21619039.688
  20938696.381   -16255505.70249 -12645416.71148  20938695.533    20938699.832
                  -1859985.48249  -1234679.97443
  23412152.194    -2597539.37149  -1761854.25645  23412151.454    23412157.174
 04  1 16  1 46 30.0000000  0 10G16G30G10G29G26G 6G18G21G15G17
  23425264.000    -3778831.69449  -2931844.12545  23425263.237    23425269.221
  23489029.754     1897302.08048   1501997.93044  23489028.455    23489037.441
  24143543.380      214520.32349    183831.25444  24143542.022    24143548.484
  22962499.843    -6755872.27149  -5251277.92946  22962499.442    22962504.442
  22212045.707    -7739225.94149  -6009760.80946  22212045.172    22212051.251
  20380750.428   -18927482.55449 -14374169.47348  20380749.940    20380755.438
  21604716.983   -15610133.58949 -10171354.63547  21604716.346    21604722.342
  20933319.738   -16283760.15049 -12667433.11148  20933318.885    20933323.193
                  -1936422.77049  -1294241.33043
  23425180.826    -2529073.48449  -1708504.20845  23425179.986    23425185.428
 04  1 16  1 47  0.0000000  0 10G16G30G10G29G26G 6G18G21G15G17
  23416343.684    -3825708.27049  -2968371.24445  23416342.943    23416348.726
  23508834.545     2001376.41348   1583094.75944  23508833.810    23508841.590
  24163748.723      320698.87249    266567.81544  24163747.286    24163753.161
  22961333.218    -6762002.70349  -5256054.83646  22961332.850    22961337.751
  22203400.402    -7784655.83149  -6045160.64946  22203399.996    22203406.185
  20384474.529   -18907912.10949 -14358919.75448  20384474.032    20384479.578
  21590471.148   -15684996.14749 -10229689.01647  21590470.399    21590476.362
  20927980.432   -16311818.21349 -12689296.48648  20927979.591    20927983.920
                  -2012779.50649  -1353739.92545                  23869968.563
  23438219.863    -2460552.00049  -1655110.81145  23438219.188    23438224.589
 04  1 16  1 47 30.0000000  0 10G16G30G10G29G26G 6G18G21G15G17
  23407519.926    -3872077.20549  -3004502.82445  23407519.261    23407524.754
  23528647.898     2105498.01048   1664228.45844  23528648.007    23528655.851
  24183972.484      426973.32849    349379.11544  24183970.666    24183976.691
  22960267.642    -6767602.23749  -5260418.04046  22960267.228    22960271.967
  22194857.212    -7829549.83449  -6080142.91446  22194856.811    22194863.123
  20388285.321   -18887886.18449 -14343315.12148  20388284.834    20388290.375
  21576297.632   -15759478.34949 -10287727.01047  21576296.841    21576302.787
  20922679.283   -16339676.07449 -12711003.86448  20922678.451    20922682.740
  23855451.383    -2089052.06249  -1413172.90945  23855450.016    23855454.592
  23451270.458    -2391971.39949  -1601671.36745  23451269.574    23451274.952
 04  1 16  1 48  0.0000000  0 10G16G30G10G29G26G 6G18G21G15G17
  23398793.896    -3917933.44349  -3040234.88645  23398793.143    23398798.517
  23548471.373     2209667.92248   1745399.75244  23548471.053    23548478.936
  24204214.838      533344.98749    432266.15944  24204212.881    24204218.645
  22959303.909    -6772666.38249  -5264364.06346  22959303.525    22959308.223
  22186417.177    -7873901.50649  -6114702.58746  22186416.834    22186423.251
  20392183.635   -18867400.50549 -14327352.23648  20392183.155    20392188.697
  21562197.490   -15833574.77649 -10345464.40647  21562196.712    21562202.626
  20917416.898   -16367330.32449 -12732552.58048  20917416.024    20917420.287
  23840953.841    -2165236.37449  -1472537.14845  23840951.803    23840957.472
  23464332.753    -2323328.10349  -1548183.05245  23464332.150    23464337.052
 04  1 16  1 48 30.0000000  0 10G16G30G10G29G26G 6G18G21G15G17
  23390164.810    -3963279.36849  -3075569.28345  23390164.176    23390169.525
  23568302.394     2313879.32649   1826603.42744  23568302.122    23568309.793
  24224474.040      639807.56149    515224.06144  24224472.126    24224478.198
  22958441.563    -6777198.17649  -5267895.26746  22958441.142    22958445.701
  22178080.238    -7917712.24249  -6148840.74246  22178079.935    22178086.360
  20396168.849   -18846458.33949 -14311033.64648  20396168.327    20396173.852
  21548170.245   -15907288.18649 -10402903.34047  21548169.423    21548175.335
  20912192.366   -16394785.03049 -12753945.81248  20912191.491    20912195.794
  23826471.783    -2241336.53149  -1531835.79745  23826470.217    23826475.885
  23477406.387    -2254626.21749  -1494649.07945  23477405.650    23477410.477
 04  1 16  1 49  0.0000000  0 10G16G30G10G29G26G 6G18G21G15G17
  23381633.316    -4008112.00449  -3110503.72045  23381632.702    23381638.200
  23588141.190     2418131.21849   1907838.68344  23588141.038    23588148.595
  24244750.537      746360.40249    598252.24244  24244749.380    24244754.225
  22957680.957    -6781195.37749  -5271009.90846  22957680.618    22957684.947
  22169847.116    -7960977.71249  -6182554.02146  22169846.874    22169853.183
  20400241.268   -18825057.59349 -14294357.71548  20400240.747    20400246.271
  21534216.390   -15980615.34849 -10460041.30747  21534215.623    21534221.530
  20907006.219   -16422038.06249 -12775181.89148  20907005.401    20907009.593
  23812006.979    -2317350.78349  -1591067.53945  23812005.442    23812011.074
  23490491.336    -2185864.19849  -1441068.27545  23490490.681    23490495.259
 04  1 16  1 49 30.0000000  0 10G16G30G10G29G26G 6G18G21G15G17
  23373199.077    -4052434.73949  -3145040.82645  23373198.372    23373203.891
  23607985.849     2522416.09948   1989099.62344  23607985.812
  24265042.950      852996.41649    681345.26444  24265041.380    24265046.842
  22957021.397    -6784661.51949  -5273710.72846  22957020.965    22957025.211
  22161717.379    -8003700.14449  -6215844.13946  22161717.102    22161723.289
  20404400.158   -18803202.54449 -14277327.79248  20404399.668    20404405.161
  21520335.581   -16053559.05349 -10516880.47447  21520334.822    21520340.667
  20901857.605   -16449094.37349 -12796264.67948  20901856.756    20901860.903
  23797557.932    -2393283.55149  -1650235.76145  23797555.885    23797561.723
  23503586.927    -2117046.87649  -1387444.34545  23503586.207    23503590.456
 04  1 16  1 50  0.0000000  0 10G16G30G10G29G26G 6G18G21G15G17
  23364863.047    -4096240.63849  -3179175.21345  23364862.342    23364867.776
  23627837.421     2626736.35448   2070388.13044  23627836.941
  24285351.421      959718.53948    764505.39144  24285350.233    24285355.533
  22956463.928    -6787590.63549  -5275993.09346  22956463.501    22956467.764
  22153692.335    -8045871.60149  -6248704.94146  22153692.069    22153698.264
  20408646.651   -18780887.39849 -14259939.34748  20408646.118    20408651.612
  21506529.021   -16126112.96849 -10573415.90947  21506528.250    21506534.018
  20896747.389   -16475948.72949 -12817190.10748  20896746.543    20896750.636
  23783124.474    -2469129.67049  -1709336.49745  23783122.517    23783128.629
  23516694.004    -2048168.99449  -1333773.24545  23516693.312    23516697.530
 04  1 16  1 50 30.0000000  0 11G16G30G10G22G29G26G 6G18G21G15G17
  23356624.497    -4139534.27649  -3212910.43945  23356623.767    23356629.092
  23647693.599     2731083.54848   2151697.61544  23647694.020    23647701.702
  24305674.965     1066518.78448    847726.35444  24305673.763    24305678.797
                  -1594168.69149  -1219401.02643
  22956007.753    -6789987.76449  -5277860.93846  22956007.267    22956011.538
  22145771.396    -8087495.35749  -6281138.96846  22145771.122    22145777.438
  20412979.640   -18758117.28749 -14242196.38648  20412979.139    20412984.634
  21492795.791   -16198281.56949 -10629651.10347  21492795.008    21492800.709
  20891674.574   -16502606.75849 -12837962.55348  20891673.705    20891677.757
  23768706.535    -2544894.95749  -1768374.22345  23768704.737    23768711.249
  23529811.493    -1979236.40849  -1280059.50245  23529810.632    23529815.129
 04  1 16  1 51  0.0000000  0 10G16G30G10G29G26G 6G18G21G15G17
  23348484.717    -4182307.80549  -3246240.38745  23348484.131    23348489.284
  23667555.572     2835461.90748   2233031.41844  23667556.672
  24326014.237     1173401.56348    931011.67944  24326013.331    24326017.858
  22955654.240    -6791845.35649  -5279308.35546  22955653.831    22955658.146
  22137956.422    -8128562.22949  -6313139.06346  22137956.172    22137962.657
  20417400.597   -18734885.15149 -14224093.40348  20417400.078    20417405.556
  21479137.458   -16270056.50949 -10685579.54547  21479136.653    21479142.307
  20886640.309   -16529061.71949 -12858576.76448  20886639.440    20886643.485
  23754305.343    -2620572.38449  -1827343.52445  23754304.067    23754310.443
  23542940.190    -1910242.45949  -1226297.94445  23542939.302    23542944.389
 04  1 16  1 51 30.0000000  0 10G16G30G10G29G26G 6G18G21G15G17
  23340443.603    -4224563.96349  -3279167.17545  23340443.037    23340448.028
  23687423.462     2939864.26848   2314383.95644  23687424.426    23687430.320
  24346367.189     1280360.36348   1014356.23144                  24346366.172
  22955402.775    -6793166.88549  -5280338.06946  22955402.326    22955406.649
  22130247.021    -8169073.81149  -6344706.46846  22130246.799    22130253.492
  20421908.730   -18711194.62449 -14205633.23648  20421908.227    20421913.714
  21465553.420   -16341440.78749 -10741203.58547  21465552.657    21465558.281
  20881643.954   -16555317.81649 -12879036.01748  20881643.069    20881647.066
  23739920.604    -2696166.03449  -1886247.53345  23739919.147    23739925.995
  23556079.986    -1841191.37549  -1172491.87545  23556079.116    23556084.568
 04  1 16  1 52  0.0000000  0 10G16G30G10G29G26G 6G18G21G15G17
  23332500.487    -4266305.36049  -3311692.84145  23332499.877    23332504.882
  23707294.895     3044284.03748   2395749.97244  23707295.287    23707300.119
  24366734.253     1387388.96248   1097755.15844  24366732.594    24366738.924
  22955252.677    -6793955.52849  -5280952.54546  22955252.190    22955256.541
  22122643.098    -8209031.71249  -6375842.42346  22122642.863    22122649.740
  20426503.426   -18687049.25749 -14186818.63948  20426502.956    20426508.414
  21452043.325   -16412436.35549 -10796524.73247  21452042.630    21452048.207
  20876684.616   -16581379.00949 -12899343.39548  20876683.723    20876687.753
  23725550.792    -2771679.64949  -1945089.19145  23725549.433    23725556.693
  23569229.758    -1772087.40349  -1118644.60945  23569228.803    23569234.701
 04  1 16  1 52 30.0000000  0 11G16G30G10G22G29G26G 6G18G21G15G17
  23324657.076    -4307522.73849  -3343810.20445  23324656.357    23324661.390
  23727170.182     3148726.34549   2477133.57344  23727170.245
  24387115.386     1494493.29248   1181213.13844                  24387113.862
                  -1482517.21949  -1138397.35443
  22955205.595    -6794202.68549  -5281145.07546  22955205.102    22955209.420
  22115146.589    -8248425.44349  -6406538.76846  22115146.413    22115153.351
  20431186.290   -18662440.83749 -14167643.22548  20431185.794    20431191.224
  21438609.026   -16483034.14249 -10851535.91447  21438608.340    21438613.854
  20871763.881   -16607237.44849 -12919492.78648  20871762.969    20871767.016
  23711198.540    -2847105.17248  -2003862.15344  23711197.028    23711203.988
  23582390.700    -1702922.49449  -1064749.86045  23582389.932    23582396.580
 04  1 16  1 53  0.0000000  0 11G16G30G10G22G29G26G 6G18G21G15G17
  23316911.977    -4348223.14249  -3375524.73345  23316911.389    23316916.401
  23747048.101     3253180.20949   2558526.16944  23747047.061    23747050.859
  24407508.379     1601662.41758   1264721.63744                  24407506.597
                  -1587037.61249  -1219845.23043
  22955260.119    -6793916.20249  -5280921.79846  22955259.605    22955263.902
  22107756.387    -8287261.05649  -6436800.21646  22107756.229    22107763.131
  20435955.684   -18637377.38149 -14148113.24248  20435955.212    20435960.622
  21425249.103   -16553240.98649 -10906242.47147  21425248.439    21425253.828
  20866880.164   -16632901.22049 -12939490.48948  20866879.260    20866883.290
  23696860.486    -2922450.64748  -2062572.82244  23696859.148    23696866.050
  23595561.885    -1633705.03549  -1010814.15745  23595561.074    23595568.571
 04  1 16  1 53 30.0000000  0 11G16G30G10G22G29G26G 6G18G21G15G17
  23309266.573    -4388399.56649  -3406830.96145  23309265.951    23309270.976
  23766929.087     3357648.71949   2639930.19044  23766926.790    23766930.803
                   1708900.16518   1346890.267 1
                  -1691400.54949  -1301171.08243
  22955417.350    -6793089.50449  -5280277.57646  22955416.806    22955421.132
  22100473.985    -8325530.29949  -6466620.34546  22100473.900    22100480.661
  20440812.991   -18611852.33249 -14128223.57548  20440812.500    20440817.892
  21411964.961   -16623049.88149 -10960638.94047  21411964.256    21411969.548
  20862034.674   -16658364.23149 -12959331.75448  20862033.755    20862037.810
  23682539.852    -2997710.37248  -2121216.59244  23682538.146    23682544.777
  23608744.123    -1564429.44049   -956833.14145  23608743.448    23608751.313
 04  1 16  1 54  0.0000000  0 11G16G30G10G22G29G26G 6G18G21G15G17
  23301720.575    -4428053.33749  -3437729.93145  23301719.915    23301724.763
  23786811.362     3462126.78448   2721341.64244  23786809.262    23786812.383
                   1816201.67758   2696618.19343
                  -1795606.33149  -1110387.12543
  22955677.089    -6791724.09849  -5279213.58146  22955676.536    22955680.951
  22093299.471    -8363233.00449  -6495999.00946  22093299.347    22093305.961
  20445757.677   -18585867.66049 -14107975.75948  20445757.177    20445762.605
  21398756.407   -16692461.63549 -11014725.93747  21398755.640    21398760.875
  20857226.850   -16683629.02749 -12979018.56748  20857225.933    20857230.044
  23668235.923    -3072886.25748  -2179794.99244  23668234.108    23668239.300
  23621937.599    -1495097.82149   -902808.48345  23621936.783    23621944.829
 04  1 16  1 54 30.0000000  0 11G16G30G10G22G29G26G 6G18G21G15G17
  23294273.485    -4467186.28349  -3468223.04845  23294272.980    23294277.717
  23806692.718     3566608.65248   2802756.04544  23806691.471    23806695.436
                   1923561.35058   2780420.05543
                  -1899656.22449  -1191465.66043
  22956038.773    -6789822.96249  -5277732.13246  22956038.216    22956042.715
  22086232.577    -8400370.05449  -6524936.90546  22086232.419    22086238.913
  20450789.263   -18559426.30649 -14087372.08248  20450788.803    20450794.215
  21385622.929   -16761478.48649 -11068505.22447  21385622.142    21385627.323
  20852456.063   -16708698.87549 -12998553.48048  20852455.196    20852459.338
  23653945.631    -3147981.77548  -2238310.88644  23653944.735    23653949.519
  23635140.748    -1425713.66148   -848742.90345  23635139.944    23635148.329
 04  1 16  1 55  0.0000000  0 11G16G30G10G22G29G26G 6G18G21G15G17
  23286926.801    -4505793.91649  -3498306.89245  23286926.275    23286930.520
  23826575.724     3671094.83749   2884173.84244  23826574.526    23826578.502
                   2030981.50158   2864269.23143
                  -2003545.23249  -1272418.41843
  22956503.123    -6787382.01449  -5275830.05646  22956502.535    22956507.217
  22079274.304    -8436935.94249  -6553429.73846  22079274.196    22079280.556
  20455908.482   -18532524.78349 -14066409.83948  20455908.000    20455913.383
  21372565.535   -16830095.69249 -11121973.09747  21372564.741    21372569.852
  20847723.071   -16733570.27249 -13017933.75348  20847722.222    20847726.379
  23639671.093    -3222993.34449  -2296761.37844  23639670.308    23639674.858
  23648354.389    -1356273.48648   -794633.67945  23648353.666    23648362.601
 04  1 16  1 55 30.0000000  0 10G16G30G10G29G26G 6G18G21G15G17
  23279681.595    -4543866.90949  -3527974.07745  23279681.003    23279685.254
  23846460.795     3775590.84349   2965599.26744  23846459.340    23846463.751
                   2138466.81857   2710662.54743
  22957071.796    -6784392.53249  -5273500.54946  22957071.280    22957076.219
  22072426.828    -8472920.02549  -6581469.23047  22072426.657    22072432.957
  20461116.905   -18505154.37249 -14045082.22748  20461116.404    20461121.783
  21359585.894   -16898303.77049 -11175122.17747  21359585.137    21359590.198
  20843029.559   -16758234.86249 -13037152.86748  20843028.692    20843032.807
  23625413.657    -3297912.69549  -2355140.01344  23625412.839    23625417.777
  23661580.452    -1286769.45449   -740474.64345  23661579.749    23661588.640
 04  1 16  1 56  0.0000000  0 10G16G30G22G29G26G 6G18G21G15G17
  23272536.806    -4581411.67949  -3557229.67045  23272536.269    23272540.517
  23866345.361     3880086.46249   3047024.41944  23866343.824    23866349.056
                  -1435611.55949  -1090392.99243
  22957743.665    -6780861.58049  -5270749.12946  22957743.175    22957748.084
  22065689.022    -8508327.64549  -6609059.52646  22065688.851    22065695.014
  20466413.138   -18477322.36249 -14023394.93048  20466412.627    20466417.994
  21346682.993   -16966108.75149 -11227957.15947  21346682.230    21346687.238
  20838373.877   -16782700.36049 -13056216.85148  20838372.985    20838377.099
  23611172.262    -3372747.28349  -2413452.58044  23611171.727    23611176.569
  23674817.763    -1217208.82749   -686271.60445  23674816.765    23674825.862
 04  1 16  1 56 30.0000000  0 10G16G30G22G29G26G 6G18G21G15G17
  23265492.443    -4618428.56749  -3586073.90445  23265491.866    23265496.324
  23886228.442     3984577.60949   3128446.07544  23886227.589    23886233.465
                  -1538997.26549  -1170954.74043
  22958518.357    -6776790.16049  -5267576.55346  22958517.859    22958522.799
  22059061.087    -8543158.00549  -6636199.99746  22059060.850    22059067.011
  20471796.968   -18449029.84649 -14001348.79348  20471796.470    20471801.841
  21333856.767   -17033510.59249 -11280478.00247  21333856.029    21333860.974
  20833755.738   -16806968.04049 -13075126.68848  20833754.872    20833759.064
  23596946.159    -3447498.29649  -2471700.05644  23596945.967    23596951.522
  23688064.381    -1147593.39648   -632025.80345  23688063.776    23688073.313
 04  1 16  1 57  0.0000000  0 10G16G30G22G29G26G 6G18G21G15G17
  23258549.314    -4654914.01149  -3614504.05145  23258548.752    23258553.128
  23906110.881     4089063.99649   3209863.97844  23906110.264    23906117.552
                  -1642212.44949  -1251383.63843
  22959396.463    -6772175.39749  -5263980.59046  22959395.951    22959400.871
  22052543.751    -8577406.37849  -6662886.99346  22052543.542    22052549.708
  20477268.948   -18420274.16049 -13978941.75148  20477268.452    20477273.828
  21321108.087   -17100505.48749 -11332681.75247  21321107.295    21321112.122
  20829175.801   -16831035.42749 -13093880.46048  20829174.922    20829179.134
  23582736.830    -3522163.25649  -2529880.45945  23582736.445    23582743.594
  23701322.528    -1077920.28549   -577735.04745  23701321.866    23701331.589
 04  1 16  1 57 30.0000000  0  9G16G30G29G26G 6G18G21G15G17
  23251707.243    -4690869.10549  -3642520.94645  23251706.649    23251710.831
  23925992.442     4193540.90549   3291274.53444  23925991.470    23925999.508
  22960377.627    -6767018.77849  -5259962.42246  22960377.132    22960382.114
  22046137.058    -8611073.00849  -6689120.67946  22046136.848    22046143.064
  20482828.668   -18391057.38249 -13956175.41748  20482828.163    20482833.555
  21308436.530   -17167094.89349 -11384569.54047  21308435.737    21308440.468
  20824633.467   -16854905.01449 -13112480.09648  20824632.597    20824636.864
  23568543.906    -3596744.23948  -2587995.33845  23568542.881    23568551.207
  23714591.521    -1008192.08749   -523401.42745  23714590.791    23714600.526
 04  1 16  1 58  0.0000000  0  9G16G30G29G26G 6G18G21G15G17
  23244966.038    -4726293.91949  -3670124.66045  23244965.466    23244969.493
  23945870.439     4298004.58849   3372674.76744  23945870.369    23945878.948
  22961461.890    -6761320.89149  -5255522.46646  22961461.371    22961466.395
  22039841.303    -8644156.25449  -6714899.78346  22039841.196    22039847.438
  20488476.088   -18361379.84449 -13933050.04348  20488475.574    20488481.002
  21295842.176   -17233278.15949 -11436140.85447  21295841.406    21295846.087
  20820128.828   -16878576.82849 -13130925.62348  20820127.985    20820132.218
  23554365.937    -3671241.89549  -2646045.40045  23554365.105    23554374.551
  23727870.418     -938409.68649   -469025.54345  23727869.559    23727879.859
 04  1 16  1 58 30.0000000  0  9G16G30G29G26G 6G18G21G15G17
  23238326.174    -4761186.62349  -3697313.73045  23238325.422    23238329.398
  23965745.719     4402453.33449   3454063.42144  23965745.961    23965755.557
  22962649.284    -6755080.79349  -5250660.02446  22962648.769    22962653.797
  22033657.143    -8676653.37749  -6740222.17246  22033657.077    22033663.354
  20494211.346   -18331240.68749 -13909564.97148  20494210.813    20494216.286
  21283325.432   -17299053.81549 -11487394.55247  21283324.651    21283329.289
  20815661.906   -16902050.42249 -13149216.69248  20815661.038    20815665.269
  23540204.870    -3745655.57748  -2704029.96545  23540203.809    23540213.754
  23741159.657     -868572.35949   -414606.85545  23741159.058    23741169.338
 04  1 16  1 59  0.0000000  0  9G16G30G29G26G 6G18G21G15G17
  23231787.861    -4795544.40049  -3724085.95145  23231787.288    23231791.265
  23985618.324     4506885.89049   3535439.40745  23985618.662    23985628.979
  22963940.162    -6748296.25449  -5245373.34046  22963939.715    22963944.844
  22027585.288    -8708560.63449  -6765084.92546  22027585.220    22027591.483
  20500034.776   -18300638.22649 -13885718.88948  20500034.242    20500039.719
  21270886.906   -17364418.47049 -11538327.99347  21270886.132    21270890.690
  20811232.951   -16925323.95449 -13167351.86648  20811232.124    20811236.408
  23526059.704    -3819983.59249  -2761947.72145  23526058.520    23526069.430
  23754460.539     -798678.23249   -360143.87945  23754459.758    23754469.897
 04  1 16  1 59 30.0000000  0  9G16G30G29G26G 6G18G21G15G17
  23225351.336    -4829368.60049  -3750442.40945  23225350.865    23225354.620
  24005487.831     4611297.51949   3616799.11644  24005487.677    24005498.074
  22965334.547    -6740969.34649  -5239664.02846  22965333.950    22965339.094
  22021625.850    -8739878.35549  -6789488.28846  22021625.716    22021631.885
  20505945.946   -18269574.67649 -13861513.50948  20505945.399    20505950.893
  21258526.443   -17429373.21449 -11588942.01147  21258525.629    21258530.110
  20806841.664   -16948399.87949 -13185333.06048  20806840.824    20806845.133
  23511930.067    -3894227.86748  -2819800.31145  23511929.452    23511941.223
  23767771.683     -728729.95349   -305638.77145  23767770.795    23767780.846
 04  1 16  2  0  0.0000000  0  9G16G30G29G26G 6G18G21G15G17
  23219016.391    -4862661.01549  -3776384.50045  23219015.660    23219019.291
  24025351.892     4715682.82349   3698138.28745  24025351.674    24025361.909
  22966831.402    -6733102.44249  -5233533.94746  22966830.884    22966836.155
  22015778.491    -8770606.95549  -6813432.59346  22015778.314    22015784.440
  20511944.416   -18238052.30449 -13836950.60748  20511943.857    20511949.360
  21246243.557   -17493919.73049 -11639237.93147  21246242.732    21246247.191
  20802487.457   -16971280.82649 -13203162.32048  20802486.628    20802490.960
  23497816.417    -3968391.09448  -2877589.68445  23497815.921    23497828.517
  23781091.915     -658730.03649   -251093.38045  23781091.442    23781101.336
 04  1 16  2  0 30.0000000  0  9G16G30G29G26G 6G18G21G15G17
  23212783.652    -4895413.67949  -3801906.01345  23212782.934    23212786.489
  24045212.264     4820046.40749   3779460.55544  24045211.705    24045221.814
  22968432.534    -6724687.88649  -5226977.13146  22968432.105    22968437.324
  22010044.906    -8800737.34649  -6836910.77346  22010044.703    22010050.779
  20518031.598   -18206063.80849 -13812024.49448  20518031.033    20518036.564
  21234039.959   -17558049.40049 -11689209.04247  21234039.171    21234043.607
  20798171.805   -16993959.35249 -13220833.85448  20798171.016    20798175.343
  23483720.087    -4042465.87748  -2935310.11645  23483719.561    23483732.410
  23794424.484     -588671.25649   -196502.10345  23794423.712    23794433.168
 04  1 16  2  1  0.0000000  0  9G16G30G29G26G 6G18G21G15G17
  23206651.870    -4927635.75449  -3827014.06145  23206651.150    23206654.831
  24065065.823     4924375.37549   3860755.82044  24065064.991    24065075.090
  22970136.043    -6715735.88449  -5220001.51646  22970135.606    22970140.790
  22004423.534    -8830277.61449  -6859929.11146  22004423.315    22004429.416
  20524205.535   -18173619.34849 -13786743.08548  20524204.969    20524210.505
  21221913.955   -17621771.44849 -11738862.52347  21221913.185    21221917.619
  20793892.814   -17016445.66949 -13238355.61748  20793892.028    20793896.280
  23469638.605    -4116462.46548  -2992969.67245  23469638.078    23469651.058
  23807765.936     -518563.74249   -141872.91745  23807764.957    23807774.460
 04  1 16  2  1 30.0000000  0  9G16G30G29G26G 6G18G21G15G17
  23200622.879    -4959317.74249  -3851701.25945  23200622.204    23200625.883
  24084912.732     5028675.57849   3942028.70144  24084912.583    24084922.509
  22971943.525    -6706237.29349  -5212599.99446  22971943.085    22971948.295
  21998916.480    -8859217.16949  -6882479.37046  21998916.197    21998922.313
  20530467.906   -18140710.16549 -13761099.55548  20530467.333    20530472.882
  21209867.488   -17685076.26549 -11788190.89247  21209866.635    21209871.037
  20789652.095   -17038731.03449 -13255720.79248  20789651.274    20789655.519
  23455573.569    -4190372.12249  -3050561.51845  23455573.065    23455586.121
  23821118.064     -448399.08149    -87199.14545  23821117.053    23821126.472
 04  1 16  2  2  0.0000000  0  9G16G30G29G26G 6G18G21G15G17
  23194697.384    -4990456.37449  -3875965.09945  23194696.676    23194700.328
  24104754.416     5132946.97749   4023279.14944  24104754.686    24104764.630
  22973855.407    -6696189.73849  -5204770.69846  22973855.041    22973860.265
  21993524.562    -8887551.72949  -6904558.19846  21993524.270    21993530.391
  20536819.156   -18107333.78449 -13735091.97048  20536818.596    20536824.159
  21197901.021   -17747960.18949 -11837191.29247  21197900.169    21197904.528
  20785449.971   -17060813.01049 -13272927.48648  20785449.213    20785453.411
  23441525.743    -4264192.20249  -3108083.54345  23441525.439    23441538.767
  23834481.715     -378174.90549    -32479.00545  23834480.632    23834489.662
 04  1 16  2  2 30.0000000  0  9G16G30G29G26G 6G18G21G15G17
  23188873.418    -5021060.48749  -3899812.39445  23188872.868    23188876.493
  24124588.474     5237177.47848   4104497.71044  24124588.916    24124599.394
  22975870.037    -6685602.53049  -5196520.89046  22975869.707    22975874.911
  21988246.359    -8915288.95149  -6926171.57146  21988246.044    21988252.122
  20543257.567   -18073499.55649 -13708727.62248  20543256.999    20543262.567
  21186013.004   -17810431.70849 -11885870.33947  21186012.129    21186016.481
  20781284.936   -17082700.91549 -13289982.95248  20781284.126    20781288.238
  23427494.208    -4337932.16749  -3165543.14245  23427493.523    23427506.384
  23847854.741     -307900.65549     22280.13045  23847853.624    23847862.577
 04  1 16  2  3  0.0000000  0  9G16G30G29G26G 6G18G21G15G17
  23183152.106    -5051125.80949  -3923239.87345  23183151.549    23183155.206
  24144415.023     5341367.68548   4185684.88444  24144415.010    24144426.089
  22977988.182    -6674472.12049  -5187847.81446  22977987.850    22977992.984
  21983082.735    -8942423.53149  -6947315.36446  21983082.409    21983088.518
  20549783.742   -18039204.09349 -13682003.87448  20549783.161    20549788.728
  21174204.217   -17872486.25649 -11934224.47947  21174203.424    21174207.832
  20777157.327   -17104391.40949 -13306884.59948  20777156.544    20777160.637
  23413478.519    -4411588.55149  -3222937.53945  23413477.497    23413489.836
  23861237.891     -237573.07849     77080.83745  23861236.819    23861245.492
 04  1 16  2  3 30.0000000  0  9G16G30G29G26G 6G18G21G15G17
  23177534.463    -5080646.02649  -3946242.61845  23177533.947    23177537.769
  24164234.795     5445520.57349   4266842.95144  24164234.877    24164245.792
  22980210.807    -6662792.69249  -5178746.93046  22980210.451    22980215.564
  21978035.316    -8968947.98349  -6967983.71946  21978034.993    21978040.998
  20556398.789   -18004441.67949 -13654916.26848  20556398.212    20556403.808
  21162476.098   -17934117.59649 -11982248.84447  21162475.313    21162479.743
  20773068.531   -17125878.79949 -13323627.97048  20773067.734    20773071.681
  23399479.310    -4485155.50949  -3280262.35845  23399478.437    23399490.296
  23874632.049     -167186.48649    131927.52745  23874630.927    23874639.567
 04  1 16  2  4  0.0000000  0 10G16G30G22G29G26G 6G18G21G15G17
  23172018.964    -5109629.10249  -3968826.75645  23172018.486    23172022.569
  24184045.729     5549624.89549   4347963.21544  24184045.712    24184056.225
                  -1235049.03249   -945942.51543
  22982536.225    -6650573.01049  -5169225.05346  22982535.762    22982540.983
  21973102.549    -8994869.22449  -6988182.06046  21973102.298    21973108.282
  20563100.998   -17969221.17949 -13627471.71248  20563100.432    20563106.019
  21150827.128   -17995333.12149 -12029949.19547  21150826.308    21150830.746
  20769016.716   -17147171.64749 -13340219.76448  20769015.820    20769019.738
  23385495.542    -4558641.92249  -3337524.31645  23385494.568    23385505.755
  23888035.844      -96749.66549    186813.37845  23888034.838    23888043.211
 04  1 16  2  4 30.0000000  0 10G16G30G22G29G26G 6G18G21G15G17
  23166606.681    -5138070.24849  -3990988.65745  23166606.163    23166610.427
  24203848.405     5653682.22549   4429046.85444  24203847.443    24203857.993
                  -1335520.00849  -1024231.19343
  22984965.072    -6637808.84549  -5159278.91746  22984964.630    22984969.927
  21968285.851    -9020181.34749  -7007905.74746  21968285.532    21968291.463
  20569891.185   -17933538.40949 -13599666.94348  20569890.651    20569896.219
  21139258.271   -18056127.63449 -12077321.48947  21139257.467    21139261.902
  20765002.581   -17168265.74349 -13356656.68748  20765001.739    20765005.616
  23371528.311    -4632043.33049  -3394720.10845  23371527.168    23371537.345
  23901450.103      -26258.31249    241741.69345  23901449.270    23901457.141
 04  1 16  2  5  0.0000000  0 10G16G30G22G29G26G 6G18G21G15G17
  23161297.677    -5165968.07749  -4012727.17745  23161297.257    23161301.660
  24223641.595     5757690.50349   4510092.23244  24223639.913    24223650.687
                  -1435792.77849  -1102365.26143
  22987497.875    -6624499.34649  -5148907.84046  22987497.337    22987502.688
  21963585.505    -9044881.94649  -7027152.92747  21963585.216    21963591.103
  20576769.451   -17897392.79049 -13571501.52048  20576768.899    20576774.452
  21127769.903   -18116499.39749 -12124364.37347  21127769.050    21127773.482
  20761026.437   -17189160.41549 -13372938.22148  20761025.591    20761029.449
  23357576.969    -4705359.08549  -3451849.09145  23357575.766    23357585.691
  23914874.625       44288.05849    296712.86945  23914873.748    23914881.624
 04  1 16  2  5 30.0000000  0 10G16G30G22G29G26G 6G18G21G15G17
  23156092.091    -5193323.71249  -4034043.22245  23156091.601    23156095.846
  24243424.008     5861645.38749   4591096.04444  24243421.650    24243432.776
                  -1535867.19549   -919777.62943
  22990133.715    -6610646.45749  -5138113.35746  22990133.332    22990138.886
  21959001.444    -9068971.03449  -7045923.60847  21959001.190    21959007.053
  20583735.472   -17860786.09549 -13542976.80948  20583734.937    20583740.455
  21116361.861   -18176449.23549 -12171078.47047  21116360.958    21116365.368
  20757088.026   -17209857.23949 -13389065.57348  20757087.158    20757090.940
  23343641.649    -4778590.80749  -3508912.66845  23343640.544    23343650.054
  23928309.279      114887.64249    351725.53645  23928308.297    23928316.473
 04  1 16  2  6  0.0000000  0 10G16G30G22G29G26G 6G18G21G15G17
  23150989.996    -5220135.85849  -4054935.74945  23150989.424    23150993.837
  24263195.279     5965544.69149   4672056.56844  24263193.181    24263204.591
                  -1635740.73849   -997601.50943
  22992873.497    -6596249.38049  -5126894.80346  22992873.006    22992878.574
  21954534.277    -9092446.29949  -7064215.99247  21954534.022    21954539.839
  20590789.297   -17823717.75849 -13514092.38448  20590788.784    20590794.272
  21105034.218   -18235975.72249 -12217462.69648  21105033.380    21105037.793
  20753187.282   -17230355.63249 -13405038.31548  20753186.408    20753190.172
  23329722.412    -4851737.75549  -3565910.15245  23329721.110    23329730.774
  23941754.283      185541.11149    406780.22744  23941753.240    23941761.134
 04  1 16  2  6 30.0000000  0 10G16G30G22G29G26G 6G18G21G15G17
  23145991.741    -5246401.82749  -4075402.70345  23145991.263    23145995.639
  24282955.599     6069388.19649   4752973.58844  24282953.821    24282965.147
                  -1735409.72149  -1075265.87243
  22995717.023    -6581306.16049  -5115250.71346  22995716.607    22995722.145
  21950184.671    -9115304.07449  -7082027.21247  21950184.443    21950190.122
  20597931.414   -17786185.82249 -13484846.71748  20597930.919    20597936.365
  21093787.748   -18295075.81949 -12263514.67248  21093786.925    21093791.342
  20749324.749   -17250653.28349 -13420854.63448  20749323.862    20749327.626
  23315820.114    -4924797.76249  -3622839.82945  23315818.474    23315827.806
  23955209.853      256250.52549    461878.41544  23955208.315    23955216.382
 04  1 16  2  7  0.0000000  0 10G16G30G22G29G26G 6G18G21G15G17
  23141097.458    -5272121.87649  -4095444.25545  23141096.931    23141101.457
  24302704.661     6173172.47049   4833844.47944  24302703.289    24302713.903
                  -1834873.32649  -1152770.46243                  23717857.978
  22998664.458    -6565817.62449  -5103181.68646  22998663.957    22998669.403
  21945952.702    -9137543.27549  -7099356.42747  21945952.443    21945958.128
  20605161.570   -17748191.13649 -13455240.45648  20605161.064    20605166.498
  21082622.528   -18353749.07349 -12309234.03948  21082621.725    21082626.133
  20745500.226   -17270750.96849 -13436515.13048  20745499.350    20745503.098
  23301933.340    -4997771.64649  -3679702.48045  23301932.147    23301941.306
  23968676.121      327015.11249    517019.60844  23968674.721    23968682.524
 04  1 16  2  7 30.0000000  0 10G16G30G22G29G26G 6G18G21G15G17
  23136307.673    -5297293.78149  -4115058.69645  23136306.998    23136311.514
  24322442.460     6276896.41449   4914668.35344  24322441.135    24322451.480
  23698968.149    -1934127.94749  -1230111.35644  23698967.616    23698972.242
  23001715.779    -6549782.50149  -5090686.75746  23001715.344    23001720.744
  21941838.921    -9159160.98649  -7116201.35447  21941838.671    21941844.333
  20612480.059   -17709732.28949 -13425272.51948  20612479.567    20612484.990
  21071538.976   -18411993.33849 -12354619.12548  21071538.178    21071542.513
  20741714.089   -17290647.15749 -13452018.62848  20741713.171    20741716.934
  23288063.784    -5070657.90349  -3736496.80045  23288062.609    23288071.271
  23982152.741      397836.60748    572205.26844  23982151.194    23982159.544
 04  1 16  2  8  0.0000000  0 10G16G30G22G29G26G 6G18G21G15G17
  23131620.378    -5321925.41149  -4134252.12146  23131619.743    23131624.437
  24342167.018     6380549.17949   4995436.71244  24342165.301    24342175.707
  23680119.533    -2033180.36849  -1307294.90544  23680118.525    23680122.425
  23004869.584    -6533209.06849  -5077772.36946  23004869.091    23004874.503
  21937842.205    -9180163.88649  -7132567.21647  21937841.948    21937847.551
  20619885.197   -17670817.82049 -13394949.54348  20619884.751    20619890.150
  21060535.751   -18469815.72849 -12399675.47348  21060534.925    21060539.178
  20737964.673   -17310349.82749 -13467371.32548  20737963.777    20737967.645
  23274209.354    -5143464.42049  -3793228.98845  23274208.211    23274216.614
  23995638.458      468706.56249    627428.53944  23995636.815    23995645.300
 04  1 16  2  8 30.0000000  0 10G16G30G22G29G26G 6G18G21G15G17
  23127038.090    -5346005.56449  -4153015.83746  23127037.426    23127042.283
  24361879.184     6484138.75948   5076155.87344  24361877.605    24361888.051
  23661311.578    -2132018.10249  -1384311.19144  23661308.587    23661314.721
  23008127.804    -6516086.77349  -5064430.29246  23008127.355    23008132.793
  21933964.710    -9200539.69749  -7148444.43847  21933964.522    21933970.082
  20627379.142   -17631437.04449 -13364263.22448  20627378.683    20627384.003
  21049615.001   -18527204.42449 -12444393.88348  21049614.185    21049618.403
  20734254.168   -17329848.38149 -13482564.97648  20734253.325    20734257.163
  23260371.908    -5216180.49349  -3849890.72245  23260370.870    23260379.244
  24009135.680      539635.49248    682697.72844  24009134.554    24009142.398
 04  1 16  2  9  0.0000000  0 10G16G30G22G29G26G 6G18G21G15G17
  23122559.461    -5369540.93949  -4171355.05646  23122558.825    23122563.669
  24381576.669     6587655.78748   5156818.47744  24381575.676    24381586.332
  23642543.268    -2230646.49849  -1461164.33444  23642541.297    23642546.100
  23011489.164    -6498422.87749  -5050666.19246  23011488.738    23011494.189
  21930205.613    -9220294.09649  -7163837.42747  21930205.355    21930210.841
  20634960.405   -17591597.39749 -13333219.33648  20634959.954    20634965.194
  21038775.474   -18584166.31249 -12488779.71648  21038774.640    21038778.868
  20730581.288   -17349149.81349 -13497605.01748  20730580.378    20730584.211
  23246550.227    -5288813.07949  -3906487.37645  23246549.409    23246557.669
  24022642.649      610616.65949    738007.65844  24022641.479    24022649.001
 04  1 16  2  9 30.0000000  0 10G16G30G22G29G26G 6G18G21G15G17
  23118185.429    -5392527.52749  -4189266.64346  23118184.615    23118189.602
  24401260.856     6691100.74648   5237424.90744  24401260.049    24401271.488
  23623815.088    -2329060.56749  -1537850.44544  23623814.124    23623818.459
  23014954.344    -6480214.33349  -5036477.68346  23014953.819    23014959.235
  21926565.611    -9239422.10049  -7178742.32347  21926565.375    21926570.801
  20642629.636   -17551295.68349 -13301815.39848  20642629.145    20642634.356
  21028017.874   -18640697.20149 -12532829.71048  21028017.087    21028021.366
  20726946.403   -17368250.47449 -13512488.62348  20726945.574    20726949.438
  23232745.463    -5361358.87949  -3963016.40345  23232744.566    23232752.254
  24036161.158      681652.94749    793360.67944  24036160.331    24036167.150
 04  1 16  2 10  0.0000000  0 10G16G30G22G29G26G 6G18G21G15G17
  23113915.404    -5414965.72849  -4206750.91146  23113914.720    23113919.966
  24420931.559     6794470.47748   5317972.75444  24420930.622    24420941.621
  23605127.988    -2427259.32649  -1614368.82944  23605127.900    23605131.456
  23018522.843    -6461461.83649  -5021865.32246  23018522.339    23018527.786
  21923045.076    -9257923.00849  -7193158.57247  21923044.742    21923050.090
  20650386.554   -17510532.76549 -13270052.07748  20650386.055    20650391.271
  21017342.428   -18696796.70149 -12576543.56348  21017341.637    21017345.941
  20723349.749   -17387150.94749 -13527216.23248  20723348.934    20723352.771
  23218956.717    -5433818.34349  -4019478.17945  23218955.811    23218963.616
  24049689.769      752744.04149    848756.23744  24049688.776    24049696.311
 04  1 16  2 10 30.0000000  0 10G16G30G22G29G26G 6G18G21G15G17
  23109749.568    -5436857.27949  -4223809.21946  23109748.834    23109754.344
  24440587.405     6897760.34348   5398458.36144  24440585.936    24440596.554
  23586482.029    -2525243.04349  -1690719.63444  23586481.999    23586485.612
  23022194.393    -6442167.98049  -5006831.13146  23022193.857    23022199.208
  21919643.567    -9275797.62649  -7207086.80147  21919643.277    21919648.616
  20658230.789   -17469311.06049 -13237931.26148  20658230.285    20658235.536
  21006748.763   -18752466.51649 -12619922.59848  21006747.981    21006752.269
  20719790.831   -17405853.24849 -13541789.42348  20719789.968    20719793.800
  23205184.232    -5506193.71849  -4075874.39845  23205182.977    23205190.665
  24063228.130      823887.71749    904192.77544  24063227.184    24063234.550
 04  1 16  2 11  0.0000000  0 10G16G30G22G29G26G 6G18G21G15G17
  23105688.817    -5458197.18149  -4240437.67746  23105688.015    23105693.628
  24460227.043     7000972.10758   5478883.13644  24460226.209    24460236.387
  23567878.212    -2623005.65349  -1766898.15844  23567878.127    23567881.845
  23025969.816    -6422328.45849  -4991371.72846  23025969.213    23025974.487
  21916362.372    -9293040.02549  -7220522.39747  21916362.128    21916367.448
  20666163.046   -17427626.45249 -13205449.74548  20666162.553    20666167.835
  20996237.834   -18807701.38349 -12662962.71448  20996237.038    20996241.316
  20716270.270   -17424353.19049 -13556204.93448  20716269.425    20716273.332
  23191428.542    -5578480.55049  -4132201.67745  23191427.379    23191434.830
  24076777.658      895088.27049    959673.78644  24076776.764    24076783.533
 04  1 16  2 11 30.0000000  0 10G16G30G22G29G26G 6G18G21G15G17
  23101731.574    -5478992.65049  -4256641.89546  23101730.795    23101736.433
  24479850.692     7104095.82148   5559239.25644  24479850.440    24479860.116
  23549315.123    -2720552.90649  -1842908.88544  23549315.638    23549319.273
  23029847.328    -6401951.28349  -4975493.38846  23029846.859    23029852.104
  21913200.391    -9309656.44749  -7233470.21947  21913200.057    21913205.419
  20674181.989   -17385486.78049 -13172613.63148  20674181.502    20674186.798
  20985808.410   -18862507.81749 -12705668.98148  20985807.648    20985811.921
  20712786.915   -17442658.02449 -13570468.40848  20712786.087    20712790.008
  23177688.168    -5650685.95749  -4188465.51745  23177687.061    23177694.551
  24090336.079      966338.53649   1015193.44445  24090335.087    24090342.629
 04  1 16  2 12  0.0000000  0 10G16G30G22G29G26G 6G18G21G15G17
  23097879.383    -5499235.42849  -4272415.45646  23097878.661    23097884.378
  24499458.856     7207136.97458   5639531.16644  24499458.828    24499467.940
  23530795.309    -2817875.07249  -1918744.22545  23530795.660    23530799.398
  23033828.852    -6381028.36549  -4959189.78346  23033828.333    23033833.607
  21910159.205    -9325637.41749  -7245922.88047  21910158.843    21910164.290
  20682289.004   -17342884.09149 -13139416.71948  20682288.500    20682293.828
  20975462.260   -18916877.12149 -12748034.62348  20975461.470    20975465.718
  20709342.351   -17460759.31349 -13584573.27948  20709341.491    20709345.399
  23163964.957    -5722801.91449  -4244659.64145  23163963.772    23163971.240
  24103905.674     1037646.28049   1070757.81345  24103904.863    24103912.302
 04  1 16  2 12 30.0000000  0 10G16G30G22G29G26G 6G18G21G15G17
  23094132.103    -5518927.92249  -4287760.20946  23094131.345    23094137.011
  24519049.009     7310090.36358   5719754.56244  24519050.146    24519059.054
  23512318.202    -2914973.09849  -1994404.90445  23512318.391    23512322.301
  23037913.386    -6359563.09849  -4942463.59146  23037912.955    23037918.373
  21907238.640    -9340984.29949  -7257881.46647  21907238.325    21907243.895
  20690483.615   -17299821.36249 -13105861.34648  20690483.107    20690488.404
  20965198.992   -18970810.74149 -12790060.77848  20965198.215    20965202.457
  20705935.980   -17478659.79749 -13598521.68748  20705935.119    20705939.014
  23150258.115    -5794831.19649  -4300786.21045  23150256.941    23150264.402
  24117485.799     1109008.96949   1126365.07745  24117484.894    24117492.114
 04  1 16  2 13  0.0000000  0 10G16G30G22G29G26G 6G18G21G15G17
  23090489.114    -5538071.72249  -4302677.40846  23090488.308    23090494.131
  24538622.274     7412951.73548   5799906.31244  24538623.893    24538632.529
  23493884.010    -3011847.32549  -2069891.19045  23493883.872    23493887.718
  23042100.754    -6337557.38349  -4925316.25446  23042100.366    23042105.871
  21904438.592    -9355697.68449  -7269346.40647  21904438.293    21904443.950
  20698765.337   -17256300.83749 -13071949.24148  20698764.833    20698770.144
  20955018.366   -19024309.92349 -12831748.39848  20955017.593    20955021.885
  20702567.454   -17496361.28649 -13612315.02848  20702566.582    20702570.481
  23136567.558    -5866775.23549  -4356846.41645  23136566.338    23136573.584
  24131075.723     1180424.64249   1182013.75544  24131074.544    24131082.944
 04  1 16  2 13 30.0000000  0 10G16G30G22G29G26G 6G18G21G15G17
  23086950.870    -5556664.42249  -4317165.17946  23086950.098    23086955.944
  24558178.154     7515720.53148   5879985.96444  24558179.538    24558188.493
  23475492.899    -3108494.11649  -2145200.23245  23475492.654    23475496.758
  23046391.364    -6315009.78549  -4907746.67146  23046390.956    23046396.507
  21901759.743    -9369774.50649  -7280315.32647  21901759.507    21901765.236
  20707134.408   -17212320.93849 -13037679.18148  20707133.929    20707139.255
  20944920.803   -19077372.55149 -12873095.85148  20944920.084    20944924.339
  20699237.168   -17513861.52549 -13625951.55048  20699236.327    20699240.253
  23122893.749    -5938631.79949  -4412838.42345  23122892.515    23122899.794
  24144676.518     1251895.25849   1237705.09145  24144675.348    24144684.065
 04  1 16  2 14  0.0000000  0 10G16G30G22G29G26G 6G18G21G15G17
  23083517.041    -5574709.05949  -4331225.88446  23083516.304    23083522.167
  24577715.700     7618390.63548   5959988.63444  24577717.141    24577726.800
  23457144.782    -3204915.09749  -2220333.35845  23457144.457    23457148.489
  23050784.446    -6291923.99149  -4889757.71746  23050783.974    23050789.446
  21899201.783    -9383216.64349  -7290789.69247  21899201.518    21899207.138
  20715590.238   -17167885.31949 -13003054.02448  20715589.756    20715595.077
  20934906.045   -19130000.74249 -12914104.78348  20934905.277    20934909.505
  20695944.666   -17531163.54849 -13639433.62148  20695943.816    20695947.767
  23109235.804    -6010404.16349  -4468764.84045  23109234.610    23109241.840
  24158286.866     1323417.88349   1293436.93645  24158285.887    24158293.990
 04  1 16  2 14 30.0000000  0 10G16G30G22G29G26G 6G18G21G15G17
  23080188.334    -5592201.52149  -4344856.32846  23080187.539    23080193.381
  24597234.447     7720963.90648   6039915.83244  24597235.938    24597246.121
  23438840.815    -3301104.53249  -2295286.02645  23438840.118    23438844.125
  23055280.461    -6268296.48449  -4871346.65946  23055280.082    23055285.402
  21896765.590    -9396019.08249  -7300765.58647  21896765.305    21896770.872
  20724133.493   -17122990.28849 -12968070.88048  20724133.001    20724138.302
  20924974.867   -19182189.98149 -12954771.67248  20924974.012    20924978.219
  20692690.537   -17548263.45849 -13652758.20148  20692689.759    20692693.684
  23095594.755    -6082088.25549  -4524622.44745  23095593.473    23095600.487
  24171907.860     1394996.30349   1349212.37444  24171907.115    24171914.223
 04  1 16  2 15  0.0000000  0 10G16G30G22G29G26G 6G18G21G15G17
  23076964.070    -5609144.06649  -4358058.25045  23076963.291    23076969.256
  24616734.520     7823435.27048   6119763.71744  24616735.409    24616746.025
  23420580.883    -3397063.47449  -2370059.08545  23420579.769    23420583.644
  23059879.329    -6244130.08349  -4852515.67246  23059878.908    23059884.004
  21894450.836    -9408182.95649  -7310243.89647  21894450.587    21894456.042
  20732763.665   -17077638.61049 -12932731.90448  20732763.197    20732768.473
  20915126.703   -19233941.93649 -12995097.82948  20915125.900    20915130.116
  20689474.581   -17565163.49549 -13665927.03748  20689473.735    20689477.657
  23081969.612    -6153686.44649  -4580413.16245  23081968.625    23081975.258
  24185539.215     1466628.16549   1405029.42945  24185538.620    24185544.900
 04  1 16  2 15 30.0000000  0 10G16G30G22G29G26G 6G18G21G15G17
  23073844.674    -5625536.37149  -4370831.43345  23073843.831    23073849.786
  24636214.395     7925802.35448   6199530.27744  24636215.211    24636226.596
  23402364.768    -3492790.02349  -2444651.07845  23402363.691    23402367.389
  23064580.684    -6219425.14149  -4833265.03746  23064580.183    23064585.126
  21892257.907    -9419707.22249  -7319223.81347  21892257.596    21892262.966
  20741480.604   -17031830.85849 -12897037.54748  20741480.142    20741485.419
  20905361.912   -19285256.16249 -13035082.89548  20905361.110    20905365.324
  20686296.657   -17581863.54449 -13678940.04348  20686295.835    20686299.732
  23068361.258    -6225198.75649  -4636136.90745  23068360.247    23068366.665
  24199180.414     1538313.61049   1460888.11245  24199179.857    24199186.090
 04  1 16  2 16  0.0000000  0  9G16G22G29G26G 6G18G21G15G17
  23070830.430    -5641375.96249  -4383173.92945  23070829.588    23070835.532
  23384193.493    -3588280.30149  -2519058.96045  23384192.381    23384195.957
  23069384.684    -6194180.13749  -4813593.57746  23069384.237    23069389.069
  21890187.224    -9430588.38649  -7327702.62047  21890186.999    21890192.341
  20750284.691   -16985565.14449 -12860986.33948  20750284.237    20750289.504
  20895681.058   -19336129.19749 -13074724.18148  20895680.322    20895684.494
  20683157.228   -17598361.25949 -13691795.38248  20683156.379    20683160.248
  23054769.816    -6296622.54749  -4691791.72445  23054768.617    23054775.105
  24212832.453     1610054.96449   1516790.41145  24212831.805    24212837.716
 04  1 16  2 16 30.0000000  0  9G16G22G29G26G 6G18G21G15G17
  23067920.541    -5656666.18649  -4395088.33445  23067919.801    23067925.925
  23366066.877    -3683535.96949  -2593284.02345  23366065.660    23366069.223
  23074290.939    -6168398.60049  -4793504.04946  23074290.401    23074295.028
  21888238.592    -9440828.71749  -7335682.06747  21888238.328    21888243.630
  20759175.230   -16938845.03249 -12824581.04848  20759174.802    20759180.035
  20886083.732   -19386563.79949 -13114023.82748  20886082.926    20886087.044
  20680055.826   -17614659.11149 -13704494.98748  20680055.016    20680058.889
  23041194.314    -6367960.79449  -4747379.85745  23041193.144    23041199.520
  24226494.817     1681848.97149   1572733.85445  24226494.287    24226499.258
 04  1 16  2 17  0.0000000  0  9G16G22G29G26G 6G18G21G15G17
  23065115.945    -5671405.32249  -4406573.33445  23065115.093    23065120.977
  23347985.184    -3778553.85949  -2667323.82445  23347984.048    23347987.719
  23079299.331    -6142079.60749  -4772995.72146  23079298.764    23079303.314
  21886412.413    -9450425.67349  -7343160.18647  21886412.122    21886417.362
  20768152.450   -16891669.61949 -12787820.97848  20768151.997    20768157.219
  20876570.065   -19436558.22249 -13152980.47648  20876569.272    20876573.430
  20676992.712   -17630755.80749 -13717037.84348  20676991.877    20676995.782
  23027635.400    -6439212.17949  -4802900.32045  23027634.311    23027640.509
  24240167.050     1753697.18749   1628719.42545  24240166.252    24240171.367
 04  1 16  2 17 30.0000000  0  9G16G22G29G26G 6G18G21G15G17
  23062416.544    -5685590.58049  -4417626.73545  23062415.732    23062421.482
  23329949.440    -3873329.47849  -2741174.84445  23329948.763    23329952.408
  23084410.312    -6115220.95749  -4752066.87346  23084409.766    23084414.385
  21884709.462    -9459375.35149  -7350133.92647  21884709.071    21884714.264
  20777216.860   -16844036.33549 -12750704.12448  20777216.352    20777221.514
  20867140.904   -19486108.63249 -13191591.14448  20867140.139    20867144.290
  20673968.369   -17646648.43249 -13729421.68248  20673967.560    20673971.459
  23014093.683    -6510373.69649  -4858350.74345  23014092.585    23014098.887
  24253850.179     1825602.50649   1684749.44945  24253849.449    24253854.398
 04  1 16  2 18  0.0000000  0  9G16G22G29G26G 6G18G21G15G17
  23059821.851    -5699225.72849  -4428251.49345  23059820.959    23059826.675
  23311959.747    -3967865.35149  -2814839.01645  23311959.017    23311962.781
  23089623.127    -6087826.91849  -4730720.85046  23089622.657    23089627.381
  21883128.782    -9467680.69349  -7356605.59647  21883128.536    21883133.723
  20786367.463   -16795949.68349 -12713234.00148  20786366.908    20786372.047
  20857795.611   -19535218.41349 -13229858.46948  20857794.859    20857799.018
  20670982.170   -17662340.74649 -13741649.43248  20670981.387    20670985.292
  23000568.303    -6581449.07549  -4913734.04145  23000567.279    23000573.726
  24267543.828     1897560.93449   1740820.94145  24267542.731    24267547.048
 04  1 16  2 18 30.0000000  0  9G16G22G29G26G 6G18G21G15G17
  23057331.563    -5712310.75849  -4438447.57145  23057330.813    23057336.642
  23294015.936    -4062159.73649  -2888315.03045  23294015.170    23294019.166
  23094937.761    -6059898.48549  -4708958.41346  23094937.307    23094941.777
  21881671.021    -9475341.04449  -7362574.67247  21881670.785    21881675.963
  20795604.182   -16747410.24549 -12675411.05848  20795603.633    20795608.771
  20848534.193   -19583887.46749 -13267782.36748  20848533.371    20848537.558
  20668034.194   -17677832.34449 -13753720.78148  20668033.428    20668037.304
  22987059.546    -6652438.30849  -4969050.23445  22987058.540    22987065.131
  24281247.011     1969572.71149   1796933.97944  24281246.317    24281250.074
 04  1 16  2 19  0.0000000  0  9G16G22G29G26G 6G18G21G15G17
  23054946.777    -5724843.81649  -4448213.54545  23054945.902    23054951.616
  23276118.788    -4156209.26749  -2961600.24145  23276117.989    23276122.040
  23100354.269    -6031434.37749  -4686778.56446  23100353.768    23100358.165
  21880336.773    -9482353.32149  -7368038.74947  21880336.458    21880341.521
  20804927.291   -16698416.75849 -12637234.30148  20804926.729    20804931.887
  20839357.034   -19632113.30849 -13305360.90448  20839356.214    20839360.449
  20665124.822   -17693121.41149 -13765634.30548  20665124.022    20665127.837
  22973567.903    -6723339.36149  -5024297.68545  22973566.810    22973573.146
  24294960.534     2041639.50849   1853089.89744  24294959.730    24294963.972
 04  1 16  2 19 30.0000000  0  9G16G22G29G26G 6G18G21G15G17
  23052667.136    -5736824.22849  -4457548.91645  23052666.191    23052671.724
  23258268.626    -4250011.57849  -3034692.83145  23258267.956    23258271.954
  23105872.724    -6002434.37549  -4664181.13346  23105872.248    23105876.664
  21879126.016    -9488715.97549  -7372996.62647  21879125.687    21879130.676
  20814336.843   -16648969.03649 -12598703.61047  20814336.295    20814341.417
  20830264.556   -19679894.34749 -13342592.84448  20830263.739    20830267.999
  20662254.210   -17708206.90649 -13777389.20648  20662253.370    20662257.186
  22960093.055    -6794151.06349  -5079475.53245  22960091.919    22960098.209
  24308685.153     2113762.22849   1909289.38344  24308684.387    24308688.089
 04  1 16  2 20  0.0000000  0  9G16G22G29G26G 6G18G21G15G17
  23050491.467    -5748255.63249  -4466456.46845  23050490.727    23050496.304
  23240465.572    -4343569.03949  -3107594.61245  23240464.611    23240468.540
  23111492.383    -5972903.06649  -4641169.71046  23111491.907    23111496.192
  21878038.179    -9494431.99549  -7377450.63147  21878037.910    21878042.951
  20823831.974   -16599071.38649 -12559822.32047  20823831.442    20823836.561
  20821255.994   -19727234.03749 -13379480.87848  20821255.255    20821259.523
  20659421.576   -17723092.39749 -13788988.27048  20659420.751    20659424.590
  22946634.315    -6864877.31949  -5134586.79245  22946633.296    22946639.717
  24322419.819     2185937.32449   1965529.63844  24322418.901    24322422.494
 04  1 16  2 20 30.0000000  0  9G16G22G29G26G 6G18G21G15G17
  23048420.873    -5759136.49049  -4474935.01545  23048420.081    23048425.680
  23222709.248    -4436878.17549  -3180302.90145  23222708.413    23222712.442
  23117213.428    -5942839.26849  -4617743.35046  23117212.827    23117217.185
  21877073.909    -9499498.77349  -7381398.73447  21877073.657    21877078.783
  20833413.063   -16548722.43449 -12520589.35647  20833412.489    20833417.645
  20812332.089   -19774129.84949 -13416023.02448  20812331.283    20812335.592
  20656627.354   -17737775.79649 -13800429.85348  20656626.525    20656630.438
  22933192.431    -6935515.93849  -5189629.77345  22933191.272    22933197.750
  24336164.947     2258166.84249   2021812.43244  24336163.668    24336167.079
 04  1 16  2 21  0.0000000  0  9G16G22G29G26G 6G18G21G15G17
  23046455.836    -5769463.87149  -4482982.30445  23046454.961    23046460.388
  23205000.960    -4529934.44849  -3252814.16745  23205000.323    23205004.478
  23123036.043    -5912240.68249  -4593900.25946  23123035.495    23123039.942
  21876234.004    -9503912.48049  -7384837.95747  21876233.759    21876238.976
  20843080.413   -16497919.92849 -12481002.97747  20843079.856    20843085.053
  20803493.202   -19820578.57749 -13452216.79748  20803492.362    20803496.671
  20653872.230   -17752254.17249 -13811711.68548  20653871.382    20653875.292
  22919767.649    -7006063.83949  -5244602.05546  22919766.616    22919772.980
  24349920.245     2330453.37849   2078139.58744                  24349918.551
 04  1 16  2 21 30.0000000  0  8G16G22G29G26G 6G18G21G15
  23044595.019    -5779242.45949  -4490601.95045  23044594.269    23044599.626
  23187340.194    -4622740.92449  -3325130.78045  23187339.779    23187344.030
  23128959.498    -5881112.54849  -4569644.55646  23128958.975    23128963.443
  21875517.745    -9507676.97949  -7387771.29547  21875517.484    21875522.691
  20852833.057   -16446668.90449 -12441067.10647  20852832.525    20852837.780
  20794738.579   -19866584.04949 -13488065.18048  20794737.763    20794742.058
  20651155.319   -17766531.51749 -13822836.86448  20651154.483    20651158.407
  22906359.256    -7076525.59649  -5299507.23146  22906358.148    22906364.472
 04  1 16  2 22  0.0000000  0  8G16G22G29G26G 6G18G21G15
  23042839.480    -5788468.84649  -4497791.32145  23042838.754    23042843.844
  23169727.992    -4715292.60649  -3397248.86245  23169727.681    23169732.103
  23134984.235    -5849452.09049  -4544974.04246  23134983.704    23134988.254
  21874925.800    -9510787.85749  -7390195.32647  21874925.474    21874930.751
  20862671.642   -16394966.28749 -12400779.34547  20862671.133    20862676.449
  20786069.008   -19912142.74749 -13523565.42448  20786068.214    20786072.488
  20648477.316   -17780604.23949 -13833802.59748  20648476.547    20648480.476
  22892967.899    -7146897.19549  -5354342.16146  22892966.809    22892973.090
 04  1 16  2 22 30.0000000  0  8G16G22G29G26G 6G18G21G15
  23041188.898    -5797144.11149  -4504551.24745  23041187.987    23041192.965
  23152164.640    -4807588.79249  -3469167.85346  23152164.301    23152168.667
  23141109.945    -5817261.18249  -4519890.20246  23141109.374    23141113.953
  21874457.938    -9513245.45749  -7392110.31347  21874457.738    21874463.021
  20872595.858   -16342813.76749 -12360141.01247  20872595.373    20872600.736
  20777484.390   -19957254.94249 -13558717.73648  20777483.607    20777487.869
  20645838.223   -17794473.27049 -13844609.60348  20645837.384    20645841.332
  22879593.577    -7217179.49749  -5409107.50046  22879592.537    22879598.656
 04  1 16  2 23  0.0000000  0  8G16G22G29G26G 6G18G21G15
  23039643.093    -5805268.74549  -4510882.11545  23039642.107    23039646.903
  23134650.053    -4899628.38049  -3540886.91746  23134649.745    23134654.020
  23147336.313    -5784540.93549  -4494393.87946  23147335.783    23147340.358
  21874114.629    -9515049.45049  -7393515.99847  21874114.406    21874119.669
  20882605.558   -16290212.53249 -12319153.03147  20882605.033    20882610.390
  20768984.736   -20001920.65849 -13593522.15448  20768983.952    20768988.257
  20643237.817   -17808138.52449 -13855257.82548  20643236.965    20643240.917
  22866236.105    -7287372.72149  -5463803.46446  22866234.975    22866241.276
 04  1 16  2 23 30.0000000  0  8G16G22G29G26G 6G18G21G15
  23038201.201    -5812846.14349  -4516786.54046  23038200.355    23038205.079
  23117183.977    -4991413.05449  -3612407.33146  23117183.617    23117187.852
  23153662.744    -5751295.19049  -4468488.08646  23153662.253    23153666.743
  21873895.251    -9516202.30149  -7394414.29647  21873894.988    21873900.250
  20892699.909   -16237166.16049 -12277818.18847  20892699.385    20892704.756
  20760569.538   -20046142.23249 -13627980.48648  20760568.777    20760573.122
  20640675.588   -17821602.79349 -13865749.44048  20640674.758    20640678.683
  22852895.091    -7357479.67349  -5518432.17646  22852894.070    22852900.284
 04  1 16  2 24  0.0000000  0  8G16G22G29G26G 6G18G21G15
  23036864.238    -5819872.66949  -4522261.72946  23036863.411    23036868.006
  23099767.212    -5082937.29549  -3683724.82846  23099767.024    23099771.223
  23160089.774    -5717520.92049  -4442170.45046  23160089.284    23160093.688
  21873800.594    -9516699.56849  -7394801.75447  21873800.333    21873805.579
  20902879.514   -16183671.48549 -12236134.02147  20902879.018    20902884.444
  20752239.517   -20089916.09449 -13662089.95948  20752238.784    20752243.161
  20638152.370   -17834862.12249 -13876081.36548  20638151.565    20638155.479
  22839571.366    -7427496.37149  -5572990.59446  22839570.275    22839576.371
 04  1 16  2 24 30.0000000  0  8G16G22G29G26G 6G18G21G15
  23035632.303    -5826348.73149  -4527307.98646  23035631.254    23035635.651
  23082400.521    -5174199.81649  -3754838.37146  23082400.177    23082404.447
  23166617.135    -5683219.49949  -4415442.04646  23166616.665    23166620.864
  21873830.786    -9516541.04149  -7394678.18447  21873830.522    21873835.758
  20913144.351   -16129729.49749 -12194101.29747  20913143.862    20913149.295
  20743994.870   -20133241.56949 -13695850.02948  20743994.152    20743998.536
  20635668.203   -17847916.46549 -13886253.55748  20635667.375    20635671.274
  22826264.624    -7497423.19649  -5627478.96146  22826263.557    22826269.548
 04  1 16  2 25  0.0000000  0  8G16G22G29G26G 6G18G21G15
  23034503.769    -5832278.39049  -4531928.47046  23034502.826    23034507.231
  23065083.127    -5265202.59949  -3825749.52646  23065082.845    23065087.069
  23173244.008    -5648395.10049  -4388306.13246  23173243.518    23173247.634
  21873985.128    -9515729.44049  -7394045.73247  21873984.925    21873990.179
  20923493.450   -16075344.39749 -12151723.28247  20923492.977    20923498.397
  20735835.008   -20176121.67749 -13729263.04948  20735834.271    20735838.660
  20633222.407   -17860769.07849 -13896268.55348  20633221.558    20633225.485
  22812974.579    -7567263.27749  -5681899.71846  22812973.546    22812979.365
 04  1 16  2 25 30.0000000  0  8G16G22G29G26G 6G18G21G15
  23033479.835    -5837658.87049  -4536121.01646  23033479.054    23033483.393
  23047816.134    -5355941.61049  -3896455.15446  23047815.729    23047819.942
  23179970.679    -5613045.90549  -4360761.28546  23179970.210    23179974.336
  21874264.439    -9514261.59049  -7392901.92247  21874264.202    21874269.458
  20933927.294   -16020514.27449 -12108998.51047  20933926.804    20933932.193
  20727760.422   -20218553.49649 -13762326.75648  20727759.701    20727764.079
  20630815.610   -17873416.82849 -13906123.91948  20630814.754    20630818.671
  22799701.606    -7637013.76949  -5736250.67846  22799700.436    22799706.146
 04  1 16  2 26  0.0000000  0  8G16G22G29G26G 6G18G21G15
  23032560.361    -5842490.58749  -4539885.96746  23032559.441    23032563.944
  23030599.583    -5446415.23449  -3966953.98546  23030599.108    23030603.320
  23186797.094    -5577172.74149  -4332808.14546  23186796.615    23186800.754
  21874668.724    -9512136.96249  -7391246.33247  21874668.552    21874673.695
  20944445.737   -15965239.76749 -12065927.46447  20944445.242    20944450.568
  20719771.188   -20260536.81949 -13795040.99848  20719770.452    20719774.881
  20628447.916   -17885859.36849 -13915819.37548  20628447.023    20628450.921
  22786445.435    -7706674.23449  -5790531.50946  22786444.393    22786450.051
 04  1 16  2 26 30.0000000  0  8G16G22G29G26G 6G18G21G15
  23031745.776    -5846772.97449  -4543222.88846  23031744.744    23031749.059
  23013433.930    -5536621.31149  -4037244.34246  23013433.392    23013437.663
  23193723.044    -5540775.79949  -4304446.86746  23193722.610    23193726.771
  21875198.204    -9509354.34749  -7389078.03647  21875198.075    21875203.186
  20955048.736   -15909520.80949 -12022510.09147  20955048.232    20955053.494
  20711867.535   -20302070.15949 -13827404.60948  20711866.813    20711871.319
  20626119.391   -17898095.72549 -13925354.17548  20626118.485    20626122.370
  22773206.872    -7776243.75849  -5844741.47146  22773205.628    22773211.297
 04  1 16  2 27  0.0000000  0  8G16G22G29G26G 6G18G21G15
  23031034.562    -5850507.73249  -4546133.04846  23031033.857    23031038.399
  22996319.052    -5626559.27449  -4107325.77946  22996318.571    22996323.032
  23200748.478    -5503857.05549  -4275678.96946  23200748.036    23200752.083
  21875852.883    -9505914.34149  -7386397.48147  21875852.663    21875857.740
  20965735.951   -15853359.31149 -11978747.88147  20965735.443    20965740.628
  20704049.445   -20343154.10849 -13859418.03748  20704048.755    20704053.304
  20623829.900   -17910126.87249 -13934729.07448  20623829.010    20623832.895
  22759985.311    -7845723.03249  -5898881.09646  22759983.992    22759989.787
 04  1 16  2 27 30.0000000  0  8G16G22G29G26G 6G18G21G15
  23030427.969    -5853695.23649  -4548616.79246  23030427.267    23030431.835
  22979255.349    -5716227.68349  -4177197.19046  22979255.023    22979259.622
  23207872.915    -5466417.66849  -4246505.41246  23207872.484    23207876.599
  21876632.621    -9501816.78649  -7383204.55347  21876632.382    21876637.377
  20976507.172   -15796756.00649 -11934641.41247  20976506.687    20976511.858
  20696316.817   -20383789.44049 -13891081.89848  20696316.089    20696320.626
  20621579.567   -17921952.53249 -13943943.86448  20621578.688    20621582.531
  22746780.608    -7915111.94249  -5952950.31646  22746779.523    22746785.433
 04  1 16  2 28  0.0000000  0  8G16G22G29G26G 6G18G21G15
  23029925.535    -5856335.99249  -4550674.51246  23029924.705    23029929.411
  22962243.118    -5805625.66049  -4246857.86346  22962242.990    22962247.702
  23215096.230    -5428459.02149  -4216927.21546  23215095.814    23215099.844
  21877537.475    -9497061.41149  -7379499.04147  21877537.226    21877542.211
  20987362.352   -15739711.94949 -11890191.49547  20987361.832    20987366.988
  20688669.599   -20423975.65649 -13922395.79748  20688668.843    20688673.373
  20619368.366   -17933572.53449 -13952998.39348  20619367.449    20619371.314
  22733593.445    -7984410.37849  -6006949.03446  22733592.123    22733598.331
 04  1 16  2 28 30.0000000  0  8G16G22G29G26G 6G18G21G15
  23029526.626    -5858431.99349  -4552307.73246  23029525.851    23029530.617
  22945282.707    -5894752.95449  -4316307.61746  22945282.492    22945287.236
  23222418.044    -5389983.06949  -4186945.93046  23222417.595    23222421.500
  21878567.371    -9491649.18349  -7375281.68847  21878567.143    21878572.016
  20998301.013   -15682229.22749 -11845399.76347  20998300.449    20998305.614
  20681107.698   -20463713.43449 -13953360.25948  20681106.958    20681111.486
  20617196.052   -17944987.92649 -13961893.48148  20617195.163    20617198.995
  22720422.899    -8053619.41049  -6060878.07446  22720421.800    22720428.275
 04  1 16  2 29  0.0000000  0  8G16G22G29G26G 6G18G21G15
  23029231.766    -5859981.22649  -4553514.90046  23029231.045    23029235.845
  22928374.462    -5983605.78949  -4385543.52346  22928374.286    22928379.010
  23229838.463    -5350988.82049  -4156560.77546  23229837.918    23229841.807
  21879722.683    -9485577.62249  -7370550.58147  21879722.463    21879727.324
  21009323.297   -15624306.54049 -11800265.20147  21009322.739    21009327.927
  20673631.589   -20503000.32349 -13983973.38348  20673630.913    20673635.398
  20615063.203   -17956196.10749 -13970627.10848  20615062.329    20615066.118
  22707269.936    -8122736.84749  -6114735.76746  22707268.825    22707275.605
 04  1 16  2 29 30.0000000  0  8G16G22G29G26G 6G18G21G15
  23029040.993    -5860983.88349  -4554296.17146  23029040.277    23029045.002
  22911519.020    -6072182.34749  -4454564.13446  22911518.735    22911523.333
  23237357.160    -5311477.03049  -4125772.34646  23237356.693    23237360.764
  21881003.703    -9478845.91449  -7365305.06447  21881003.397    21881008.170
  21020429.301   -15565944.22949 -11754788.07547  21020428.720    21020433.922
  20666241.572   -20541835.30449 -14014234.37148  20666240.859    20666245.337
  20612969.934   -17967196.09149 -13979198.50348  20612969.069    20612972.871
  22694134.757    -8191762.00849  -6168521.52046  22694133.619    22694140.464
 04  1 16  2 30  0.0000000  0  8G16G22G29G26G 6G18G21G15
  23028953.794    -5861442.76149  -4554653.70146  23028952.938    23028957.847
  22894716.172    -6160483.49949  -4523370.15146  22894715.548    22894720.134
  23244973.839    -5271450.78349  -4094583.04446  23244973.350    23244977.488
  21882409.883    -9471456.22449  -7359546.84247  21882409.603    21882414.307
  21031618.340   -15507145.50649 -11708970.88947  21031617.774    21031622.960
  20658937.023   -20580221.15549 -14044145.39648  20658936.256    20658940.706
  20610915.742   -17977990.47449 -13987609.69448  20610914.911    20610918.735
  22681016.496    -8260696.71849  -6222236.80646  22681015.490    22681022.521
 04  1 16  2 30 30.0000000  0  8G16G22G29G26G 6G18G21G15
  23028969.618    -5861358.78849  -4554588.24846  23028968.976    23028973.821
  22877965.654    -6248508.40749  -4591960.91346  22877964.934    22877969.516
  23252688.130    -5230911.89049  -4062994.27646  23252687.659    23252691.763
  21883941.157    -9463408.69249  -7353276.01947  21883940.923    21883945.512
  21042890.235   -15447911.59849 -11662814.59647  21042889.641    21042894.795
  20651717.830   -20618158.14049 -14073706.65248  20651717.054    20651721.503
  20608900.758   -17988579.03349 -13995860.49748  20608899.936    20608903.783
  22667915.808    -8329540.98749  -6275881.60846  22667914.750    22667921.838
 04  1 16  2 31  0.0000000  0  8G16G22G29G26G 6G18G21G15
  23029088.855    -5860732.81549  -4554100.43446  23029088.094    23029092.958
  22861268.073    -6336255.92749  -4660335.54046  22861267.084    22861271.653
  23260499.622    -5189861.57249  -4031007.01046  23260499.181    23260503.330
  21885597.706    -9454703.56449  -7346492.78547  21885597.446    21885601.938
  21054244.545   -15388243.90549 -11616320.28447  21054244.000    21054249.173
  20644584.036   -20655646.24449 -14102918.13148  20644583.282    20644587.716
  20606924.935   -17998961.58649 -14003950.78148  20606924.153    20606928.040
  22654831.946    -8398295.21549  -6329456.25946  22654830.967    22654838.189
 04  1 16  2 31 30.0000000  0  8G16G22G29G26G 6G18G21G15
  23029312.071    -5859560.65649  -4553187.06046  23029311.259    23029315.976
  22844624.037    -6423719.82849  -4728489.15646  22844623.177    22844627.737
  23268408.957    -5148296.47049  -3998618.59246  23268408.507    23268412.789
  21887380.221    -9445335.78649  -7339193.19046  21887380.012    21887384.338
  21065682.229   -15328138.42949 -11569484.84347  21065681.692    21065686.883
  20637536.631   -20692680.44749 -14131775.91648  20637535.871    20637540.309
  20604989.317   -18009133.26749 -14011876.74348  20604988.543    20604992.431
  22641766.316    -8466954.33449  -6382956.78346  22641765.332    22641772.635
 04  1 16  2 32  0.0000000  0  8G16G22G29G26G 6G18G21G15
  23029637.869    -5857848.79149  -4551853.11346  23029637.094    23029641.721
  22828033.138    -6510904.73049  -4796425.37246  22828032.382    22828036.916
  23276414.860    -5106223.31549  -3965834.29546  23276414.424    23276419.097
  21889287.796    -9435311.23249  -7331381.82946  21889287.582    21889291.897
  21077201.899   -15267601.99449 -11522313.58747  21077201.387    21077206.559
  20630574.561   -20729266.20149 -14160284.26448  20630573.831    20630578.239
  20603092.780   -18019099.59549 -14019642.68848  20603091.956    20603095.874
  22628717.770    -8535523.90649  -6436387.53646  22628716.775    22628723.950
 04  1 16  2 32 30.0000000  0  8G16G22G29G26G 6G18G21G15
  23030067.320    -5855591.32449  -4550094.02846  23030066.597    23030071.286
  22811496.683    -6597802.77049  -4864138.05146  22811496.150    22811500.635
  23284518.633    -5063636.97549  -3932650.10846  23284518.154    23284523.036
  21891321.576    -9424623.27349  -7323053.53546  21891321.413    21891325.625
  21088804.621   -15206629.16149 -11474802.29147  21088804.155    21088809.298
  20623699.095   -20765396.98949 -14188438.09848  20623698.351    20623702.730
  20601236.515   -18028853.96649 -14027243.48448  20601235.731    20601239.677
  22615687.486    -8603997.31449  -6489743.36846  22615686.527    22615693.666
 04  1 16  2 33  0.0000000  0  8G16G22G29G26G 6G18G21G15
  23030599.548    -5852794.85449  -4547914.95146  23030598.798    23030603.453
  22795013.834    -6684418.41349  -4931630.69146  22795013.611    22795018.031
  23292718.576    -5020544.50049  -3899071.53846  23292718.117    23292723.195
  21893480.518    -9413277.84149  -7314212.91446  21893480.369    21893484.471
  21100489.165   -15145226.70549 -11426956.22247  21100488.696    21100493.809
  20616908.987   -20801079.11349 -14216242.32548  20616908.271    20616912.631
  20599419.584   -18038401.74949 -14034683.30148  20599418.819    20599422.767
  22602674.502    -8672380.08249  -6543028.56746  22602673.565    22602680.643
 04  1 16  2 33 30.0000000  0  8G16G22G29G26G 6G18G21G15
  23031234.438    -5849458.94549  -4545315.53346  23031233.618    23031238.335
  22778585.466    -6770749.04049  -4998901.23046  22778585.244    22778589.678
  23301015.070    -4976945.97349  -3865098.63246  23301014.614    23301019.725
  21895764.849    -9401273.54049  -7304858.89246  21895764.737    21895768.666
  21112255.471   -15083394.31249 -11378775.13047  21112255.020    21112260.142
  20610204.544   -20836310.97049 -14243695.69648  20610203.853    20610208.193
  20597642.409   -18047741.04449 -14041960.64648  20597641.619    20597645.555
  22589679.136    -8740670.66649  -6596241.92646  22589678.251    22589685.117
 04  1 16  2 34  0.0000000  0  8G16G22G29G26G 6G18G21G15
  23031971.818    -5845583.28549  -4542295.50046  23031971.078    23031975.818
  22762211.776    -6856792.58549  -5065948.06346  22762211.529    22762215.970
  23309407.790    -4932841.72849  -3830731.66546  23309407.393    23309412.513
  21898174.672    -9388609.67749  -7294990.91546  21898174.549    21898178.378
  21124103.556   -15021132.10349 -11330259.11647  21124103.108    21124108.288
  20603586.087   -20871091.25249 -14270797.17948  20603585.375    20603589.681
  20595905.042   -18056870.94349 -14049074.82948  20595904.232    20595908.164
  22576701.716    -8808867.87349  -6649382.53346  22576700.825    22576707.407
 04  1 16  2 34 30.0000000  0  8G16G22G29G26G 6G18G21G15
  23032812.062    -5841167.87049  -4538854.92145  23032811.327    23032815.990
  22745892.934    -6942546.97349  -5132769.58946  22745892.826    22745897.292
  23317896.701    -4888232.09149  -3795970.89846  23317896.236    23317901.458
  21900710.204    -9375285.35049  -7284608.30146  21900710.084    21900713.780
  21136033.376   -14958440.40349 -11281408.44447  21136032.939    21136038.196
  20597053.684   -20905419.27149 -14297546.25648  20597052.977    20597057.251
  20594207.731   -18065790.44349 -14056025.07148  20594206.897    20594210.847
  22563742.413    -8876970.64849  -6702449.54046  22563741.427    22563747.820
 04  1 16  2 35  0.0000000  0  8G16G22G29G26G 6G18G21G15
  23033754.176    -5836216.23849  -4534996.49545  23033753.455    23033758.121
  22729629.197    -7028013.75749  -5199367.01346  22729628.915    22729633.388
  23326480.995    -4843121.54649  -3760819.79846  23326480.553    23326485.690
  21903370.884    -9361303.77549  -7273713.53746  21903370.732    21903374.345
  21148044.236   -14895323.07249 -11232226.10747  21148043.744    21148049.095
  20590606.765   -20939298.16849 -14323945.37048  20590606.040    20590610.325
  20592549.961   -18074501.91149 -14062813.21848  20592549.135    20592553.085
  22550800.373    -8944981.52349  -6755444.95746  22550799.407    22550805.783
 04  1 16  2 35 30.0000000  0  8G16G22G29G26G 6G18G21G15
  23034798.642    -5830727.18949  -4530719.30145  23034797.882    23034802.717
  22713420.950    -7113189.56149  -5265737.69046  22713420.526    22713424.911
  23335160.804    -4797508.94249  -3725277.51246  23335160.265    23335165.414
  21906156.940    -9346662.70649  -7262304.88546  21906156.803    21906160.297
  21160136.260   -14831778.95249 -11182711.20847  21160135.763    21160141.224
  20584245.729   -20972725.72349 -14349992.78048  20584244.984    20584249.241
  20590932.242   -18083002.94749 -14069437.38548  20590931.435    20590935.396
  22537876.204    -9012898.25549  -6808367.00346  22537875.304    22537881.648
 04  1 16  2 36  0.0000000  0  8G16G22G29G26G 6G18G21G15
  23035944.982    -5824703.30749  -4526025.34945  23035944.238    23035949.026
  22697268.062    -7198074.74149  -5331881.89646  22697267.509    22697271.735
  23343935.494    -4751397.55449  -3689346.53246  23343935.010    23343940.069
  21909068.148    -9331364.11249  -7250383.87746  21909068.028    21909071.511
  21172308.906   -14767810.85149 -11132865.93747  21172308.476    21172314.038
  20577970.234   -21005703.55849 -14375689.76148  20577969.498    20577973.751
  20589354.322   -18091294.73449 -14075898.49848  20589353.547    20589357.496
  22524969.842    -9080722.16449  -6861216.72646  22524968.889    22524975.177
 04  1 16  2 36 30.0000000  0  8G16G22G29G26G 6G18G21G15
  23037192.741    -5818145.12749  -4520915.06845  23037192.153    23037196.912
  22681170.711    -7282667.84449  -5397798.51446  22681170.103    22681174.195
  23352804.904    -4704788.44649  -3653027.73146  23352804.420    23352809.538
  21912104.475    -9315408.12449  -7237950.60946  21912104.366    21912107.783
  21184562.068   -14703419.72349 -11082691.03147  21184561.643    21184567.311
  20571780.324   -21038231.40949 -14401036.10948  20571779.623    20571783.892
  20587816.360   -18099376.99249 -14082196.33848  20587815.592    20587819.476
  22512081.129    -9148452.88949  -6913993.85246  22512080.191    22512086.573
 04  1 16  2 37  0.0000000  0  8G16G22G29G26G 6G18G21G15
  23038542.236    -5811053.08049  -4515388.77445  23038541.550    23038546.416
  22665129.062    -7366966.97549  -5463486.07646  22665128.488    22665132.538
  23361768.854    -4657682.35049  -3616321.66746  23361768.354    23361773.520
  21915266.034    -9298794.14349  -7225004.62146  21915265.887    21915269.361
  21196895.620   -14638605.98649 -11032186.81647  21196895.205    21196901.001
  20565676.244   -21070308.75349 -14426031.41248  20565675.499    20565679.744
  20586318.497   -18107248.47549 -14088329.93748  20586317.739    20586321.519
  22499210.374    -9216089.39449  -6966697.56146  22499209.431    22499215.715
 04  1 16  2 37 30.0000000  0  8G16G22G29G26G 6G18G21G15
  23039993.867    -5803424.85449  -4509444.68145  23039993.104    23039997.884
  22649144.221    -7450967.86649  -5528941.24046  22649143.654    22649147.705
  23370827.915    -4610077.77749  -3579227.16246  23370827.263    23370832.430
  21918553.274    -9281519.50049  -7211543.83447  21918553.121    21918556.735
  21209310.073   -14573367.71649 -10981351.80347  21209309.611    21209315.461
  20559658.445   -21101932.65849 -14450673.38348  20559657.685    20559661.894
  20584861.445   -18114905.94449 -14094296.77548  20584860.647    20584864.307
  22486358.233    -9283628.40149  -7019325.29546  22486357.219    22486363.440
 04  1 16  2 38  0.0000000  0  8G16G22G29G26G 6G18G21G15
  23041546.523    -5795264.49049  -4503085.94745  23041545.860    23041550.466
  22633215.588    -7534672.72749  -5594165.73846  22633215.081    22633219.197
  23379980.550    -4561979.16949  -3541747.70646  23379980.077    23379985.275
  21921965.709    -9263587.70149  -7197570.97147  21921965.519    21921969.111
  21221804.391   -14507709.46449 -10930189.52647  21221803.951    21221809.819
  20553726.228   -21133106.22049 -14474964.44348  20553725.462    20553729.720
  20583444.492   -18122352.23049 -14100099.07048  20583443.679    20583447.280
  22473524.031    -9351072.78649  -7071879.29046  22473523.053    22473529.166
 04  1 16  2 38 30.0000000  0  8G16G22G29G26G 6G18G21G15
  23043200.522    -5786572.30049  -4496312.79245  23043199.855    23043204.384
  22617343.587    -7618079.39249  -5659157.86846  22617343.199    22617347.446
  23389227.313    -4513387.40649  -3503883.98046  23389226.795    23389231.946
  21925503.128    -9244998.13949  -7183085.57447  21925502.970    21925506.580
  21234378.652   -14441631.55349 -10878700.24247  21234378.176    21234384.037
  20547879.782   -21163829.05149 -14498904.27948  20547879.049    20547883.318
  20582067.880   -18129586.30049 -14105735.98848  20582067.071    20582070.626
  22460708.168    -9418421.39149  -7124358.66146  22460707.156    22460713.085
 04  1 16  2 39  0.0000000  0  8G16G22G29G26G 6G18G21G15
  23044955.173    -5777351.06249  -4489127.39445  23044954.519    23044958.869
  22601528.472    -7701188.42349  -5723918.07346  22601527.958    22601532.275
  23398567.573    -4464305.44849  -3465638.25946  23398566.979    23398571.905
  21929165.464    -9225753.10749  -7168089.41847  21929165.255    21929168.692
  21247032.206   -14375136.80249 -10826886.15447  21247031.716    21247037.573
  20542118.851   -21194102.88449 -14522494.25148  20542118.127    20542122.344
  20580731.443   -18136609.45149 -14111208.55848  20580730.617    20580734.200
  22447910.225    -9485675.60549  -7176764.47446  22447909.216    22447915.014
 04  1 16  2 39 30.0000000  0  8G16G22G29G26G 6G18G21G15
  23046810.602    -5767601.25449  -4481530.13145  23046809.716    23046813.898
  22585769.996    -7783998.23549  -5788445.13046  22585769.618    22585774.006
  23408000.567    -4414734.61149  -3427011.63446  23408000.058    23408005.057
  21932952.400    -9205852.44049  -7152582.38247  21932952.203    21932955.618
  21259764.887   -14308226.17049 -10774748.00347  21259764.421    21259770.228
  20536443.491   -21223927.13549 -14545733.89048  20536442.727    20536446.937
  20579435.246   -18143420.87949 -14116516.14748  20579434.434    20579438.008
  22435130.325    -9552834.91549  -7229096.34046  22435129.253    22435134.976
 04  1 16  2 40  0.0000000  0  8G16G22G29G26G 6G18G21G15
  23048766.669    -5757320.58749  -4473519.21445  23048766.041    23048769.903
  22570069.442    -7866504.72749  -5852735.81346  22570068.917    22570073.419
  23417527.178    -4364673.18549  -3388002.71246  23417526.613    23417531.596
  21936864.679    -9185293.53049  -7136562.42847  21936864.435    21936867.879
  21272577.078   -14240897.61949 -10722284.19547  21272576.602    21272582.381
  20530854.058   -21253299.10849 -14568621.11048  20530853.366    20530857.588
  20578180.080   -18150016.93549 -14121655.91548  20578179.253    20578182.823
  22422369.057    -9619895.73649  -7281351.44546  22422367.978    22422373.623
 04  1 16  2 40 30.0000000  0  8G16G22G29G26G 6G18G21G15
  23050822.951    -5746513.82249  -4465098.34745  23050822.368    23050825.799
  22554426.024    -7948709.88849  -5916791.70946  22554425.557    22554430.172
  23427146.110    -4314126.07049  -3348615.32846  23427145.545    23427150.578
  21940901.355    -9164080.25449  -7120032.57347  21940901.180    21940904.681
  21285467.911   -14173155.81449 -10669498.36547  21285467.428    21285473.198
  20525350.123   -21282222.54649 -14591158.82548  20525349.426    20525353.625
  20576965.316   -18156400.93949 -14126630.44248  20576964.454    20576968.001
  22409625.645    -9686861.47549  -7333532.48746  22409624.650    22409630.562
 04  1 16  2 41  0.0000000  0  8G16G22G29G26G 6G18G21G15
  23052980.174    -5735178.04949  -4456265.27145  23052979.574    23052982.556
  22538841.011    -8030608.46849  -5980608.71346  22538840.556    22538845.198
  23436857.847    -4263090.77049  -3308847.54846  23436857.341    23436862.400
  21945063.290    -9142209.23349  -7102990.19247  21945063.119    21945066.730
  21298437.935   -14104997.94749 -10616388.33547  21298437.419    21298443.191
  20519932.386   -21310693.00249 -14613343.56648  20519931.687    20519935.839
  20575791.671   -18162568.56549 -14131436.35848  20575790.796    20575794.332
  22396901.282    -9753727.74549  -7385636.02046  22396900.299    22396906.362
 04  1 16  2 41 30.0000000  0  8G16G22G29G26G 6G18G21G15
  23055236.766    -5723319.28449  -4447024.65645  23055236.123    23055239.003
  22523313.647    -8112204.43549  -6044189.91846  22523313.215    22523317.820
  23446661.167    -4211573.82549  -3268704.47346  23446660.685    23446665.758
  21949349.387    -9119685.65049  -7085439.32747  21949349.192    21949353.037
  21311485.846   -14036430.22349 -10562958.93447  21311485.406    21311491.143
  20514599.819   -21338715.82449 -14635179.49948  20514599.099    20514603.241
  20574658.323   -18168524.32249 -14136077.18748  20574657.441    20574660.944
  22384195.031    -9820499.16249  -7437665.64146  22384193.915    22384200.088
 04  1 16  2 42  0.0000000  0  8G16G22G29G26G 6G18G21G15
  23057593.118    -5710936.07749  -4437375.38845  23057592.451    23057595.362
  22507844.515    -8193494.28449  -6107532.59746  22507844.204    22507848.657
  23456556.296    -4159574.19449  -3228185.26946  23456555.855    23456560.905
  21953759.970    -9096507.84249  -7067378.67947  21953759.778    21953763.858
  21324612.164   -13967451.56349 -10509209.33247  21324611.649    21324617.305
  20509352.729   -21366289.09149 -14656665.13848  20509352.031    20509356.154
  20573565.848   -18174265.24349 -14140550.62148  20573564.967    20573568.448
  22371507.270    -9887172.74349  -7489619.01846  22371506.229    22371512.447
 04  1 16  2 42 30.0000000  0  8G16G22G29G26G 6G18G21G15
  23060048.988    -5698029.61649  -4427318.41745  23060048.461    23060051.247
  22492433.931    -8274477.04049  -6170635.97046  22492433.652    22492437.930
  23466542.989    -4107093.95349  -3187291.55346  23466542.541    23466547.472
  21958294.877    -9072676.44049  -7048808.72647  21958294.709    21958298.905
  21337816.298   -13898063.36149 -10455140.59747  21337815.827    21337821.412
  20504191.301   -21393412.80549 -14677800.46448  20504190.554    20504194.658
  20572514.221   -18179791.31749 -14144856.63848  20572513.335    20572516.819
  22358838.308    -9953748.50149  -7541496.17246  22358837.249    22358843.415
 04  1 16  2 43  0.0000000  0  8G16G22G29G26G 6G18G21G15
  23062604.402    -5684601.01749  -4416854.57145  23062603.712    23062606.397
  22477082.204    -8355151.52149  -6233499.13846  22477081.840    22477085.944
  23476620.675    -4054134.57549  -3146024.50646  23476620.244    23476625.277
  21962954.034    -9048192.08849  -7029729.98447  21962953.903    21962958.128
  21351098.206   -13828266.86249 -10400753.71947  21351097.703    21351103.238
  20499115.291   -21420087.32049 -14698585.77648  20499114.528    20499118.606
  20571503.486   -18185102.08849 -14148994.88948  20571502.625    20571506.156
  22346188.141   -10020226.11549  -7593296.84946  22346186.967    22346193.183
 04  1 16  2 43 30.0000000  0  8G16G22G29G26G 6G18G21G15
  23065258.795    -5670652.64549  -4405985.69945  23065258.034    23065260.643
  22461788.939    -8435517.45049  -6296121.88546  22461788.707    22461792.689
  23486789.237    -4000698.45549  -3104385.95946  23486788.834    23486793.838
  21967737.107    -9023056.31449  -7010143.64847  21967736.953    21967741.295
  21364457.395   -13758064.21949 -10346050.36047  21364456.844    21364462.417
  20494124.557   -21446313.67749 -14719021.87348  20494123.793    20494127.920
  20570533.724   -18190197.76249 -14152965.53548  20570532.887    20570536.461
  22333556.322   -10086606.01149  -7645021.38346  22333555.201    22333561.456
 04  1 16  2 44  0.0000000  0  8G16G22G29G26G 6G18G21G15
  23068011.873    -5656184.41449  -4394711.74445  23068011.257    23068013.747
  22446555.144    -8515572.75849  -6358502.57446  22446554.684    22446558.636
  23497048.518    -3946785.94349  -3062376.21646  23497048.032    23497053.082
  21972644.286    -8997268.45049  -6990049.18547  21972644.075    21972648.571
  21377893.749   -13687455.37149 -10291030.48047  21377893.213    21377898.893
  20489219.251   -21472091.00549 -14739108.08248  20489218.499    20489222.641
  20569605.256   -18195076.60649 -14156767.22148  20569604.419    20569608.021
  22320943.551   -10152886.57749  -7696668.51846  22320942.433    22320948.716
 04  1 16  2 44 30.0000000  0  8G16G22G29G26G 6G18G21G15
  23070863.736    -5641197.97649  -4383034.01445  23070863.093    23070865.685
  22431380.362    -8595316.55249  -6420640.52946  22431379.889    22431383.873
  23507398.083    -3892399.56349  -3019997.21946  23507397.587    23507402.551
  21977675.281    -8970829.81049  -6969447.63647  21977675.052    21977679.647
  21391407.023   -13616442.42449 -10235695.71547  21391406.507    21391412.261
  20484399.314   -21497419.94949 -14758844.90248  20484398.526    20484402.690
  20568717.978   -18199739.20249 -14160400.40348  20568717.143    20568720.781
  22308349.647   -10219068.12149  -7748238.48946  22308348.542    22308354.697
 04  1 16  2 45  0.0000000  0  8G16G22G29G26G 6G18G21G15
  23073813.952    -5625695.18949  -4370953.91245  23073813.222    23073815.997
  22416264.875    -8674748.32949  -6482535.35246  22416264.433    22416268.482
  23517837.336    -3837541.22549  -2977250.45446  23517836.850    23517841.777
  21982829.929    -8943741.59049  -6948339.91047  21982829.674    21982834.429
  21404996.937   -13545027.05249 -10180047.36847  21404996.419    21405002.174
  20479664.482   -21522301.33349 -14778232.96648  20479663.724    20479667.938
  20567871.915   -18204185.51649 -14163865.05648  20567871.069    20567874.698
  22295774.515   -10285150.62349  -7799731.28946  22295773.398    22295779.598
 04  1 16  2 45 30.0000000  0  8G16G22G29G26G 6G18G21G15
  23076862.426    -5609675.06049  -4358470.70145  23076861.701    23076864.532
  22401209.378    -8753865.23849  -6544184.81746  22401208.886    22401213.009
  23528366.510    -3782210.49849  -2934135.59746  23528365.982    23528370.944
  21988108.328    -8916002.67149  -6926725.14847  21988108.159    21988112.956
  21418663.517   -13473208.75149 -10124085.05447  21418663.018    21418668.781
  20475015.170   -21546733.44349 -14797270.94348  20475014.393    20475018.636
  20567067.531   -18208413.14949 -14167159.30548  20567066.646    20567070.233
  22283218.579   -10351131.64749  -7851145.02446  22283217.530    22283223.912
 04  1 16  2 46  0.0000000  0  8G16G22G29G26G 6G18G21G15
  23080008.290    -5593143.47749  -4345588.92445  23080007.653    23080010.382
  22386213.061    -8832670.72949  -6605591.64147  22386212.678    22386216.781
  23538984.183    -3726413.89149  -2890657.73246  23538983.681    23538988.505
  21993509.653    -8887618.29949  -6904607.44747  21993509.450    21993514.419
  21432405.709   -13400993.48149 -10067813.42047  21432405.194    21432410.921
  20470450.274   -21570721.68449 -14815963.05148  20470449.513    20470453.763
  20566303.923   -18212426.13249 -14170286.30248  20566303.015    20566306.606
  22270681.278   -10417015.68149  -7902483.18746  22270680.179    22270686.641
 04  1 16  2 46 30.0000000  0  8G16G22G29G26G 6G18G21G15
  23083253.026    -5576093.35149  -4332303.11945  23083252.296    23083254.980
  22371277.943    -8911155.15749  -6666748.27147  22371277.607    22371281.706
  23549691.980    -3670144.36649  -2846811.34746  23549691.468    23549696.002
  21999035.259    -8858580.68549  -6881980.71647  21999035.005    21999040.033
  21446224.776   -13328374.03749 -10011226.83547  21446224.258    21446229.954
  20465971.544   -21594257.32349 -14834302.47448  20465970.783    20465975.047
  20565582.810   -18216215.37649 -14173238.95448  20565581.924    20565585.538
  22258164.055   -10482793.65749  -7953738.70247  22258163.024    22258169.501
 04  1 16  2 47  0.0000000  0  8G16G22G29G26G 6G18G21G15
  23086594.208    -5558536.55949  -4318622.50445  23086593.364    23086596.063
  22356402.093    -8989328.24749  -6727662.29647  22356401.815    22356405.905
  23560487.368    -3613414.36349  -2802606.16546  23560486.794    23560491.277
  22004682.957    -8828901.42849  -6858854.01347  22004682.745    22004687.811
  21460118.438   -13255362.53549  -9954334.75447  21460117.909    21460123.565
  20461576.840   -21617351.40549 -14852297.83748  20461576.096    20461580.384
  20564902.300   -18219791.41849 -14176025.46848  20564901.405    20564905.032
  22245665.158   -10548476.07349  -8004919.74647  22245664.087    22245670.544
 04  1 16  2 47 30.0000000  0  8G16G22G29G26G 6G18G21G15
  23090032.463    -5540468.63349  -4304543.60745  23090031.534    23090034.640
  22341587.004    -9067182.88149  -6788328.17847  22341586.641    22341590.722
  23571371.141    -3556219.57749  -2758038.79246  23571370.570    23571374.981
  22010453.791    -8798575.31649  -6835223.27547  22010453.610    22010458.682
  21474087.539   -13181954.39149  -9897133.60547  21474087.039    21474092.634
  20457267.193   -21639998.35049 -14869944.78948  20457266.489    20457270.773
  20564263.569   -18223147.75449 -14178640.78648  20564262.697    20564266.309
  22233185.642   -10614056.24849  -8056021.14047  22233184.577    22233190.909
 04  1 16  2 48  0.0000000  0  9G16G 2G22G29G26G 6G18G21G15
  23093567.516    -5521890.69549  -4290067.27145  23093566.597    23093569.980
                   -501078.44649   -307441.76843
  22326832.743    -9144717.85649  -6848744.97747  22326832.276    22326836.345
  23582342.976    -3498561.79249  -2713110.64746  23582342.395    23582346.708
  22016347.648    -8767603.12549  -6811089.08347  22016347.450    22016352.478
  21488131.953   -13108150.86149  -9839624.36147  21488131.446    21488136.982
  20453042.737   -21662198.11749 -14887243.28548  20453042.024    20453046.275
  20563666.744   -18226283.69649 -14181084.36348  20563665.900    20563669.501
  22220725.618   -10679533.47249  -8107042.30146  22220724.503    22220730.850
 04  1 16  2 48 30.0000000  0  8G16G22G29G26G 6G18G21G15
  23097198.923    -5502807.81149  -4275197.47145  23097198.033    23097201.262
  22312138.682    -9221935.95249  -6908914.85847  22312138.208    22312142.246
  23593401.754    -3440446.32249  -2667825.85946  23593401.159    23593405.486
  22022363.543    -8735989.46149  -6786455.05247  22022363.395    22022368.460
  21502250.625   -13033957.07849  -9781811.02547  21502250.112    21502255.528
  20448902.432   -21683955.24449 -14904196.87348  20448901.740    20448905.986
  20563111.354   -18229202.24049 -14183358.54548  20563110.505    20563114.112
  22208284.411   -10744911.40149  -8157986.10247  22208283.366    22208289.734
 04  1 16  2 49  0.0000000  0  8G16G22G29G26G 6G18G21G15
  23100926.478    -5483219.78249  -4259934.07745  23100925.571    23100928.724
  22297505.455    -9298834.42149  -6968835.67747  22297504.919    22297508.928
  23604547.800    -3381873.22749  -2622184.48546  23604547.312    23604551.453
  22028501.726    -8703733.61049  -6761320.60847  22028501.605    22028506.575
  21516443.637   -12959372.73249  -9723693.35647  21516443.116    21516448.410
  20444846.728   -21705268.00349 -14920804.19648  20444846.038    20444850.291
  20562597.700   -18231901.52449 -14185461.87348  20562596.860    20562600.457
  22195862.677   -10810187.70149  -8208850.70847  22195861.605    22195868.000
 04  1 16  2 49 30.0000000  0  9G16G 2G22G29G26G 6G18G21G15
  23104750.348    -5463125.83749  -4244276.45045  23104749.395    23104752.375
                   -568350.52449   -359854.73343
  22282933.434    -9375410.26649  -7028505.11747  22282933.026    22282936.982
  23615780.796    -3322842.45149  -2576186.47346  23615780.346    23615784.592
  22034762.314    -8670834.52549  -6735684.94947  22034762.161    22034767.069
  21530711.029   -12884397.27549  -9665270.92247  21530710.519    21530715.704
  20440875.938   -21726134.75549 -14937063.97748  20440875.227    20440879.488
  20562126.208   -18234379.20249 -14187392.52148  20562125.347    20562128.930
  22183460.570   -10875359.95849  -8259634.24847  22183459.561    22183466.050
 04  1 16  2 50  0.0000000  0  8G16G22G29G26G 6G18G21G15
  23108669.464    -5442528.86849  -4228226.84945  23108668.850    23108672.007
  22268422.828    -9451663.90649  -7087923.48047  22268422.452    22268426.370
  23627100.430    -3263357.01549  -2529834.19746  23627099.969    23627104.400
  22041144.787    -8637294.72649  -6709550.02247  22041144.603    22041149.378
  21545052.355   -12809033.51549  -9606545.91547  21545051.821    21545056.945
  20436989.551   -21746557.83349 -14952978.03848  20436988.827    20436993.078
  20561696.771   -18236635.94649 -14189151.01448  20561695.934    20561699.463
  22171078.307   -10940429.24649  -8310337.54347  22171077.332    22171083.624
 04  1 16  2 50 30.0000000  0  9G16G 2G22G29G26G 6G18G21G15
  23112684.771    -5421427.73449  -4211784.40745  23112684.141    23112687.426
                   -611079.04949   -317118.11343
  22253974.230    -9527591.63049  -7147087.88847  22253973.904    22253977.711
  23638506.982    -3203416.09749  -2483126.98446  23638506.462    23638510.801
  22047649.453    -8603112.45749  -6682914.47147  22047649.290    22047653.961
  21559467.720   -12733280.19349  -9547517.35347  21559467.221    21559472.293
  20433188.192   -21766534.38849 -14968544.15348  20433187.429    20433191.659
  20561309.941   -18238668.67649 -14190734.94348  20561309.072    20561312.616
  22158716.412   -11005392.17149  -8360957.97047  22158715.341    22158721.467
 04  1 16  2 51  0.0000000  0  9G16G 2G22G29G26G 6G18G21G15
  23116794.917    -5399829.40049  -4194954.53045  23116794.147    23116797.405
                   -631809.87749   -333272.11044                  24893786.772
  22239586.958    -9603198.23149  -7206002.07047  22239586.465    22239590.223
  23649998.842    -3143027.28649  -2436070.77946  23649998.256    23650002.442
  22054275.127    -8568294.12249  -6655783.28847  22054275.013    22054279.621
  21573955.828   -12657144.46149  -9488190.81247  21573955.352    21573960.395
  20429470.529   -21786070.76649 -14983767.28648  20429469.753    20429473.981
  20560964.685   -18240482.56049 -14192148.35248  20560963.841    20560967.441
  22146373.696   -11070254.03549  -8411499.64447  22146372.585    22146378.666
 04  1 16  2 51 30.0000000  0  9G16G 2G22G29G26G 6G18G21G15
  23121000.093    -5377731.46649  -4177735.36245  23120999.326    23121002.452
  24889918.614     -652116.14449   -349095.12944  24889917.888    24889917.529
  22225261.512    -9678478.79449  -7264662.20147  22225261.002    22225264.703
  23661576.142    -3082188.34749  -2388663.82546  23661575.572    23661579.664
  22061022.363    -8532837.38949  -6628154.65447  22061022.242    22061026.744
  21588517.184   -12580624.03149  -9428564.51047  21588516.721    21588521.711
  20425837.243   -21805163.33349 -14998644.59948  20425836.538    20425840.783
  20560661.960   -18242073.05949 -14193387.69448  20560661.141    20560664.783
  22134050.953   -11135010.35949  -8461959.09147  22134049.886    22134055.869
 04  1 16  2 52  0.0000000  0  9G16G 2G22G29G26G 6G18G21G15
  23125300.097    -5355134.18749  -4160127.07845  23125299.418    23125302.370
  24886135.981     -671996.27749   -364586.17145  24886135.357    24886135.919
  22210998.578    -9753431.11249  -7323066.54347  22210997.966    22211001.679
  23673238.796    -3020899.72649  -2340906.46946  23673238.379    23673242.660
  22067891.219    -8496741.65449  -6600028.09047  22067891.017    22067895.447
  21603151.787   -12503718.87649  -9368638.40947  21603151.290    21603156.228
  20422288.725   -21823811.20049 -15013175.38148  20422287.964    20422292.192
  20560402.112   -18243438.32049 -14194451.51148  20560401.291    20560404.962
  22121748.682   -11199659.39649  -8512334.92647  22121747.633    22121753.464
 04  1 16  2 52 30.0000000  0  9G16G 2G22G29G26G 6G18G21G15
  23129694.572    -5332041.23549  -4142132.57145  23129693.737    23129696.746
  24882433.942     -691452.22449   -379746.61045  24882432.821    24882435.325
  22196797.719    -9828056.04549  -7381215.78847  22196797.247    22196800.952
  23684986.612    -2959165.45949  -2292801.83846  23684986.105    23684990.488
  22074880.883    -8460010.20249  -6571406.16947  22074880.748    22074885.126
  21617858.860   -12426432.65349  -9308415.38047  21617858.378    21617863.309
  20418824.266   -21842016.95449 -15027361.66048  20418823.503    20418827.719
  20560184.827   -18244579.94049 -14195341.07148  20560184.021    20560187.703
  22109466.573   -11264202.59949  -8562628.28847  22109465.486    22109471.298
 04  1 16  2 53  0.0000000  0  9G16G 2G22G29G26G 6G18G21G15
  23134182.371    -5308456.16849  -4123754.59345  23134181.719    23134184.674
  24878811.882     -710486.02148   -394578.09444  24878810.908    24878813.716
  22182658.989    -9902355.00649  -7439111.03847  22182658.605    22182662.263
  23696818.271    -2896989.47349  -2244353.03146  23696817.795    23696822.318
  22081991.056    -8422646.43849  -6542291.53447  22081990.866    22081995.144
  21632637.667   -12348769.22749  -9247898.42647  21632637.187    21632642.180
  20415443.490   -21859782.96049 -15041205.28948  20415442.753    20415446.973
  20560009.851   -18245499.72449 -14196057.77648  20560009.002    20560012.686
  22097203.990   -11328641.85749  -8612840.66847  22097202.995    22097208.801
 04  1 16  2 53 30.0000000  0  9G16G 2G22G29G26G 6G18G21G15
  23138764.444    -5284377.28249  -4104991.79245  23138763.618    23138766.744
  24875270.486     -729094.62648   -409078.27944  24875269.489    24875273.419
  22168583.284    -9976323.92049  -7496749.09847  22168582.800    22168586.396
  23708734.197    -2834370.28149  -2195558.84046  23708733.825    23708738.472
  22089221.939    -8384648.21749  -6512682.52147  22089221.710    22089225.994
  21647488.515   -12270726.75449  -9187086.10347  21647488.086    21647493.179
  20412146.822   -21877106.96449 -15054704.48948  20412146.085    20412150.282
  20559877.730   -18246194.08649 -14196598.82148  20559876.834    20559880.551
  22084962.130   -11392973.54549  -8662969.22347  22084961.120    22084966.907
 04  1 16  2 54  0.0000000  0  9G16G 2G22G29G26G 6G18G21G15
  23143440.119    -5259806.11549  -4085845.43845  23143439.231    23143442.587
  24871809.957     -747277.72348   -423246.84144  24871809.283    24871813.657
  22154570.548   -10049961.66049  -7554129.11447  22154570.040    22154573.468
  23720734.145    -2771309.98149  -2146420.94546  23720733.768    23720738.574
  22096573.317    -8346016.70849  -6482580.02746  22096573.061    22096577.349
  21662411.327   -12192306.63949  -9125979.51847  21662410.885    21662416.091
  20408934.278   -21893988.95449 -15067859.26948  20408933.549    20408937.754
  20559788.633   -18246662.08549 -14196963.48248  20559787.745    20559791.474
  22072740.830   -11457196.99549  -8713013.43147  22072739.830    22072745.595
 04  1 16  2 54 30.0000000  0  9G16G 2G22G29G26G 6G18G21G15
  23148208.334    -5234748.96749  -4066320.36545  23148207.420    23148210.646
  24868430.412     -765039.86748   -437087.48444  24868429.327    24868433.286
  22140620.236   -10123271.69649  -7611253.75547  22140619.568    22140622.952
  23732816.855    -2707814.92349  -2096944.26646  23732816.463    23732821.404
  22104043.924    -8306757.57549  -6451988.49146  22104043.699    22104048.167
  21677404.866   -12113515.06149  -9064583.47447  21677404.375    21677409.710
  20405804.824   -21910434.17049 -15080673.70348  20405804.106    20405808.327
  20559741.823   -18246907.63649 -14197154.80648  20559740.968    20559744.740
  22060539.386   -11521316.19849  -8762976.40347  22060538.357    22060544.028
 04  1 16  2 55  0.0000000  0  9G16G 2G22G29G26G 6G18G21G15
  23153069.527    -5209203.06049  -4046414.46945  23153068.604    23153071.748
  24865131.338     -782376.69348   -450596.66344  24865130.316    24865133.487
  22126732.987   -10196249.17649  -7668119.28747  22126732.372    22126735.691
  23744982.850    -2643882.65649  -2047126.92446  23744982.351    23744987.379
  22111634.667    -8266867.81249  -6420905.54146  22111634.435    22111638.918
  21692469.547   -12034349.25949  -9002895.83247  21692469.076    21692474.561
  20402759.180   -21926439.34049 -15093145.24548  20402758.444    20402762.636
  20559738.301   -18246926.08349 -14197169.16548  20559737.480    20559741.211
  22048358.570   -11585326.19749  -8812854.29847  22048357.570    22048363.330
 04  1 16  2 55 30.0000000  0  9G16G 2G22G29G26G 6G18G21G15
  23158022.668    -5183173.18949  -4026131.43345  23158021.845    23158025.104
  24861912.302     -799291.55258   -463777.10444  24861911.730
  22112908.627   -10268896.36449  -7724727.43047  22112908.062    22112911.292
  23757230.883    -2579518.51149  -1996973.01246  23757230.392    23757235.486
  22119344.417    -8226351.99649  -6389334.77046  22119344.187    22119348.865
  21707604.601   -11954813.94249  -8940920.25947  21707604.098    21707609.701
  20399796.662   -21942007.76449 -15105276.45748  20399795.885    20399800.032
  20559777.539   -18246720.09149 -14197008.63548  20559776.683    20559780.415
  22036198.088   -11649229.45249  -8862649.00447  22036197.088    22036202.893
 04  1 16  2 56  0.0000000  0  8G16G22G29G26G 6G18G21G15
  23163068.271    -5156656.94349  -4005469.38045  23163067.582    23163071.138
  22099148.069   -10341208.11549  -7781074.20847  22099147.589    22099150.764
  23769561.323    -2514720.17349  -1946480.81846  23769560.906    23769566.336
  22127173.865    -8185207.29649  -6357273.96146  22127173.657    22127178.523
  21722810.343   -11874906.76149  -8878654.92147  21722809.852    21722815.538
  20396917.984   -21957135.29849 -15117064.13048  20396917.228    20396921.355
  20559860.279   -18246285.13149 -14196669.69748  20559859.465    20559863.203
  22024058.696   -11713021.73349  -8912357.24847  22024057.752    22024063.526
 04  1 16  2 56 30.0000000  0  8G16G22G29G26G 6G18G21G15
  23168206.979    -5129652.88049  -3984427.23345  23168206.254    23168209.962
  22085452.079   -10413180.66749  -7837156.66947  22085451.650    22085454.821
  23781974.852    -2449486.18549  -1895649.14646  23781974.481    23781980.144
  22135123.326    -8143431.94949  -6324721.72846  22135123.124    22135128.153
  21738087.164   -11794626.17749  -8816098.62047  21738086.626    21738092.393
  20394123.568   -21971820.07949 -15128506.79648  20394122.822    20394126.931
  20559987.408   -18245617.37249 -14196149.36048  20559986.587    20559990.272
  22011941.226   -11776699.50049  -8961976.26147  22011940.311    22011946.016
 04  1 16  2 57  0.0000000  0  8G16G22G29G26G 6G18G21G15
  23173436.292    -5102172.24749  -3963013.72645  23173435.555    23173439.471
  22071819.054   -10484822.48849  -7892981.40747  22071818.608    22071821.818
  23794469.171    -2383828.46249  -1844487.27146  23794468.762    23794474.465
  22143190.756    -8101036.71749  -6291686.46546  22143190.589    22143195.693
  21753432.962   -11713983.21049  -8753259.94247  21753432.392    21753438.169
  20391411.512   -21986072.15849 -15139612.29048  20391410.740    20391414.835
  20560157.194   -18244725.69449 -14195454.52948  20560156.330    20560159.982
  21999843.901   -11840271.36249  -9011512.74547  21999842.975    21999848.619
 04  1 16  2 57 30.0000000  0  8G16G22G29G26G 6G18G21G15
  23178756.574    -5074214.27349  -3941228.28545  23178755.762    23178759.678
  22058249.623   -10556130.36549  -7948545.93147  22058249.162    22058252.354
  23807044.231    -2317746.34149  -1792994.69546  23807043.807    23807049.557
  22151376.349    -8058020.71649  -6258167.50246  22151376.271    22151381.383
  21768847.833   -11632977.14149  -8690138.34147  21768847.251    21768853.039
  20388782.158   -21999889.35049 -15150378.91448  20388781.430    20388785.486
  20560370.040   -18243606.92249 -14194582.75648  20560369.193    20560372.889
  21987767.389   -11903734.38349  -9060964.42847  21987766.436    21987771.926
 04  1 16  2 58  0.0000000  0  8G16G22G29G26G 6G18G21G15
  23184167.449    -5045778.61949  -3919070.60245  23184166.646    23184170.905
  22044744.346   -10627101.38649  -8003847.97147  22044743.831    22044746.968
  23819699.971    -2251239.84449  -1741171.45546  23819699.545    23819705.349
  22159680.329    -8014383.28549  -6224164.29846  22159680.213    22159685.357
  21784331.917   -11551607.52249  -8626733.44447  21784331.291    21784337.081
  20386235.772   -22013270.75549 -15160805.96548  20386235.023    20386239.052
  20560626.521   -18242258.90349 -14193532.34248  20560625.665    20560629.381
  21975712.051   -11967086.09449  -9110329.36447  21975711.072    21975716.473
 04  1 16  2 58 30.0000000  0  8G16G22G29G26G 6G18G21G15
  23189668.066    -5016871.34049  -3896545.46345  23189667.309    23189671.820
  22031302.328   -10697739.21249  -8058890.38047  22031301.867    22031304.986
  23832435.200    -2184315.12849  -1689022.32846  23832434.799    23832440.755
  22168101.520    -7970130.07149  -6189681.25446  22168101.363    22168106.477
  21799883.972   -11469880.23349  -8563049.85247  21799883.415    21799889.179
  20383771.447   -22026220.86749 -15170896.94748  20383770.709    20383774.737
  20560925.932   -18240685.30349 -14192306.15248  20560925.078    20560928.806
  21963677.121   -12030329.97349  -9159610.28347  21963676.124    21963681.529
 04  1 16  2 59  0.0000000  0  8G16G22G29G26G 6G18G21G15
  23195258.881    -4987488.96849  -3873650.07645  23195258.207    23195263.387
  22017924.868   -10768037.52549  -8113668.24347  22017924.438    22017927.581
  23845250.609    -2116968.99749  -1636544.83646  23845250.256    23845256.227
  22176640.563    -7925257.01749  -6154715.23846  22176640.421    22176645.616
  21815504.804   -11387791.67349  -8499084.74747  21815504.291    21815510.081
  20381390.096   -22038734.82349 -15180648.07848  20381389.388    20381393.402
  20561269.428   -18238880.20049 -14190899.57948  20561268.570    20561272.298
  21951663.749   -12093460.24649  -9208802.68847  21951662.790    21951668.199
 04  1 16  2 59 30.0000000  0  8G16G22G29G26G 6G18G21G15
  23200939.216    -4957638.05349  -3850389.58745  23200938.515    23200943.817
  22004611.345   -10838000.41549  -8168184.72947  22004610.885    22004614.054
  23858145.192    -2049208.27949  -1583744.26146  23858144.660    23858150.426
  22185296.219    -7879770.86649  -6119271.46646  22185296.139    22185301.254
  21831193.126   -11305348.41249  -8434843.25047  21831192.660    21831198.462
  20379090.706   -22050818.21649 -15190063.69548  20379089.999    20379093.981
  20561656.145   -18236847.69149 -14189315.79948  20561655.312    20561659.064
  21939671.289   -12156481.29749  -9257909.98447  21939670.262    21939675.702
 04  1 16  3  0  0.0000000  0  8G16G22G29G26G 6G18G21G15
  23206709.322    -4927314.38249  -3826760.74045  23206708.641    23206714.418
  21991362.984   -10907621.08749  -8222434.56147  21991362.486    21991365.618
  23871119.319    -1981029.02649  -1530617.56145  23871118.778    23871124.350
  22194069.480    -7833666.99649  -6083346.36746  22194069.396    22194074.551
  21846949.796   -11222546.28249  -8370322.10847  21846949.392    21846955.249
  20376874.265   -22062466.05449 -15199139.91248  20376873.504    20376877.454
  20562087.346   -18234581.29049 -14187549.76748  20562086.534    20562090.330
  21927700.594   -12219386.75749  -9306927.19847  21927699.640    21927705.123
 04  1 16  3  0 30.0000000  0  8G16G22G29G26G 6G18G21G15
  23212567.971    -4896525.50349  -3802769.42045  23212567.355    23212573.429
  21978178.825   -10976904.38449  -8276421.50347  21978178.274    21978181.391
  23884171.535    -1912438.76949  -1477170.62145  23884170.953    23884176.536
  22202959.049    -7786952.43849  -6046945.41746  22202958.901    22202963.963
  21862773.409   -11139392.31549  -8305526.81847  21862773.037    21862778.917
  20374739.444   -22073684.31649 -15207881.40548  20374738.732    20374742.690
  20562562.145   -18232086.04049 -14185605.41048  20562561.375    20562565.159
  21915751.163   -12282181.12349  -9355857.85247  21915750.222    21915755.716
 04  1 16  3  1  0.0000000  0  8G16G22G29G26G 6G18G21G15
  23218515.840    -4865269.07749  -3778413.74745  23218515.156    23218521.413
  21965059.623   -11045845.52549  -8330141.82547  21965059.166    21965062.268
  23897302.178    -1843435.69049  -1423401.98945  23897301.802    23897306.997
  22211965.195    -7739624.70049  -6010066.65946  22211965.056    22211970.204
  21878664.460   -11055884.21749  -8240455.56747  21878664.116    21878670.005
  20372687.115   -22084469.34149 -15216285.29448  20372686.403    20372690.341
  20563081.483   -18229357.43449 -14183479.20848  20563080.665    20563084.429
  21903823.608   -12344859.79949  -9404698.34547  21903822.729    21903828.314
 04  1 16  3  1 30.0000000  0  8G16G22G29G26G 6G18G21G15
  23224551.303    -4833550.45949  -3753697.92145  23224550.748    23224557.177
  21952005.172   -11114447.21749  -8383597.65247  21952004.654    21952007.747
  23910510.700    -1774025.17349  -1369315.86545  23910510.339    23910515.114
  22221087.041    -7691688.87249  -5972714.05546  22221086.962    22221092.092
  21894621.970   -10972027.11849  -8175112.38247  21894621.639    21894627.472
  20370716.347   -22094825.86249 -15224355.29348  20370715.617    20370719.514
  20563644.667   -18226398.20049 -14181173.31148  20563643.816    20563647.575
  21891917.687   -12407425.70849  -9453450.97647  21891916.831    21891922.344
 04  1 16  3  2  0.0000000  0  8G16G22G29G26G 6G18G21G15
  23230674.716    -4801370.14949  -3728622.35845  23230674.249    23230681.054
  21939015.681   -11182707.15249  -8436787.16847  21939015.186    21939018.303
  23923796.546    -1704207.70949  -1314912.64245  23923796.122    23923800.847
  22230324.615    -7643145.26249  -5934887.85446  22230324.527    22230329.653
  21910645.889   -10887821.18449  -8109497.36947  21910645.576    21910651.274
  20368827.368   -22104752.55449 -15232090.35748  20368826.635    20368830.486
  20564252.196   -18223205.78549 -14178685.71348  20564251.355    20564255.113
  21880033.737   -12469876.76249  -9502114.10647  21880032.789    21880038.265
 04  1 16  3  2 30.0000000  0  8G16G22G29G26G 6G18G21G15
  23236885.774    -4768729.92749  -3703188.40145  23236885.499    23236892.439
  21926091.376   -11250624.69249  -8489709.88847  21926090.863    21926093.988
  23937159.128    -1633985.52149  -1260194.06945  23937158.719    23937163.721
  22239677.555    -7593995.27149  -5896589.15946  22239677.461    22239682.536
  21926735.900   -10803268.14049  -8043611.88747  21926735.547    21926741.066
  20367020.013   -22114250.32349 -15239491.20948  20367019.306    20367023.115
  20564904.168   -18219780.13749 -14176016.38248  20564903.284    20564907.008
  21868171.661   -12532212.43549  -9550687.33547  21868170.701    21868176.075
 04  1 16  3  3  0.0000000  0  8G16G22G29G26G 6G18G21G15
  23243184.315    -4735632.13249  -3677397.90445  23243183.868    23243190.613
  21913232.339   -11318199.60649  -8542365.62647  21913231.795    21913234.933
  23950598.191    -1563361.04849  -1205162.01045  23950597.896    23950602.898
  22249145.487    -7544240.91649  -5857819.52846  22249145.307    22249150.371
  21942891.600   -10718370.07149  -7977457.55747  21942891.212    21942896.470
  20365294.083   -22123320.31649 -15246558.72448  20365293.331    20365297.135
  20565600.486   -18216120.91549 -14173165.03248  20565599.582    20565603.317
  21856331.601   -12594432.48549  -9599170.45747  21856330.637    21856335.960
 04  1 16  3  3 30.0000000  0  8G16G22G29G26G 6G18G21G15
  23249569.424    -4702079.22249  -3651252.76145  23249568.998    23249575.610
  21900438.428   -11385431.67649  -8594754.21547  21900437.922    21900441.113
  23964113.828    -1492336.92449  -1149818.51145  23964113.559    23964117.852
  22258727.881    -7493884.59149  -5818580.82646  22258727.694    22258732.815
  21959112.466   -10633129.38649  -7911036.25347  21959112.073    21959117.080
  20363649.293   -22131963.69749 -15253293.82048  20363648.539    20363652.358
  20566341.103   -18212228.52049 -14170131.99348  20566340.239    20566343.964
  21844513.601   -12656536.67949  -9647563.30847  21844512.589    21844517.903
 04  1 16  3  4  0.0000000  0  9G16G 3G22G29G26G 6G18G21G15
  23256040.845    -4668074.17849  -3624755.33345  23256040.257    23256046.290
                   -355651.73849   -245220.44643
  21887709.726   -11452321.08949  -8646875.80647  21887709.264    21887712.442
  23977704.867    -1420916.32949  -1094166.08945  23977704.610    23977708.489
  22268424.298    -7442928.98949  -5778875.17346  22268424.171    22268429.276
  21975398.000   -10547548.98849  -7844350.24147  21975397.539    21975402.333
  20362085.399   -22140182.27249 -15259697.90048  20362084.622    20362088.427
  20567126.105   -18208102.93249 -14166917.24848  20567125.286    20567128.994
  21832717.489   -12718525.30149  -9695866.11047  21832716.505    21832721.730
 04  1 16  3  4 30.0000000  0  9G16G 3G22G29G26G 6G18G21G15
  23262598.260    -4633616.60849  -3597905.28545  23262597.798    23262603.137
                   -451008.11449   -319523.96744                  23914770.980
  21875046.834   -11518864.99949  -8698728.16847  21875046.380    21875049.536
  23991371.183    -1349099.24849  -1038204.71245  23991370.780    23991374.418
  22278234.971    -7391373.77749  -5738702.27546  22278234.819    22278239.905
  21991748.197   -10461628.38749  -7777399.12747  21991747.730    21991752.396
  20360602.506   -22147974.86349 -15265770.03548  20360601.729    20360605.572
  20567956.099   -18203741.41449 -14163518.65348  20567955.271    20567958.953
  21820944.021   -12780395.50149  -9744076.62547  21820943.006    21820948.186
 04  1 16  3  5  0.0000000  0  9G16G 3G22G29G26G 6G18G21G15
  23269241.135    -4598710.24649  -3570705.51245  23269240.589    23269245.532
  23896661.835     -546163.33049   -393670.87345  23896660.836    23896664.379
  21862449.510   -11585064.40149  -8750312.09447  21862449.052    21862452.212
  24005111.962    -1276889.23949   -981937.20145  24005111.788    24005115.325
  22288159.130    -7339222.07249  -5698064.59046  22288158.959    22288164.034
  22008162.502   -10375370.86949  -7710185.49347  22008162.026    22008166.577
  20359200.223   -22155343.53049 -15271511.84048  20359199.470    20359203.362
  20568830.777   -18199144.76149 -14159936.84148  20568829.935    20568833.613
  21809192.784   -12842148.17649  -9792195.57047  21809191.801    21809197.059
 04  1 16  3  5 30.0000000  0  9G16G 3G22G29G26G 6G18G21G15
  23275968.092    -4563360.38649  -3543160.15745  23275967.583    23275972.457
  23878592.270     -641118.01549   -467661.47245  23878590.516    23878594.652
  21849917.208   -11650921.68249  -8801629.42547  21849916.817    21849919.958
  24018926.731    -1204291.59249   -925367.59745  24018926.404    24018929.716
  22298195.889    -7286478.77849  -5656965.91746  22298195.691    22298200.670
  22024639.852   -10288781.45649  -7642713.21947  22024639.469    22024643.968
  20357877.882   -22162292.38249 -15276926.50448  20357877.145    20357881.014
  20569749.638   -18194315.74449 -14156173.96448  20569748.829    20569752.544
  21797463.434   -12903786.06849  -9840225.08147  21797462.491    21797467.689
 04  1 16  3  6  0.0000000  0  9G16G 3G22G29G26G 6G18G21G15
  23282780.473    -4527562.49349  -3515265.68945  23282779.816    23282784.730
  23860562.953     -735863.17349   -541488.78645  23860561.466    23860565.465
  21837451.461   -11716430.04449  -8852674.85947  21837451.017    21837454.106
  24032816.117    -1131302.17849   -868492.70445  24032815.867    24032819.019
  22308345.856    -7233139.60249  -5615402.92746  22308345.734    22308350.823
  22041181.335   -10201855.59749  -7574978.78547  22041180.968    22041185.433
  20356636.438   -22168815.90449 -15282009.75148  20356635.714    20356639.619
  20570714.133   -18189247.19649 -14152224.44248  20570713.341    20570717.067
  21785757.452   -12965301.96949  -9888159.51947  21785756.425    21785761.592
 04  1 16  3  6 30.0000000  0  9G16G 3G22G29G26G 6G18G21G15
  23289677.882    -4491319.09349  -3487024.09345  23289677.051    23289681.546
  23842574.036     -830397.00249   -615151.46145  23842573.170    23842575.751
  21825052.071   -11781589.27149  -8903448.25747  21825051.651    21825054.671
  24046779.589    -1057923.62949   -811314.61745  24046779.360    24046782.430
  22318608.967    -7179206.66049  -5573377.26946  22318608.888    22318613.925
  22057786.415   -10114595.65649  -7506984.03247  22057786.032    22057790.414
  20355475.761   -22174915.02149 -15286762.31048  20355475.038    20355478.990
  20571724.307   -18183939.12849 -14148088.28348  20571723.492    20571727.130
  21774074.533   -13026695.59149  -9935998.68847  21774073.453    21774078.698
 04  1 16  3  7  0.0000000  0  9G16G 3G22G29G26G 6G18G21G15
  23296658.219    -4454637.76749  -3458441.21445  23296657.549    23296661.516
  23824624.818     -924722.19549   -688651.57945  23824623.806    23824626.121
  21812718.267   -11846404.01649  -8953953.22147  21812717.800    21812720.798
  24060815.564     -984163.65649   -753839.32845  24060815.293    24060818.531
  22328983.672    -7124687.32949  -5530894.67246  22328983.586    22328988.618
  22074453.637   -10027008.80649  -7438734.53247  22074453.284    22074457.618
  20354394.662   -22180596.05649 -15291189.08548  20354393.966    20354397.914
  20572779.178   -18178396.40649 -14143769.26748  20572778.312    20572781.864
  21762413.794   -13087971.87049  -9983746.40847  21762412.835    21762418.110
 04  1 16  3  7 30.0000000  0  9G16G 3G22G29G26G 6G18G21G15
  23303722.827    -4417515.10949  -3429514.47345  23303722.059    23303725.640
  23806716.590    -1018830.69649   -761982.84145  23806715.754    23806717.791
  21800451.023   -11910868.15449  -9004184.99947  21800450.622    21800453.596
  24074925.035     -910018.80649   -696064.16044  24074924.767    24074927.850
  22339470.712    -7069577.83949  -5487952.22046  22339470.596    22339475.689
  22091183.807    -9939091.26349  -7370227.36547  22091183.472    22091187.812
  20353394.068   -22185854.15949 -15295286.30648  20353393.359    20353397.311
  20573879.793   -18172612.72949 -14139262.50348  20573878.930    20573882.438
  21750776.756   -13149124.60449 -10031397.87747  21750775.821    21750781.063
 04  1 16  3  8  0.0000000  0  9G16G 3G22G29G26G 6G18G21G15
  23310870.826    -4379954.70549  -3400246.65345  23310869.840    23310872.968
  23788849.707    -1112721.84049   -835144.70645  23788848.673    23788851.027
  21788250.454   -11974982.89549  -9054144.50447  21788250.028    21788252.915
  24089106.987     -835492.91549   -637992.02244  24089106.528    24089109.825
  22350069.470    -7013881.76449  -5444552.67346  22350069.339    22350074.259
  22107976.222    -9850846.55449  -7301465.26247  22107975.887    22107980.216
  20352473.422   -22190692.31349 -15299056.28448  20352472.696    20352476.636
  20575026.034   -18166589.14149 -14134568.79548  20575025.156    20575028.674
  21739163.228   -13210154.69349 -10078953.75847  21739162.271    21739167.425
 04  1 16  3  8 30.0000000  0  9G16G 3G22G29G26G 6G18G21G15
  23318101.044    -4341959.58849  -3370640.07345  23318099.995    23318103.283
  23771024.277    -1206394.05449   -908135.99945  23771023.164    23771025.983
  21776116.408   -12038748.40149  -9103831.87547  21776115.929    21776118.706
  24103361.079     -760589.16149   -579625.47645  24103360.522    24103363.956
  22360779.224    -6957602.03349  -5400698.33146  22360779.025    22360783.935
  22124830.334    -9762277.48549  -7232450.41647  22124829.999    22124834.352
  20351632.380   -22195111.72149 -15302499.97148  20351631.669    20351635.610
  20576217.863   -18160326.05349 -14129688.45748  20576216.991    20576220.504
  21727573.092   -13271062.28149 -10126414.18547  21727572.005    21727577.095
 04  1 16  3  9  0.0000000  0  9G16G 3G22G29G26G 6G18G21G15
  23325413.124    -4303534.81849  -3340698.70945  23325412.044    23325415.176
  23753240.382    -1299847.48149   -980956.82045  23753239.355    23753242.734
  21764048.253   -12102167.13349  -9153249.02947  21764047.733    21764050.474
  24117685.529     -685312.44649   -520968.29745  24117685.004    24117689.503
  22371599.170    -6900743.39049  -5356392.89546  22371598.984    22371603.759
  22141745.163    -9673388.95549  -7163186.63147  22141744.889    22141749.232
  20350870.283   -22199116.55049 -15305620.61048  20350869.566    20350873.486
  20577454.893   -18153825.33049 -14124622.95148  20577454.035    20577457.531
  21716005.393   -13331849.57249 -10173780.89247  21716004.403    21716009.617
 04  1 16  3  9 30.0000000  0 10G16G 2G 3G22G29G26G 6G18G21G15
  23332807.864    -4264675.98049  -3310419.08545  23332806.624    23332809.688
                    -10247.68549     -4632.41243
  23735499.899    -1393073.10449  -1053600.11445  23735498.767    23735502.829
  21752047.341   -12165232.11749  -9202390.55447  21752046.831    21752049.539
  24132081.548     -609658.78849   -462017.42145  24132081.339    24132085.942
  22382530.000    -6843301.43149  -5311632.92046  22382529.837    22382534.588
  22158721.923    -9584176.27649  -7093670.28847  22158721.486    22158725.853
  20350188.225   -22202700.98449 -15308413.66948  20350187.498    20350191.372
  20578738.388   -18147080.32649 -14119367.10048  20578737.556    20578741.036
  21704462.174   -13392509.33449 -10221048.22047  21704461.234    21704466.378
 04  1 16  3 10  0.0000000  0 10G16G 2G 3G22G29G26G 6G18G21G15
  23340283.810    -4225388.19849  -3279805.24345  23340282.938    23340285.463
                    -14977.97549     -8319.21443
  23717802.457    -1486071.25649  -1126066.15945  23717801.359    23717806.089
  21740113.260   -12227945.54149  -9251258.13647  21740112.783    21740115.511
  24146548.867     -533633.06449   -402776.58245  24146548.792    24146553.233
  22393571.023    -6785280.89149  -5266422.10846  22393570.843    22393575.579
  22175759.211    -9494644.19549  -7023905.05547  22175758.852    22175763.270
  20349585.406   -22205868.85749 -15310882.14048  20349584.676    20349588.511
  20580067.973   -18140093.24449 -14113922.62048  20580067.176    20580070.577
  21692942.954   -13453043.80149 -10268217.91447  21692941.899    21692946.917
 04  1 16  3 10 30.0000000  0 10G16G 2G 3G22G29G26G 6G18G21G15
  23347841.081    -4185674.78649  -3248859.72645  23347840.306    23347842.437
                    -19294.93249    -11683.83843
  23700148.654    -1578840.96349  -1198354.19345  23700147.629    23700152.768
  21728246.012   -12290308.21249  -9299852.39347  21728245.499    21728248.264
  24161086.523     -457238.97549   -343248.69944  24161086.167    24161090.633
  22404721.547    -6726685.16749  -5220763.10446  22404721.364    22404725.955
  22192856.827    -9404795.92849  -6953893.44447  22192856.445    22192860.925
  20349061.511   -22208621.94449 -15313027.39848  20349060.778    20349064.604
  20581443.640   -18132864.43649 -14108289.78048  20581442.823    20581446.128
  21681447.399   -13513453.34049 -10315290.27147  21681446.367    21681451.361
 04  1 16  3 11  0.0000000  0  9G16G 3G22G29G26G 6G18G21G15
  23355479.043    -4145538.74649  -3217584.91645  23355478.049    23355480.230
  23682538.990    -1671380.27349  -1270462.72145  23682537.970    23682543.230
  21716445.363   -12352320.33549  -9348173.50347  21716444.918    21716447.733
  24175693.276     -380479.21249   -283435.87844  24175693.246    24175697.669
  22415980.957    -6667516.90449  -5174657.95246  22415980.779    22415985.249
  22210014.126    -9314633.97349  -6883637.38547  22210013.668    22210018.246
  20348616.171   -22210962.15649 -15314850.93248  20348615.437    20348619.265
  20582865.260   -18125394.03149 -14102468.67848  20582864.419    20582867.682
  21669975.664   -13573737.90249 -10362265.22447  21669974.619    21669979.678
 04  1 16  3 11 30.0000000  0  9G16G 3G22G29G26G 6G18G21G15
  23363196.729    -4104983.02049  -3185983.09245  23363195.346    23363197.762
  23664973.511    -1763687.14949  -1342390.11245  23664972.441    23664977.742
  21704711.516   -12413982.04749  -9396221.56747  21704711.051    21704713.913
  24190368.782     -303356.82249   -223340.53744  24190368.725    24190373.538
  22427348.863    -6607778.89149  -5128108.84046  22427348.620    22427352.949
  22227230.585    -9224161.02849  -6813139.00447  22227230.119    22227234.772
  20348249.043   -22212891.46649 -15316354.28148  20348248.331    20348252.132
  20584332.713   -18117682.54649 -14096459.72348  20584331.864    20584335.170
  21658527.494   -13633897.63149 -10409142.91847  21658526.474    21658531.616
 04  1 16  3 12  0.0000000  0 10G16G 2G 3G22G29G26G 6G18G21G15
  23370993.691    -4064009.39649  -3154055.57345  23370992.388    23370994.638
                    -29776.68349     13498.14743
  23647452.633    -1855759.01149  -1414134.36645  23647451.620    23647457.001
  21693044.500   -12475292.40649  -9443995.84447  21693044.038    21693046.973
  24205113.305     -225873.76349   -162964.11144  24205113.389    24205118.117
  22438824.858    -6547472.56649  -5081116.88346  22438824.605    22438828.849
  22244505.819    -9133378.55849  -6742399.42347  22244505.450    22244510.148
  20347960.067   -22214410.11649 -15317537.62748  20347959.321    20347963.105
  20585846.263   -18109728.60249 -14090261.83448  20585845.426    20585848.782
  21647103.433   -13693931.23149 -10455922.32847  21647102.503    21647107.591
 04  1 16  3 12 30.0000000  0 10G16G 2G 3G22G29G26G 6G18G21G15
  23378870.346    -4022616.30149  -3121801.23445  23378869.296    23378871.550
                    -32445.91849     42218.69943
  23629977.530    -1947589.50349  -1485690.56345  23629976.718    23629981.949
  21681445.171   -12536246.97449  -9491492.88047  21681444.688    21681447.680
  24219927.156     -148028.34449   -102305.34744  24219926.625    24219931.343
  22450409.284    -6486596.53349  -5033681.00746  22450409.035    22450413.260
  22261840.539    -9042284.61549  -6671417.15647  22261840.109    22261844.717
  20347749.691   -22215515.54149 -15318398.99748  20347748.937    20347752.701
  20587406.920   -18101527.57049 -14083871.41748  20587406.085    20587409.364
  21635704.381   -13753834.08549 -10502599.86147  21635703.394    21635708.444
 04  1 16  3 13  0.0000000  0 10G16G 2G 3G22G29G26G 6G18G21G15
  23386825.622    -3980808.72549  -3089223.89745  23386825.027    23386827.260
                    -34704.64649     40455.18243
  23612548.364    -2039178.63849  -1557058.67845  23612547.674    23612553.209
  21669913.022   -12596848.37249  -9538714.71947  21669912.582    21669915.601
  24234809.202      -69825.86349    -41368.31144  24234808.320    24234812.356
  22462101.194    -6425155.58849  -4985804.94046  22462100.931    22462105.117
  22279233.527    -8950884.00549  -6600195.90247  22279233.058    22279237.601
  20347617.373   -22216210.79349 -15318940.76048  20347616.638    20347620.382
  20589014.173   -18093081.79649 -14077290.28848  20589013.293    20589016.516
  21624329.688   -13813608.61749 -10549177.40047  21624328.679    21624333.678
 04  1 16  3 13 30.0000000  0 10G16G 2G 3G22G29G26G 6G18G21G15
  23394859.480    -3938590.47049  -3056326.57545  23394858.996    23394861.031
                    -36555.13149     39009.26543
  23595165.226    -2130525.63049  -1628238.09145  23595164.598    23595170.717
  21658447.957   -12657097.64749  -9585662.18347  21658447.509    21658450.514
  24249757.814        8729.91349     19844.00544  24249757.021    24249760.374
  22473899.740    -6363153.53249  -4937491.64246  22473899.503    22473903.706
  22296684.124    -8859180.40249  -6528738.56846  22296683.707    22296688.197
  20347562.543   -22216498.90949 -15319165.26348  20347561.796    20347565.551
  20590667.729   -18084392.30249 -14070519.24748  20590666.858    20590670.051
  21612979.352   -13873255.41849 -10595655.40447  21612978.247    21612983.244
 04  1 16  3 14  0.0000000  0 10G16G 2G 3G22G29G26G 6G18G21G15
  23402972.019    -3895960.78849  -3023108.64545  23402971.200    23402973.158
                    -37994.92249     65390.71743
  23577829.109    -2221624.84649  -1699224.42545  23577828.510    23577834.941
  21647050.623   -12716991.41849  -9632332.62247  21647050.079    21647053.108
  24264773.362       87639.69048     81332.14144  24264772.998    24264776.555
  22485805.331    -6300589.53249  -4888740.45646  22485805.022    22485809.179
  22314192.727    -8767172.63349  -6457044.21646  22314192.226    22314196.723
  20347585.580   -22216377.91449 -15319070.96748  20347584.840    20347588.556
  20592368.297   -18075455.79049 -14063555.72548  20592367.431    20592370.609
  21601653.975   -13932770.59449 -10642030.85747  21601652.867    21601657.919
 04  1 16  3 14 30.0000000  0 10G16G 2G 3G22G29G26G 6G18G21G15
  23411162.028    -3852923.26849  -2989572.93545  23411161.111    23411162.879
                    -39025.78349     64587.29643
  23560540.565    -2312475.11349  -1770016.80245  23560539.988    23560546.362
  21635720.700   -12776530.48349  -9678726.68447  21635720.183    21635723.197
  24279855.156      166900.03248    143093.41944  24279855.148    24279858.947
  22497817.125    -6237466.77549  -4839553.88846  22497816.815    22497821.052
  22331758.481    -8674863.92649  -6385115.36346  22331757.976    22331762.552
  20347686.117   -22215849.46249 -15318659.16648  20347685.371    20347689.057
  20594115.910   -18066272.17449 -14056399.65748  20594115.061    20594118.209
  21590353.527   -13992154.69649 -10688304.16547  21590352.500    21590357.483
 04  1 16  3 15  0.0000000  0 10G16G 2G 3G22G29G26G 6G18G21G15
  23419428.694    -3809480.96749  -2955721.77645  23419427.878    23419429.832
                    -39649.05949     64101.79644                  24798781.825
  23543300.027    -2403074.27049  -1840613.50945  23543299.433    23543305.792
  21624458.234   -12835714.99749  -9724844.47247  21624457.700    21624460.741
  24295003.791      246507.91148    205125.54344  24295003.422    24295007.686
  22509934.701    -6173788.40249  -4789934.36746  22509934.407    22509938.617
  22349380.985    -8582256.81949  -6312953.98646  22349380.476    22349385.187
  20347863.742   -22214915.57649 -15317931.46348  20347863.048    20347866.716
  20595910.512   -18056841.55649 -14049051.11848  20595909.658    20595912.811
  21579078.171   -14051407.53549 -10734475.18547  21579077.136    21579082.032
 04  1 16  3 15 30.0000000  0 10G16G 2G 3G22G29G26G 6G18G21G15
  23427771.796    -3765637.09949  -2921557.73445  23427771.211    23427773.265
                    -39866.61049     63932.26744
  23526107.589    -2493420.94549  -1911013.47045  23526106.985    23526113.291
  21613263.065   -12894545.50849  -9770686.41047  21613262.630    21613265.665
  24310218.221      326460.03149    267425.93844  24310217.894    24310222.346
  22522157.408    -6109557.44649  -4739884.26146  22522157.125    22522161.306
  22367059.722    -8489354.36949  -6240562.47746  22367059.247    22367064.023
  20348118.208   -22213578.51849 -15316889.60248  20348117.491    20348121.148
  20597751.973   -18047164.49449 -14041510.54248  20597751.154    20597754.286
  21567827.714   -14110529.10149 -10780543.91147  21567826.684    21567831.636
 04  1 16  3 16  0.0000000  0 10G16G 2G 3G22G29G26G 6G18G21G15
  23436191.161    -3721393.05849  -2887081.84945  23436190.553    23436192.926
  24798776.044      -39678.24749     64078.98144                  24798773.876
  23508964.019    -2583511.50049  -1981213.86845  23508963.443    23508969.530
  21602135.672   -12953020.71449  -9816251.48647  21602135.183    21602138.184
  24325498.308      406754.96549    329993.44944  24325497.918    24325501.937
  22534485.030    -6044775.20949  -4689404.59046  22534484.761    22534489.037
  22384794.491    -8396157.69749  -6167941.70546  22384793.990    22384798.868
  20348449.387   -22211837.97649 -15315533.32948  20348448.672    20348452.373
  20599640.694   -18037239.47149 -14033776.75148  20599639.836    20599642.904
  21556602.533   -14169517.93749 -10826509.22047  21556601.535    21556606.493
 04  1 16  3 16 30.0000000  0 10G16G 2G 3G22G29G26G 6G18G21G15
  23444686.291    -3676751.51349  -2852296.21745  23444685.522    23444688.121
  24798889.159      -39085.04949     64541.19244                  24798887.128
  23491869.642    -2673343.98949  -2051213.18345  23491868.978    23491875.021
  21591075.826   -13011140.49249  -9861539.60847  21591075.350    21591078.324
  24340842.722      487390.16448    392826.09644  24340842.343    24340846.605
  22546917.028    -5979444.32349  -4638497.40146  22546916.735    22546921.207
  22402584.856    -8302669.06649  -6095093.44146  22402584.324    22402589.288
  20348857.102   -22209695.37049 -15313863.75248  20348856.390    20348860.075
  20601576.666   -18027065.90249 -14025849.29648  20601575.826    20601578.838
  21545402.800   -14228373.44349 -10872370.63947  21545401.749    21545406.684
 04  1 16  3 17  0.0000000  0 10G16G 2G 3G22G29G26G 6G18G21G15
  23453256.743    -3631714.38449  -2817202.34045  23453255.809    23453258.330
                    -38087.33349     65318.62044
  23474824.860    -2762915.27149  -2121008.93745  23474824.217    23474830.354
  21580083.712   -13068904.01349  -9906550.13347  21580083.279    21580086.275
  24356251.209      568363.78949    455922.41044  24356251.188    24356255.988
  22559453.058    -5913566.56049  -4587164.06546  22559452.806    22559457.409
  22420430.421    -8208890.07549  -6022018.91746  22420429.899    22420434.915
  20349341.271   -22207150.95049 -15311881.07348  20349340.575    20349344.297
  20603560.097   -18016642.77849 -14017727.36948  20603559.243    20603562.273
  21534228.572   -14287094.24249 -10918127.08447  21534227.515    21534232.520
 04  1 16  3 17 30.0000000  0 10G16G 2G 3G22G29G26G 6G18G21G15
  23461902.095    -3586282.41249  -2781800.79745  23461901.245    23461903.814
                    -36684.00349     66412.11344
  23457830.420    -2852221.26149  -2190597.99145  23457829.733    23457835.893
  21569159.969   -13126309.07849  -9951281.33348  21569159.492    21569162.436
  24371724.503      649675.05049    519281.78244  24371723.888    24371728.206
  22572093.015    -5847142.58949  -4535405.12646  22572092.766    22572097.576
  22438331.132    -8114820.95849  -5948718.31546  22438330.697    22438335.745
  20349901.991   -22204204.33349 -15309584.98948  20349901.257    20349905.007
  20605591.444   -18005967.84649 -14009409.23048  20605590.616    20605593.678
  21523080.462   -14345677.93449 -10963776.69947  21523079.432    21523084.472
 04  1 16  3 18  0.0000000  0 10G16G 2G 3G22G29G26G 6G18G21G15
  23470620.968    -3540463.63349  -2746097.84545  23470620.278    23470622.984
                    -34881.64649    125186.62043
  23440885.555    -2941264.97249  -2259982.66045  23440884.934    23440891.264
  21558303.261   -13183361.28449  -9995737.58348  21558302.798    21558305.752
  24387260.645      731316.01449    582898.13244  24387259.982    24387263.945
  22584835.282    -5780180.47449  -4483226.85146  22584835.094    22584840.037
  22456285.707    -8020469.58649  -5875197.77846  22456285.227    22456290.298
  20350537.962   -22200862.33349 -15306980.82548  20350537.206    20350540.962
  20607669.898   -17995046.13849 -14000898.80348  20607668.998    20607672.047
  21511957.536   -14404129.38649 -11009323.26447  21511956.492    21511961.611
 04  1 16  3 18 30.0000000  0 10G16G 2G 3G22G29G26G 6G18G21G15
  23479414.246    -3494253.91049  -2710090.28245  23479413.631    23479416.629
                    -32674.44849    126894.62743
  23423992.315    -3030037.36749  -2329155.92245  23423991.729    23423998.394
  21547515.030   -13240053.65949 -10039913.44548  21547514.566    21547517.529
  24402860.422      813290.79448    646774.64844  24402859.722    24402862.844
  22597680.982    -5712675.69649  -4430625.72146  22597680.742    22597685.778
  22474294.821    -7925831.20649  -5801453.59946  22474294.350    22474299.480
  20351250.076   -22197119.76049 -15304064.54348  20351249.353    20351253.150
  20609796.583   -17983869.99749 -13992190.11348  20609795.676    20609798.756
  21500861.148   -14462441.02349 -11054760.88947  21500860.114    21500865.225
 04  1 16  3 19  0.0000000  0 10G16G 2G 3G22G29G26G 6G18G21G15
  23488280.983    -3447657.30349  -2673781.23145  23488280.541    23488283.966
                    -30064.83949    128915.52343
  23407150.712    -3118537.60049  -2398117.09245  23407150.208    23407157.323
  21536795.002   -13296387.66249 -10083810.05748  21536794.538    21536797.552
  24418522.137      895595.54348    710908.23244  24418521.090    24418524.630
  22610629.140    -5644632.33949  -4377604.91446  22610628.897    22610633.989
  22492357.880    -7830909.56449  -5727488.69146  22492357.345    22492362.519
  20352038.050   -22192978.85149 -15300837.84948  20352037.348    20352041.159
  20611971.352   -17972440.86349 -13983284.28648  20611970.480    20611973.621
  21489791.186   -14520613.69349 -11100090.22047  21489790.188    21489795.302
 04  1 16  3 19 30.0000000  0 10G16G 2G 3G22G29G26G 6G18G21G15
  23497220.149    -3400682.15749  -2637177.21545  23497219.543    23497223.200
                    -27059.71849    148506.59343
  23390360.629    -3206768.98049  -2466868.77045  23390360.161    23390367.638
  21526141.999   -13352368.85049 -10127431.74847  21526141.592    21526144.673
  24434245.526      978221.68048    775292.25044  24434244.563    24434248.670
  22623678.227    -5576058.87949  -4324171.04546  22623677.864    22623683.030
  22510473.217    -7735712.84449  -5653309.44946  22510472.723    22510477.857
  20352900.514   -22188446.77949 -15297306.35148  20352899.771    20352903.556
  20614193.317   -17960764.30749 -13974185.66748  20614192.452    20614195.616
  21478746.735   -14578652.75449 -11145315.44747  21478745.704    21478750.797
 04  1 16  3 20  0.0000000  0 10G16G 2G 3G22G29G26G 6G18G21G15
  23506232.488    -3353322.65049  -2600273.67445  23506231.516    23506235.604
                    -23651.79149    151161.31343
  23373624.096    -3294720.61049  -2535402.48945  23373623.607    23373631.073
  21515557.911   -13407988.55149 -10170771.75547  21515557.480    21515560.556
  24450030.772     1061175.45748    839931.57544  24450030.267    24450034.719
  22636829.024    -5506949.45049  -4270319.53346  22636828.800    22636834.120
  22528642.074    -7640234.72449  -5578910.92046  22528641.616    22528646.735
  20353838.680   -22183516.45049 -15293464.52648  20353837.961    20353841.759
  20616464.155   -17948830.95449 -13964886.94448  20616463.269    20616466.445
  21467729.268   -14636549.06749 -11190429.44047  21467728.281    21467733.364
 04  1 16  3 20 30.0000000  0 10G16G 2G 3G22G29G26G 6G18G21G15
  23515315.884    -3305588.71349  -2563078.39545  23515314.807    23515319.180
                    -19849.19849    154123.43443
  23356939.635    -3382397.85549  -2603722.38445  23356939.187    23356946.675
  21505041.213   -13463254.13849 -10213835.82448  21505040.800    21505043.844
  24465876.515     1144446.71248    904818.25744  24465875.588
  22650080.248    -5437313.84149  -4216058.01046  22650079.976    22650085.346
  22546862.563    -7544484.80449  -5504300.59746  22546862.132    22546867.352
  20354851.067   -22178196.15549 -15289318.83148  20354850.350    20354854.173
  20618782.494   -17936647.74449 -13955393.52048  20618781.615    20618784.813
  21456737.885   -14694309.26549 -11235437.36847  21456736.890    21456741.934
 04  1 16  3 21  0.0000000  0 10G16G 2G 3G22G29G26G 6G18G21G15
  23524471.310    -3257475.83349  -2525587.82445  23524470.339    23524475.084
                    -15645.82549    171882.31443
  23340309.293    -3469790.55249  -2671820.57245  23340308.920    23340316.445
  21494593.396   -13518157.89449 -10256617.94748  21494592.943    21494595.967
  24481783.536     1228040.33148    969956.11544  24481782.516
  22663432.395    -5367147.22849  -4161382.72246  22663432.153    22663437.615
  22565135.791    -7448457.91749  -5429474.46946  22565135.282    22565140.582
  20355938.799   -22172479.90949 -15284864.60248  20355938.077    20355941.928
  20621149.925   -17924206.70849 -13945699.20248  20621149.086    20621152.255
  21445773.931   -14751925.13349 -11280332.83547  21445772.891    21445777.936
 04  1 16  3 21 30.0000000  0 10G16G 2G 3G22G29G26G 6G18G21G15
  23533697.134    -3208991.78549  -2487808.03545  23533696.392    23533701.681
                    -11047.99649    175476.29043
  23323732.535    -3556901.92649  -2739699.52945  23323732.166    23323739.579
  21484213.388   -13572705.25049 -10299122.35948  21484212.899    21484215.988
  24497750.361     1311948.37648   1035339.02344  24497749.111
  22676884.153    -5296457.69349  -4106299.94546  22676883.880    22676889.334
  22583460.192    -7352161.88749  -5354438.60346  22583459.597    22583465.074
  20357100.603   -22166374.45749 -15280107.09148  20357099.883    20357103.795
  20623565.478   -17911512.88249 -13935807.90548  20623564.613    20623567.737
  21434836.382   -14809401.46349 -11325119.56547  21434835.403    21434840.441
 04  1 16  3 22  0.0000000  0 10G16G 2G 3G22G29G26G 6G18G21G15
  23542994.184    -3160135.03849  -2449737.83745  23542993.405    23542999.177
                     -6052.44449    179383.24743
  23307210.852    -3643725.14949  -2807353.99145  23307210.364    23307217.432
  21473901.934   -13626891.98949 -10341345.77848  21473901.487    21473904.585
  24513778.626     1396172.59848   1100968.32844  24513777.313    24513783.264
  22690435.784    -5225243.51749  -4050808.38346  22690435.468    22690441.089
  22601836.059    -7255594.54949  -5279191.34346  22601835.505    22601841.189
  20358336.968   -22159876.83849 -15275044.00948  20358336.257    20358340.234
  20626030.023   -17898561.54849 -13925715.95348  20626029.177    20626032.247
  21423926.607   -14866733.05249 -11369793.52347  21423925.525    21423930.513
 04  1 16  3 22 30.0000000  0 10G16G 2G 3G22G29G26G 6G18G21G15
  23552360.987    -3110913.88249  -2411383.69045  23552359.841    23552365.888
                      -666.00449    194949.82143
  23290743.279    -3730263.56949  -2874786.48845  23290742.854    23290749.555
  21463658.060   -13680723.44449 -10383292.33748  21463657.679    21463660.760
  24529865.349     1480704.78048   1166837.51344  24529864.204    24529868.886
  22704085.635    -5153512.87449  -3994914.37346  22704085.329    22704091.027
  22620262.160    -7158763.80149  -5203738.82846  22620261.409    22620267.497
  20359646.721   -22152993.87349 -15269680.66248  20359646.010    20359650.054
  20628542.743   -17885357.37549 -13915426.97948  20628541.898    20628544.874
  21413043.298   -14923924.62449 -11414358.37747  21413042.249    21413047.188
